[[{"header":{"parameterUnit":"m.s-1","parameterCategory":1,"la1":31.0,"la2":29.5877,"lo1":-88.7671,"lo2":-86.6584,"dy":0.0162,"dx":0.0185,"nx":115,"ny":88,"refTime":"2026-04-17T00:00:00:Z","depth":0,"parameterNumber":2,"parameterNumberName":"U-component_of_WINDS"},"data":[0.0,0.0,0.0,0.0,0.0,0.0,0.0,0.0,0.0,0.0,0.0,0.0,0.0,0.0,0.0,0.0,0.0,0.0,0.0,0.0,0.0,0.0,0.0,0.0,0.0,0.0,0.0,0.0,0.0,0.0,0.0,0.0,0.0,0.0,0.0,0.0,0.0,0.0,0.0,0.0,0.0,0.0,0.0,0.0,0.0,0.0,0.0,0.0,0.0,0.0,0.0,0.0,0.0,0.0,0.0,0.0,0.0,0.0,0.0,0.0,0.0,0.0,0.0,0.0,0.0,0.0,0.0,0.0,0.0,0.0,0.0,0.0,0.0,0.0,0.0,0.0,0.0,0.0,0.0,0.0,0.0,0.0,0.0,0.0,0.0,0.0,0.0,0.0,0.0,0.0,0.0,0.0,0.0,0.0,0.0,0.0,0.0,0.0,0.0,0.0,0.0,0.0,0.0,0.0,0.0,0.0,0.0,0.0,0.0,0.0,0.0,0.0,0.0,0.0,0.0,0.0,0.0,0.0,0.0,0.0,0.0,0.0,0.0,0.0,0.0,0.0,0.0,0.0,0.0,0.0,0.0,0.0,0.0,0.0,0.0,0.0,0.0,0.0,0.0,0.0,0.0,0.0,0.0,0.0,0.0,0.0,0.0,0.0,0.0,0.0,0.0,0.0,0.0,0.0,0.0,0.0,0.0,0.0,0.0,0.0,0.0,0.0,0.0,0.0,0.0,0.0,0.0,0.0,0.0,0.0,0.0,0.0,0.0,0.0,0.0,0.0,0.0,0.0,0.0,0.0,0.0,0.0,0.0,0.0,0.0,0.0,0.0,0.0,0.0,0.0,0.0,0.0,0.0,0.0,0.0,0.0,0.0,0.0,0.0,0.0,0.0,0.0,0.0,0.0,0.0,0.0,0.0,0.0,0.0,0.0,0.0,0.0,0.0,0.0,0.0,0.0,0.0,0.0,0.0,0.0,0.0,0.0,0.0,0.0,0.0,0.0,0.0,0.0,0.0,0.0,0.0,0.0,0.0,0.0,0.0,0.0,0.0,0.0,0.0,0.0,0.0,0.0,0.0,0.0,0.0,0.0,0.0,0.0,0.0,0.0,0.0,0.0,0.0,0.0,0.0,0.0,0.0,0.0,0.0,0.0,0.0,0.0,0.0,0.0,0.0,0.0,0.0,0.0,0.0,0.0,0.0,0.0,0.0,0.0,0.0,0.0,0.0,0.0,0.0,0.0,0.0,0.0,0.0,0.0,0.0,0.0,0.0,0.0,0.0,0.0,0.0,0.0,0.0,0.0,0.0,0.0,0.0,0.0,0.0,0.0,0.0,0.0,0.0,0.0,0.0,0.0,0.0,0.0,0.0,0.0,0.0,0.0,0.0,0.0,0.0,0.0,0.0,0.0,0.0,0.0,0.0,0.0,0.0,0.0,0.0,0.0,0.0,0.0,0.0,0.0,0.0,0.0,0.0,0.0,0.0,0.0,0.0,0.0,0.0,0.0,0.0,0.0,0.0,0.0,0.0,0.0,0.0,0.0,0.0,0.0,0.0,0.0,0.0,0.0,0.0,0.0,0.0,0.0,0.0,0.0,0.0,0.0,0.0,0.0,0.0,0.0,0.0,0.0,0.0,0.0,0.0,0.0,0.0,0.0,0.0,0.0,0.0,0.0,0.0,0.0,0.0,0.0,0.0,0.0,0.0,0.0,0.0,0.0,0.0,0.0,0.0,0.0,0.0,0.0,0.0,0.0,0.0,0.0,0.0,0.0,0.0,0.0,0.0,0.0,0.0,0.0,0.0,0.0,0.0,0.0,0.0,0.0,0.0,0.0,0.0,0.0,0.0,0.0,0.0,0.0,0.0,0.0,0.0,0.0,0.0,0.0,0.0,0.0,0.0,0.0,0.0,0.0,0.0,0.0,0.0,0.0,0.0,0.0,0.0,0.0,0.0,0.0,0.0,0.0,0.0,0.0,0.0,0.0,0.0,0.0,0.0,0.0,0.0,0.0,0.0,0.0,0.0,0.0,0.0,0.0,0.0,0.0,0.0,0.0,0.0,0.0,0.0,0.0,0.0,0.0,0.0,0.0,0.0,0.0,0.0,0.0,0.0,0.0,0.0,0.0,0.0,0.0,0.0,0.0,0.0,0.0,0.0,0.0,0.0,0.0,0.0,0.0,0.0,0.0,0.0,0.0,0.0,0.0,0.0,0.0,0.0,0.0,0.0,0.0,0.0,0.0,0.0,0.0,0.0,0.0,0.0,0.0,0.0,0.0,0.0,0.0,0.0,0.0,0.0,0.0,0.0,0.0,0.0,0.0,0.0,0.0,0.0,0.0,0.0,0.0,0.0,0.0,0.0,0.0,0.0,0.0,0.0,0.0,0.0,0.0,0.0,0.0,0.0,0.0,0.0,0.0,0.0,0.0,0.0,0.0,0.0,0.0,0.0,0.0,0.0,0.0,0.0,0.0,0.0,0.0,0.0,0.0,0.0,0.0,0.0,0.0,0.0,0.0,0.0,0.0,0.0,0.0,0.0,0.0,0.0,0.0,0.0,0.0,0.0,0.0,0.0,0.0,0.0,0.0,0.0,0.0,0.0,0.0,0.0,0.0,0.0,0.0,0.0,0.0,0.0,0.0,0.0,0.0,0.0,0.0,0.0,0.0,0.0,0.0,0.0,0.0,0.0,0.0,0.0,0.0,0.0,0.0,0.0,0.0,0.0,0.0,0.0,0.0,0.0,0.0,0.0,0.0,0.0,0.0,0.0,0.0,0.0,0.0,0.0,0.0,0.0,0.0,0.0,0.0,0.0,0.0,0.0,0.0,0.0,0.0,0.0,0.0,0.0,0.0,0.0,0.0,0.0,0.0,0.0,0.0,0.0,0.0,0.0,0.0,0.0,0.0,0.0,0.0,0.0,0.0,0.0,0.0,0.0,0.0,0.0,0.0,0.0,0.0,0.0,0.0,0.0,0.0,0.0,0.0,0.0,0.0,0.0,0.0,0.0,0.0,0.0,0.0,0.0,0.0,0.0,0.0,0.0,0.0,0.0,0.0,0.0,0.0,0.0,0.0,0.0,0.0,0.0,0.0,0.0,0.0,0.0,0.0,0.0,0.0,0.0,0.0,0.0,0.0,0.0,0.0,0.0,0.0,0.0,0.0,0.0,0.0,0.0,0.0,0.0,0.0,0.0,0.0,0.0,0.0,0.0,0.0,0.0,0.0,0.0,0.0,0.0,0.0,0.0,0.0,0.0,0.0,0.0,0.0,0.0,0.0,0.0,0.0,0.0,0.0,0.0,0.0,0.0,0.0,0.0,0.0,0.0,0.0,0.0,0.0,0.0,0.0,0.0,0.0,0.0,0.0,0.0,0.0,0.0,0.0,0.0,0.0,0.0,0.0,0.0,0.0,0.0,0.0,0.0,0.0,0.0,0.0,0.0,0.0,0.0,0.0,0.0,0.0,0.0,0.0,0.0,0.0,0.0,0.0,0.0,0.0,0.0,0.0,0.0,0.0,0.0,0.0,0.0,0.0,0.0,0.0,0.0,0.0,0.0,0.0,0.0,0.0,0.0,0.0,0.0,0.0,0.0,0.0,0.0,0.0,0.0,0.0,0.0,0.0,0.0,0.0,0.0,0.0,0.0,0.0,0.0,0.0,0.0,0.0,0.0,0.0,0.0,0.0,0.0,0.0,0.0,0.0,0.0,0.0,0.0,0.0,0.0,0.0,0.0,0.0,0.0,0.0,0.0,0.0,0.0,0.0,0.0,0.0,0.0,0.0,0.0,0.0,0.0,0.0,0.0,0.0,0.0,0.0,0.0,0.0,0.0,0.0,0.0,0.0,0.0,0.0,0.0,0.0,0.0,0.0,0.0,0.0,0.0,0.0,0.0,0.0,0.0,0.0,0.0,0.0,0.0,0.0,0.0,0.0,0.0,0.0,0.0,0.0,0.0,0.0,0.0,0.0,0.0,0.0,0.0,0.0,0.0,0.0,0.0,0.0,0.0,0.0,0.0,0.0,0.0,0.0,0.0,0.0,0.0,0.0,0.0,0.0,0.0,0.0,0.0,0.0,0.0,0.0,0.0,0.0,0.0,0.0,0.0,0.0,0.0,0.0,0.0,0.0,0.0,0.0,0.0,0.0,0.0,0.0,0.0,0.0,0.0,0.0,0.0,0.0,0.0,0.0,0.0,0.0,0.0,0.0,0.0,0.0,0.0,0.0,0.0,0.0,0.0,0.0,0.0,0.0,0.0,0.0,0.0,0.0,0.0,0.0,-1.6194,0.0,0.0,0.0,0.0,0.0,0.0,0.0,0.0,0.0,0.0,0.0,0.0,0.0,0.0,0.0,0.0,0.0,0.0,0.0,0.0,0.0,0.0,0.0,0.0,0.0,0.0,0.0,0.0,0.0,0.0,0.0,0.0,0.0,0.0,0.0,0.0,0.0,0.0,0.0,0.0,0.0,0.0,0.0,0.0,0.0,0.0,0.0,0.0,0.0,0.0,0.0,0.0,0.0,0.0,0.0,0.0,0.0,0.0,0.0,0.0,0.0,0.0,0.0,0.0,0.0,0.0,0.0,0.0,0.0,0.0,0.0,0.0,0.0,0.0,0.0,0.0,0.0,0.0,0.0,0.0,0.0,0.0,0.0,0.0,0.0,0.0,0.0,0.0,0.0,0.0,0.0,0.0,0.0,0.0,0.0,0.0,0.0,0.0,0.0,0.0,0.0,0.0,0.0,0.0,0.0,0.0,0.0,0.0,0.0,0.0,-1.6052,-1.6081,-1.6123,-1.6137,-1.6137,0.0,0.0,0.0,0.0,0.0,0.0,0.0,0.0,0.0,0.0,0.0,0.0,0.0,0.0,0.0,0.0,0.0,0.0,0.0,0.0,0.0,0.0,0.0,0.0,0.0,0.0,0.0,0.0,0.0,0.0,0.0,0.0,0.0,0.0,0.0,0.0,0.0,0.0,0.0,0.0,0.0,0.0,0.0,0.0,0.0,0.0,0.0,0.0,0.0,0.0,0.0,0.0,0.0,0.0,0.0,0.0,0.0,0.0,0.0,0.0,0.0,0.0,0.0,0.0,0.0,0.0,0.0,0.0,0.0,0.0,0.0,0.0,0.0,0.0,0.0,0.0,0.0,0.0,0.0,0.0,0.0,0.0,0.0,0.0,0.0,0.0,0.0,0.0,0.0,0.0,0.0,0.0,0.0,0.0,0.0,0.0,0.0,0.0,0.0,0.0,0.0,0.0,0.0,0.0,0.0,0.0,0.0,0.0,0.0,0.0,0.0,0.0,-1.6309,-1.6292,-1.6139,0.0,0.0,0.0,0.0,0.0,0.0,0.0,0.0,0.0,0.0,0.0,0.0,0.0,0.0,0.0,0.0,0.0,0.0,0.0,0.0,0.0,0.0,0.0,0.0,0.0,0.0,0.0,0.0,0.0,0.0,0.0,0.0,0.0,0.0,0.0,0.0,0.0,0.0,0.0,0.0,0.0,0.0,0.0,0.0,0.0,0.0,0.0,0.0,0.0,0.0,0.0,0.0,0.0,0.0,0.0,0.0,0.0,0.0,0.0,0.0,0.0,0.0,0.0,0.0,0.0,0.0,0.0,0.0,0.0,0.0,0.0,0.0,0.0,0.0,0.0,0.0,0.0,0.0,0.0,0.0,0.0,0.0,0.0,0.0,0.0,0.0,0.0,0.0,0.0,0.0,0.0,0.0,0.0,0.0,0.0,0.0,0.0,0.0,0.0,0.0,0.0,0.0,0.0,0.0,0.0,0.0,0.0,0.0,0.0,0.0,-1.6414,-1.7071,-1.7101,0.0,-1.6256,0.0,0.0,0.0,0.0,0.0,0.0,0.0,0.0,0.0,0.0,0.0,0.0,0.0,0.0,0.0,0.0,0.0,0.0,0.0,0.0,0.0,0.0,0.0,0.0,0.0,0.0,0.0,0.0,0.0,0.0,0.0,0.0,0.0,0.0,0.0,0.0,0.0,0.0,0.0,0.0,0.0,0.0,0.0,0.0,0.0,0.0,0.0,0.0,0.0,0.0,0.0,0.0,0.0,0.0,0.0,0.0,0.0,0.0,0.0,0.0,0.0,0.0,0.0,0.0,0.0,0.0,0.0,0.0,0.0,0.0,0.0,0.0,0.0,0.0,0.0,0.0,0.0,0.0,0.0,0.0,0.0,0.0,0.0,0.0,0.0,0.0,0.0,0.0,0.0,0.0,0.0,0.0,0.0,0.0,0.0,0.0,0.0,0.0,0.0,0.0,0.0,0.0,0.0,0.0,0.0,0.0,0.0,0.0,0.0,0.0,0.0,-1.7208,-1.6824,-1.6485,0.0,0.0,0.0,0.0,0.0,0.0,0.0,0.0,0.0,0.0,0.0,0.0,0.0,0.0,0.0,0.0,0.0,0.0,0.0,0.0,0.0,0.0,0.0,0.0,0.0,0.0,0.0,0.0,0.0,0.0,0.0,0.0,0.0,0.0,0.0,0.0,0.0,0.0,0.0,0.0,0.0,0.0,0.0,0.0,0.0,0.0,0.0,0.0,0.0,0.0,0.0,0.0,0.0,0.0,0.0,0.0,0.0,0.0,0.0,0.0,0.0,0.0,0.0,0.0,0.0,0.0,0.0,0.0,0.0,0.0,0.0,0.0,0.0,0.0,0.0,0.0,0.0,0.0,0.0,0.0,0.0,0.0,0.0,0.0,0.0,0.0,0.0,0.0,0.0,0.0,0.0,0.0,0.0,0.0,0.0,0.0,0.0,0.0,0.0,0.0,0.0,0.0,0.0,0.0,0.0,0.0,0.0,0.0,0.0,0.0,-1.6763,0.0,-1.7162,-1.6717,-1.6223,-1.567,0.0,0.0,0.0,0.0,0.0,0.0,0.0,0.0,0.0,0.0,0.0,0.0,0.0,0.0,0.0,0.0,0.0,0.0,0.0,0.0,0.0,0.0,0.0,0.0,0.0,0.0,0.0,0.0,0.0,0.0,0.0,0.0,0.0,0.0,0.0,0.0,0.0,0.0,0.0,0.0,0.0,0.0,0.0,0.0,0.0,0.0,0.0,0.0,0.0,0.0,0.0,0.0,0.0,0.0,0.0,0.0,0.0,0.0,0.0,0.0,0.0,0.0,0.0,0.0,0.0,0.0,0.0,0.0,0.0,0.0,0.0,0.0,0.0,0.0,0.0,0.0,0.0,0.0,0.0,0.0,0.0,0.0,0.0,0.0,0.0,0.0,0.0,0.0,0.0,0.0,0.0,0.0,0.0,0.0,0.0,0.0,0.0,0.0,0.0,0.0,0.0,0.0,0.0,0.0,0.0,0.0,0.0,0.0,0.0,-1.6548,-1.6548,-1.7223,-1.7177,-1.624,0.0,0.0,0.0,0.0,0.0,0.0,0.0,0.0,0.0,0.0,0.0,0.0,0.0,0.0,0.0,0.0,0.0,0.0,0.0,0.0,0.0,0.0,0.0,0.0,0.0,0.0,0.0,0.0,0.0,0.0,0.0,0.0,0.0,0.0,0.0,0.0,0.0,0.0,0.0,0.0,0.0,0.0,0.0,0.0,0.0,0.0,0.0,0.0,0.0,0.0,0.0,0.0,0.0,0.0,0.0,0.0,0.0,0.0,0.0,0.0,0.0,0.0,0.0,0.0,0.0,0.0,0.0,0.0,0.0,0.0,0.0,0.0,0.0,0.0,0.0,0.0,0.0,0.0,0.0,0.0,0.0,0.0,0.0,0.0,0.0,0.0,0.0,0.0,0.0,0.0,0.0,0.0,0.0,0.0,0.0,0.0,0.0,0.0,0.0,0.0,0.0,0.0,0.0,0.0,0.0,0.0,0.0,0.0,0.0,-1.5239,-1.5455,-1.653,-1.8377,-1.6437,-1.5332,0.0,0.0,0.0,0.0,0.0,0.0,0.0,0.0,0.0,0.0,0.0,0.0,0.0,0.0,0.0,0.0,0.0,0.0,0.0,0.0,0.0,0.0,0.0,0.0,0.0,0.0,0.0,0.0,0.0,0.0,0.0,0.0,0.0,0.0,0.0,0.0,0.0,0.0,0.0,0.0,0.0,0.0,0.0,0.0,0.0,0.0,0.0,0.0,0.0,0.0,0.0,0.0,0.0,0.0,0.0,0.0,0.0,0.0,0.0,0.0,0.0,0.0,0.0,0.0,0.0,0.0,0.0,0.0,0.0,0.0,0.0,0.0,0.0,0.0,0.0,0.0,0.0,0.0,0.0,0.0,0.0,0.0,0.0,0.0,0.0,0.0,0.0,0.0,0.0,0.0,0.0,0.0,0.0,0.0,0.0,0.0,0.0,0.0,0.0,0.0,0.0,0.0,0.0,0.0,0.0,0.0,0.0,0.0,0.0,-1.4824,0.0,-1.6868,0.0,-1.6068,-1.4868,0.0,0.0,0.0,0.0,0.0,0.0,0.0,0.0,0.0,0.0,0.0,0.0,0.0,0.0,0.0,0.0,0.0,0.0,0.0,0.0,0.0,0.0,0.0,0.0,0.0,0.0,0.0,0.0,0.0,0.0,0.0,0.0,0.0,0.0,0.0,0.0,0.0,0.0,0.0,0.0,0.0,0.0,0.0,0.0,0.0,0.0,0.0,0.0,0.0,0.0,0.0,0.0,0.0,0.0,0.0,0.0,0.0,0.0,0.0,0.0,0.0,0.0,0.0,0.0,0.0,0.0,0.0,0.0,0.0,0.0,0.0,0.0,0.0,0.0,0.0,0.0,0.0,0.0,0.0,0.0,0.0,0.0,0.0,0.0,0.0,0.0,0.0,0.0,0.0,0.0,0.0,0.0,0.0,0.0,0.0,0.0,0.0,0.0,0.0,0.0,0.0,0.0,0.0,0.0,0.0,0.0,0.0,0.0,-1.3575,-1.6102,-1.7423,-1.7531,-1.6362,-1.6194,-1.4932,0.0,0.0,0.0,0.0,0.0,0.0,0.0,0.0,0.0,0.0,0.0,0.0,0.0,0.0,0.0,0.0,0.0,0.0,0.0,0.0,0.0,0.0,0.0,0.0,0.0,0.0,0.0,0.0,0.0,0.0,0.0,0.0,0.0,0.0,0.0,0.0,0.0,0.0,0.0,0.0,0.0,0.0,0.0,0.0,0.0,0.0,0.0,0.0,0.0,0.0,0.0,0.0,0.0,0.0,0.0,0.0,0.0,0.0,0.0,0.0,0.0,0.0,0.0,0.0,0.0,0.0,0.0,0.0,0.0,0.0,0.0,0.0,0.0,0.0,0.0,0.0,0.0,0.0,0.0,0.0,0.0,0.0,0.0,0.0,0.0,0.0,0.0,0.0,0.0,0.0,0.0,0.0,0.0,0.0,0.0,0.0,0.0,0.0,0.0,0.0,0.0,0.0,0.0,0.0,0.0,0.0,0.0,0.0,0.0,-1.684,-1.684,-1.7746,-1.95,-1.6516,-1.5085,0.0,0.0,0.0,0.0,0.0,0.0,0.0,0.0,0.0,0.0,0.0,0.0,0.0,0.0,0.0,0.0,0.0,0.0,0.0,0.0,0.0,0.0,0.0,0.0,0.0,0.0,0.0,0.0,0.0,0.0,0.0,0.0,0.0,0.0,0.0,0.0,0.0,0.0,0.0,0.0,0.0,0.0,0.0,0.0,0.0,0.0,0.0,0.0,0.0,0.0,0.0,0.0,0.0,0.0,0.0,0.0,0.0,0.0,0.0,0.0,0.0,0.0,0.0,0.0,0.0,0.0,0.0,0.0,0.0,0.0,0.0,0.0,0.0,0.0,0.0,0.0,0.0,0.0,0.0,0.0,0.0,0.0,0.0,0.0,0.0,0.0,0.0,0.0,0.0,0.0,0.0,0.0,0.0,0.0,0.0,0.0,0.0,0.0,0.0,0.0,0.0,0.0,0.0,0.0,0.0,0.0,0.0,0.0,0.0,-1.9038,-1.8684,-1.9131,-2.0503,-1.7392,-1.5918,-1.6363,0.0,0.0,0.0,0.0,0.0,0.0,0.0,0.0,0.0,0.0,0.0,0.0,0.0,0.0,0.0,0.0,0.0,0.0,0.0,0.0,0.0,0.0,0.0,0.0,0.0,0.0,0.0,0.0,0.0,0.0,0.0,0.0,0.0,0.0,0.0,0.0,0.0,0.0,0.0,0.0,0.0,0.0,0.0,0.0,0.0,0.0,0.0,0.0,0.0,0.0,0.0,0.0,0.0,0.0,0.0,0.0,0.0,0.0,0.0,0.0,0.0,0.0,0.0,0.0,0.0,0.0,0.0,0.0,0.0,0.0,0.0,0.0,0.0,0.0,0.0,0.0,0.0,0.0,0.0,0.0,0.0,0.0,0.0,0.0,0.0,0.0,0.0,0.0,0.0,0.0,0.0,0.0,0.0,0.0,0.0,0.0,0.0,0.0,0.0,0.0,0.0,0.0,0.0,0.0,0.0,0.0,0.0,0.0,-2.2301,-2.2455,-2.1596,-1.9703,-1.873,-1.7347,0.0,0.0,0.0,0.0,0.0,0.0,0.0,0.0,0.0,0.0,0.0,0.0,0.0,0.0,0.0,0.0,0.0,0.0,0.0,0.0,0.0,0.0,0.0,0.0,0.0,0.0,0.0,0.0,0.0,0.0,0.0,0.0,0.0,0.0,0.0,0.0,0.0,0.0,0.0,0.0,0.0,0.0,0.0,0.0,0.0,0.0,0.0,0.0,0.0,0.0,0.0,0.0,0.0,0.0,0.0,0.0,0.0,0.0,0.0,0.0,0.0,0.0,0.0,0.0,0.0,0.0,0.0,0.0,0.0,0.0,0.0,0.0,0.0,0.0,0.0,0.0,0.0,0.0,0.0,0.0,0.0,0.0,0.0,0.0,0.0,0.0,0.0,0.0,0.0,0.0,0.0,0.0,0.0,0.0,0.0,0.0,0.0,0.0,0.0,0.0,0.0,0.0,0.0,0.0,0.0,0.0,0.0,0.0,0.0,-2.2978,-2.4518,-2.4579,-2.2994,-2.0426,-1.8531,0.0,0.0,0.0,0.0,0.0,0.0,0.0,0.0,0.0,0.0,0.0,0.0,0.0,0.0,0.0,0.0,0.0,0.0,0.0,0.0,0.0,0.0,0.0,0.0,0.0,0.0,0.0,0.0,0.0,0.0,0.0,0.0,0.0,0.0,0.0,0.0,0.0,0.0,0.0,0.0,0.0,0.0,0.0,0.0,0.0,0.0,0.0,0.0,0.0,0.0,0.0,0.0,0.0,0.0,0.0,0.0,0.0,0.0,0.0,0.0,0.0,0.0,0.0,0.0,0.0,0.0,0.0,0.0,0.0,0.0,0.0,0.0,0.0,0.0,0.0,0.0,0.0,0.0,0.0,0.0,0.0,0.0,0.0,0.0,0.0,0.0,0.0,0.0,0.0,0.0,0.0,0.0,0.0,0.0,0.0,0.0,0.0,0.0,0.0,0.0,0.0,0.0,0.0,0.0,0.0,0.0,0.0,0.0,-2.1704,-2.3686,-2.5771,-2.6149,-2.4764,-2.2305,-2.0241,0.0,0.0,0.0,0.0,0.0,0.0,0.0,0.0,0.0,0.0,0.0,0.0,0.0,0.0,0.0,0.0,0.0,0.0,0.0,0.0,0.0,0.0,0.0,0.0,0.0,0.0,0.0,0.0,0.0,0.0,0.0,0.0,0.0,0.0,0.0,0.0,0.0,0.0,0.0,0.0,0.0,0.0,0.0,0.0,0.0,0.0,0.0,0.0,0.0,0.0,0.0,0.0,0.0,0.0,0.0,0.0,0.0,0.0,0.0,0.0,0.0,0.0,0.0,0.0,0.0,0.0,0.0,0.0,0.0,0.0,0.0,0.0,0.0,0.0,0.0,0.0,0.0,0.0,0.0,0.0,0.0,0.0,0.0,0.0,0.0,0.0,0.0,0.0,0.0,0.0,0.0,0.0,0.0,0.0,0.0,0.0,0.0,0.0,0.0,0.0,0.0,0.0,0.0,0.0,0.0,0.0,0.0,0.0,-2.2443,-2.4379,-2.6426,-2.6826,-2.5456,-2.4117,-2.2105,0.0,0.0,0.0,0.0,0.0,0.0,0.0,0.0,0.0,0.0,0.0,0.0,0.0,0.0,0.0,0.0,0.0,0.0,0.0,0.0,0.0,0.0,0.0,0.0,0.0,0.0,0.0,0.0,0.0,0.0,0.0,0.0,0.0,0.0,0.0,0.0,0.0,0.0,0.0,0.0,0.0,0.0,0.0,0.0,0.0,0.0,0.0,0.0,0.0,0.0,0.0,0.0,0.0,0.0,0.0,0.0,0.0,0.0,0.0,0.0,0.0,0.0,0.0,0.0,0.0,0.0,0.0,0.0,0.0,0.0,0.0,0.0,0.0,0.0,0.0,0.0,0.0,0.0,0.0,0.0,0.0,0.0,0.0,0.0,0.0,0.0,0.0,0.0,0.0,0.0,0.0,0.0,0.0,0.0,0.0,0.0,0.0,0.0,0.0,0.0,0.0,0.0,0.0,0.0,0.0,0.0,0.0,0.0,-2.3579,-2.5087,-2.7119,-2.755,-2.618,-2.4825,-2.2578,0.0,0.0,0.0,0.0,0.0,0.0,0.0,0.0,0.0,0.0,0.0,0.0,0.0,0.0,0.0,0.0,0.0,0.0,0.0,0.0,0.0,0.0,0.0,0.0,0.0,0.0,0.0,0.0,0.0,0.0,0.0,0.0,0.0,0.0,0.0,0.0,0.0,0.0,0.0,0.0,0.0,0.0,0.0,0.0,0.0,0.0,0.0,0.0,-1.0462,0.0,0.0,0.0,0.0,0.0,0.0,0.0,0.0,0.0,0.0,0.0,0.0,0.0,0.0,0.0,0.0,0.0,0.0,0.0,0.0,0.0,0.0,0.0,0.0,0.0,0.0,0.0,0.0,0.0,0.0,0.0,0.0,0.0,0.0,0.0,0.0,0.0,0.0,0.0,0.0,0.0,0.0,0.0,0.0,0.0,0.0,0.0,0.0,0.0,0.0,0.0,0.0,0.0,0.0,0.0,0.0,0.0,0.0,0.0,-2.4287,-2.5312,-2.7334,-2.7765,-2.6449,-2.5672,-2.3553,0.0,0.0,0.0,0.0,0.0,0.0,0.0,0.0,0.0,0.0,0.0,0.0,0.0,0.0,0.0,0.0,0.0,0.0,0.0,0.0,0.0,0.0,0.0,0.0,0.0,0.0,0.0,0.0,0.0,0.0,0.0,0.0,0.0,0.0,0.0,0.0,0.0,0.0,0.0,0.0,0.0,0.0,0.0,0.0,0.0,0.0,0.0,0.0,0.0,0.0,0.0,0.0,0.0,0.0,0.0,0.0,0.0,0.0,0.0,0.0,0.0,0.0,0.0,0.0,0.0,0.0,0.0,0.0,0.0,0.0,0.0,0.0,0.0,0.0,0.0,0.0,0.0,0.0,0.0,0.0,0.0,0.0,0.0,0.0,0.0,0.0,0.0,0.0,0.0,0.0,0.0,0.0,0.0,0.0,0.0,0.0,0.0,0.0,0.0,0.0,0.0,0.0,0.0,0.0,0.0,0.0,0.0,-2.2282,-2.4579,-2.5496,-2.7396,-2.7765,-2.6441,-2.6402,-2.4477,-2.0472,0.0,0.0,0.0,0.0,0.0,0.0,0.0,0.0,0.0,0.0,0.0,0.0,0.0,0.0,0.0,0.0,0.0,0.0,0.0,0.0,0.0,0.0,0.0,0.0,0.0,0.0,0.0,0.0,0.0,0.0,0.0,0.0,0.0,0.0,0.0,0.0,0.0,0.0,-1.0178,-1.1803,0.0,0.0,0.0,0.0,0.0,0.0,0.0,0.0,-1.137,0.0,0.0,0.0,0.0,0.0,0.0,0.0,0.0,0.0,0.0,0.0,0.0,0.0,0.0,0.0,0.0,0.0,0.0,0.0,0.0,0.0,0.0,0.0,0.0,0.0,0.0,0.0,0.0,0.0,0.0,0.0,0.0,0.0,0.0,0.0,0.0,0.0,0.0,0.0,0.0,0.0,0.0,0.0,0.0,0.0,0.0,0.0,0.0,0.0,0.0,0.0,0.0,0.0,0.0,0.0,0.0,-2.0749,-2.2548,-2.4348,-2.6202,-2.7642,-2.7765,-2.6457,-2.6402,-2.4477,-2.0549,0.0,0.0,0.0,0.0,0.0,0.0,0.0,0.0,0.0,0.0,0.0,0.0,0.0,0.0,0.0,0.0,0.0,0.0,0.0,0.0,0.0,0.0,0.0,0.0,0.0,0.0,0.0,0.0,0.0,0.0,0.0,0.0,0.0,0.0,0.0,0.0,0.0,0.0,0.0,-1.3622,-1.4656,0.0,0.0,0.0,0.0,0.0,0.0,0.0,0.0,-1.1194,0.0,0.0,0.0,0.0,0.0,0.0,0.0,0.0,0.0,0.0,0.0,0.0,0.0,0.0,0.0,0.0,0.0,0.0,0.0,0.0,0.0,0.0,0.0,0.0,0.0,0.0,0.0,0.0,0.0,0.0,0.0,0.0,0.0,0.0,0.0,0.0,0.0,0.0,0.0,0.0,0.0,0.0,0.0,0.0,0.0,0.0,0.0,0.0,0.0,0.0,0.0,0.0,0.0,0.0,0.0,-2.0749,-2.3486,-2.5379,-2.638,-2.7365,-2.7411,-2.6433,-2.5364,-2.3383,0.0,0.0,0.0,0.0,0.0,0.0,0.0,0.0,0.0,0.0,0.0,0.0,0.0,0.0,0.0,0.0,0.0,0.0,0.0,0.0,0.0,0.0,0.0,0.0,0.0,0.0,0.0,0.0,0.0,0.0,0.0,0.0,0.0,0.0,0.0,0.0,0.0,0.0,0.0,0.0,-1.4479,-1.5321,-1.5643,0.0,0.0,0.0,0.0,0.0,0.0,-1.2862,-1.2197,0.0,0.0,0.0,0.0,0.0,0.0,0.0,0.0,0.0,0.0,0.0,0.0,0.0,0.0,0.0,0.0,0.0,0.0,0.0,0.0,0.0,0.0,0.0,0.0,0.0,0.0,0.0,0.0,0.0,0.0,0.0,0.0,0.0,0.0,0.0,0.0,0.0,0.0,0.0,0.0,0.0,0.0,0.0,0.0,0.0,0.0,0.0,0.0,0.0,0.0,0.0,0.0,0.0,0.0,0.0,-2.0349,-2.3922,-2.5925,-2.6195,-2.6842,-2.6857,-2.618,-2.4564,-2.2644,0.0,0.0,0.0,0.0,0.0,0.0,0.0,0.0,0.0,0.0,0.0,0.0,0.0,0.0,0.0,0.0,0.0,0.0,0.0,0.0,0.0,0.0,0.0,0.0,0.0,0.0,0.0,0.0,0.0,0.0,0.0,0.0,0.0,0.0,0.0,0.0,0.0,0.0,0.0,0.0,0.0,-1.6001,-1.6702,-1.5888,0.0,0.0,0.0,0.0,-1.4094,-1.4108,0.0,0.0,0.0,0.0,0.0,0.0,0.0,0.0,0.0,0.0,0.0,0.0,0.0,0.0,0.0,0.0,0.0,0.0,0.0,0.0,0.0,0.0,0.0,0.0,0.0,0.0,0.0,0.0,0.0,0.0,0.0,0.0,0.0,0.0,0.0,0.0,0.0,0.0,0.0,0.0,0.0,0.0,0.0,0.0,0.0,0.0,0.0,0.0,0.0,0.0,0.0,0.0,0.0,0.0,0.0,0.0,-2.0256,-2.2521,-2.4225,-2.5395,-2.6134,-2.6164,-2.545,-2.5195,-2.3563,0.0,0.0,0.0,0.0,0.0,0.0,0.0,0.0,0.0,0.0,0.0,0.0,0.0,0.0,0.0,0.0,0.0,0.0,0.0,0.0,0.0,0.0,0.0,0.0,0.0,0.0,0.0,0.0,0.0,0.0,0.0,0.0,0.0,0.0,0.0,0.0,0.0,0.0,0.0,0.0,0.0,-1.7231,-1.633,-1.5616,-1.5376,0.0,0.0,0.0,-1.6417,-1.658,0.0,0.0,0.0,0.0,0.0,0.0,0.0,0.0,0.0,0.0,0.0,0.0,0.0,0.0,0.0,0.0,0.0,0.0,0.0,0.0,0.0,0.0,0.0,0.0,0.0,0.0,0.0,0.0,0.0,0.0,0.0,0.0,0.0,0.0,0.0,0.0,0.0,0.0,0.0,0.0,0.0,0.0,0.0,0.0,0.0,0.0,0.0,0.0,0.0,0.0,0.0,0.0,0.0,0.0,0.0,-1.8315,-2.032,-2.3025,-2.4733,-2.5281,-2.561,-2.5626,-2.5296,-2.3825,-2.2106,0.0,0.0,0.0,0.0,0.0,0.0,0.0,0.0,0.0,0.0,0.0,0.0,0.0,0.0,0.0,0.0,0.0,0.0,0.0,0.0,0.0,0.0,0.0,0.0,0.0,0.0,0.0,0.0,0.0,0.0,0.0,0.0,0.0,0.0,0.0,0.0,0.0,0.0,0.0,0.0,0.0,0.0,-1.7209,-1.7182,0.0,0.0,0.0,-1.6911,-1.744,0.0,0.0,0.0,0.0,0.0,0.0,0.0,0.0,0.0,0.0,0.0,0.0,0.0,0.0,0.0,0.0,0.0,0.0,0.0,0.0,0.0,0.0,0.0,0.0,0.0,0.0,0.0,0.0,0.0,0.0,0.0,0.0,0.0,0.0,0.0,0.0,0.0,0.0,0.0,0.0,0.0,0.0,0.0,0.0,0.0,0.0,0.0,0.0,0.0,0.0,0.0,0.0,0.0,0.0,0.0,0.0,0.0,-2.0318,-2.3425,-2.5035,-2.5072,-2.505,-2.5072,-2.5004,-2.2858,0.0,0.0,0.0,0.0,0.0,0.0,0.0,0.0,0.0,0.0,0.0,0.0,0.0,0.0,0.0,0.0,0.0,0.0,0.0,0.0,0.0,0.0,0.0,0.0,0.0,0.0,0.0,-0.5805,0.0,0.0,0.0,0.0,0.0,0.0,0.0,0.0,0.0,0.0,0.0,0.0,0.0,0.0,-1.7902,-1.7902,-1.8425,-1.869,0.0,0.0,-1.831,-1.8133,-1.8357,-1.7794,0.0,0.0,0.0,0.0,0.0,0.0,0.0,0.0,0.0,0.0,0.0,0.0,0.0,0.0,0.0,0.0,0.0,0.0,0.0,0.0,0.0,0.0,0.0,0.0,0.0,0.0,0.0,0.0,0.0,0.0,0.0,0.0,0.0,0.0,0.0,0.0,0.0,0.0,0.0,0.0,0.0,0.0,0.0,0.0,0.0,0.0,0.0,0.0,0.0,0.0,0.0,0.0,0.0,0.0,0.0,-2.0335,-2.2978,-2.4358,-2.4379,-2.4358,-2.4379,-2.4364,-2.3336,-2.1991,0.0,0.0,0.0,0.0,0.0,0.0,0.0,0.0,0.0,0.0,0.0,0.0,0.0,0.0,0.0,0.0,0.0,0.0,0.0,0.0,0.0,0.0,0.0,0.0,0.0,0.0,0.0,0.0,0.0,0.0,0.0,0.0,0.0,0.0,0.0,0.0,0.0,0.0,0.0,0.0,0.0,-1.7902,-1.7902,-1.8418,-1.8989,0.0,0.0,-1.9374,-1.8812,-1.9632,-1.9163,-1.577,0.0,0.0,0.0,0.0,0.0,0.0,0.0,0.0,0.0,0.0,0.0,0.0,0.0,0.0,0.0,0.0,0.0,0.0,0.0,0.0,0.0,0.0,0.0,0.0,0.0,0.0,0.0,0.0,0.0,0.0,0.0,0.0,0.0,0.0,0.0,0.0,0.0,0.0,0.0,0.0,0.0,0.0,0.0,0.0,0.0,0.0,0.0,0.0,0.0,0.0,0.0,0.0,0.0,-1.8771,-1.9945,-2.2601,-2.3903,-2.3711,-2.3903,-2.3791,-2.338,-2.2827,-2.1564,0.0,0.0,0.0,0.0,0.0,0.0,0.0,0.0,0.0,0.0,0.0,0.0,0.0,0.0,0.0,0.0,0.0,0.0,0.0,0.0,0.0,0.0,0.0,0.0,0.0,0.0,0.0,0.0,-0.7567,-0.7427,-0.7635,0.0,0.0,0.0,0.0,0.0,0.0,0.0,0.0,0.0,0.0,-1.8024,-1.8405,-1.9239,0.0,0.0,-2.0179,-2.0233,-2.0378,-1.9863,-1.8859,-1.7142,-1.5933,0.0,0.0,0.0,0.0,0.0,0.0,0.0,0.0,0.0,0.0,0.0,0.0,0.0,0.0,0.0,0.0,0.0,0.0,0.0,0.0,0.0,0.0,0.0,0.0,0.0,0.0,0.0,0.0,0.0,0.0,0.0,0.0,0.0,0.0,0.0,0.0,0.0,0.0,0.0,0.0,0.0,0.0,0.0,0.0,0.0,0.0,0.0,0.0,0.0,0.0,0.0,0.0,-1.8739,-1.9892,-2.2561,-2.3839,-2.361,-2.3717,-2.3634,-2.3248,-2.2621,-2.1455,0.0,0.0,0.0,0.0,0.0,0.0,0.0,0.0,0.0,0.0,0.0,0.0,0.0,0.0,0.0,0.0,0.0,0.0,0.0,0.0,0.0,0.0,0.0,0.0,0.0,0.0,0.0,0.0,-0.8627,-0.8131,-0.777,0.0,0.0,0.0,0.0,0.0,0.0,0.0,0.0,0.0,0.0,-1.8378,-1.8989,-2.0053,-2.0752,-2.0775,-2.0626,-2.0599,-2.0867,-1.9849,-1.8744,-1.778,0.0,0.0,0.0,0.0,0.0,0.0,0.0,0.0,0.0,0.0,0.0,0.0,0.0,0.0,0.0,0.0,0.0,0.0,0.0,0.0,0.0,0.0,0.0,0.0,0.0,0.0,0.0,0.0,0.0,0.0,-1.6094,0.0,0.0,0.0,0.0,0.0,0.0,0.0,0.0,0.0,0.0,0.0,0.0,0.0,0.0,0.0,0.0,0.0,0.0,0.0,0.0,0.0,0.0,0.0,-2.0287,-2.2874,-2.424,-2.4219,-2.3952,-2.3909,-2.4142,-2.2999,-2.1954,-2.1193,0.0,0.0,0.0,0.0,0.0,0.0,0.0,0.0,0.0,0.0,0.0,0.0,0.0,0.0,0.0,0.0,0.0,0.0,0.0,0.0,0.0,0.0,0.0,0.0,0.0,0.0,-0.9638,-0.9225,-0.8424,0.0,0.0,0.0,0.0,0.0,0.0,0.0,0.0,0.0,0.0,-1.7283,-1.901,-1.9591,-2.0663,-2.1358,-2.1358,-2.0884,-2.0342,-1.9867,-1.9714,-1.9076,0.0,0.0,0.0,0.0,0.0,0.0,0.0,0.0,0.0,0.0,0.0,0.0,0.0,0.0,0.0,0.0,0.0,0.0,0.0,0.0,0.0,0.0,0.0,0.0,0.0,0.0,0.0,-1.8393,-1.7076,0.0,0.0,0.0,0.0,0.0,0.0,0.0,0.0,0.0,0.0,0.0,-2.1658,-2.2551,0.0,0.0,0.0,0.0,0.0,0.0,0.0,0.0,0.0,0.0,0.0,0.0,-1.9078,-1.9487,-2.2176,-2.3392,-2.2912,-2.3024,-2.2893,-2.259,-2.2602,-2.1801,-2.0025,0.0,0.0,0.0,0.0,0.0,0.0,0.0,0.0,0.0,0.0,0.0,0.0,0.0,0.0,0.0,0.0,0.0,0.0,0.0,0.0,0.0,0.0,0.0,0.0,0.0,-0.9354,0.0,0.0,0.0,0.0,0.0,0.0,0.0,0.0,0.0,0.0,0.0,-1.4816,-1.6213,-1.778,-1.9016,-1.9619,-2.0667,-2.1385,0.0,0.0,0.0,0.0,0.0,0.0,0.0,0.0,0.0,0.0,0.0,0.0,0.0,0.0,-1.7122,-1.4748,-1.3802,-1.3348,-1.3253,0.0,0.0,0.0,0.0,0.0,0.0,0.0,0.0,0.0,0.0,0.0,0.0,0.0,0.0,-2.0946,0.0,-2.0087,0.0,0.0,0.0,0.0,0.0,0.0,0.0,0.0,-2.3106,-2.3702,-2.3784,-2.4625,-2.4441,0.0,-2.3167,-2.1565,0.0,0.0,0.0,0.0,0.0,0.0,0.0,0.0,-1.9444,-1.983,-2.2316,-2.3414,-2.2957,-2.3024,-2.293,-2.2612,-2.2846,-2.1933,-1.975,-1.7633,-1.6234,0.0,0.0,0.0,0.0,0.0,0.0,0.0,0.0,0.0,0.0,0.0,0.0,0.0,0.0,0.0,0.0,0.0,0.0,0.0,0.0,0.0,0.0,0.0,-1.0019,0.0,0.0,0.0,0.0,0.0,0.0,0.0,0.0,0.0,-1.3688,-1.4789,-1.5987,-1.7169,-1.8527,-1.9559,-1.9931,0.0,0.0,0.0,0.0,0.0,0.0,0.0,-1.9661,-2.0493,-1.9269,-1.8343,-1.8731,-1.9301,-1.9497,-1.8907,0.0,0.0,-1.6372,-1.5618,-1.5233,-1.4947,-1.472,-1.4517,-1.4293,-1.4071,-1.3889,0.0,0.0,0.0,0.0,0.0,0.0,0.0,0.0,-2.3259,-2.3285,0.0,-2.2701,0.0,0.0,0.0,0.0,0.0,0.0,0.0,0.0,-2.5802,-2.6479,-2.6526,-2.6526,-2.6118,-2.5481,-2.6072,-2.5302,-2.324,-2.0051,0.0,0.0,0.0,0.0,0.0,0.0,-2.001,-2.128,-2.3227,-2.4261,-2.4219,-2.3925,-2.3925,-2.4224,-2.3595,-2.2347,-2.055,-2.0017,-1.8549,-1.5832,-1.4818,0.0,0.0,0.0,0.0,0.0,0.0,0.0,0.0,0.0,0.0,0.0,0.0,0.0,0.0,0.0,0.0,0.0,0.0,0.0,0.0,-1.0031,0.0,0.0,0.0,0.0,0.0,0.0,0.0,0.0,0.0,0.0,-1.4544,-1.6422,-1.7916,-1.7957,0.0,0.0,0.0,0.0,-2.1385,-2.1385,-2.0914,-2.0512,-2.0384,-2.0458,-2.0219,-1.9364,0.0,0.0,-1.9084,-1.9361,-1.9583,-1.8981,-1.9008,-1.9032,-1.8957,-1.8393,-1.7799,-1.7024,-1.6727,-1.6572,-1.6007,-1.5938,-1.6095,-2.9292,0.0,0.0,0.0,0.0,-2.5698,-2.6393,-2.782,-2.744,-2.6565,-2.5363,-2.5266,0.0,0.0,0.0,0.0,0.0,0.0,-2.4902,-2.6534,-2.7426,-2.8334,-2.9243,-2.8781,-2.8442,-2.8227,-2.7473,-2.6549,-2.5472,-2.3989,-2.1532,-1.8192,0.0,0.0,0.0,0.0,-2.1408,-2.1484,-2.3054,-2.3839,-2.3581,-2.3494,-2.3603,-2.3931,-2.2797,-2.1931,-2.1458,-2.0232,-1.882,-1.7308,-1.6097,0.0,0.0,0.0,0.0,0.0,0.0,0.0,0.0,0.0,0.0,0.0,0.0,0.0,0.0,0.0,0.0,0.0,0.0,0.0,-1.0679,-1.0747,-1.0977,0.0,0.0,0.0,0.0,0.0,0.0,0.0,0.0,0.0,-1.6856,-1.7454,-1.8228,0.0,0.0,-2.0518,-2.0518,-2.1019,-2.1385,-2.1385,0.0,0.0,0.0,-2.1104,-2.105,-2.0786,-2.0982,-2.1019,-2.0718,-2.0563,-2.0436,-2.025,-1.996,-1.9621,-1.9296,-1.8581,-1.792,-1.7516,-1.7111,-1.6829,-1.6864,-1.6491,-1.622,-3.3171,-3.0648,-2.8738,-2.8438,-2.9218,-2.8843,-2.946,-3.0721,-3.0122,-2.9429,-2.8621,-2.8172,-2.7149,-2.5672,-2.4754,0.0,0.0,0.0,-2.7149,-2.8627,-2.9002,-2.9617,-3.0356,-2.9971,-2.9787,-2.9725,-2.8442,-2.7719,-2.7565,-2.6334,-2.4379,-2.175,0.0,0.0,-1.9758,-2.1676,-2.2531,-2.2229,-2.3364,-2.3888,-2.3696,-2.3711,-2.3717,-2.3767,-2.2861,-2.2123,-2.1684,-2.0704,-1.9515,-1.8154,-1.7102,-1.5566,0.0,0.0,0.0,0.0,0.0,0.0,0.0,0.0,0.0,0.0,0.0,-0.7969,0.0,0.0,0.0,0.0,-0.9259,-1.0354,-1.2143,-1.198,0.0,0.0,0.0,0.0,0.0,0.0,0.0,-1.662,-1.7556,-1.8289,-1.8845,-1.894,-1.9212,-1.9908,-2.0504,-2.0857,-2.0857,0.0,-2.1385,-2.1385,-2.1722,-2.1934,-2.1876,-2.1615,-2.1385,-2.1385,-2.1385,-2.1385,-2.1385,-2.1191,-2.0981,-2.0784,-2.0409,-1.9965,-1.9539,-1.8842,-1.8263,-1.8025,-1.762,-1.7376,-1.7459,-1.6979,-1.6693,-3.637,-3.5627,-3.3021,-3.194,-3.1962,-3.1991,-3.2118,-3.2298,-3.1702,-3.1784,-3.229,-3.112,-3.0156,-2.9402,-2.8242,0.0,0.0,-2.9273,-2.9874,-3.0479,-3.0525,-3.0555,-3.0555,-3.0494,-3.0479,-3.0432,-2.9156,-2.8833,-2.9289,-2.7534,-2.6272,-2.5512,-2.4317,-2.3286,-2.2548,-2.3179,-2.3517,-2.3471,-2.4133,-2.4435,-2.4394,-2.4291,-2.412,-2.377,-2.3422,-2.2596,-2.1301,-2.1197,-2.0276,-1.8444,-1.7762,-1.6461,-1.4357,0.0,0.0,0.0,0.0,0.0,0.0,0.0,0.0,0.0,0.0,0.0,0.0,0.0,0.0,0.0,-1.0571,0.0,-1.3308,-1.343,0.0,0.0,0.0,-1.4436,-1.4626,-1.6078,-1.7332,-1.7984,0.0,0.0,0.0,0.0,-2.0549,-2.0586,-2.106,-2.1385,-2.1385,-2.1372,-2.1385,-2.1385,-2.144,-2.1735,-2.2221,-2.1808,-2.1385,-2.1385,-2.1385,-2.1385,-2.1385,-2.135,-2.1191,-2.0795,-2.0422,-2.0003,-1.9591,-1.9123,-1.8827,-1.8417,-1.8213,-1.7979,-1.7722,-1.7523,-1.7346,-3.7809,-3.7119,-3.6133,-3.4834,-3.3485,-3.347,-3.3558,-3.3704,-3.3566,-3.3087,-3.2367,-3.2059,-3.1274,-3.0156,-3.0366,-3.0258,-2.9956,-3.0612,-3.0997,-3.1182,-3.169,-3.1921,-3.189,-3.1397,-3.1151,-3.1105,-3.0335,-2.9766,-2.9396,-2.8935,-2.835,-2.7664,-2.7334,-2.6057,-2.3963,-2.5062,-2.5379,-2.4841,-2.5533,-2.5626,-2.5066,-2.431,-2.3751,-2.3427,-2.2836,-2.1941,-2.0666,-2.0265,-1.9381,-1.7876,-1.7221,-1.6182,-1.4658,-1.2967,0.0,0.0,0.0,0.0,0.0,0.0,0.0,0.0,0.0,-1.0325,-0.8802,0.0,-1.1357,0.0,-1.24,-1.3119,-1.4002,-1.3661,0.0,0.0,-1.5457,-1.5715,-1.7508,-1.7712,-1.8092,-1.9144,-1.9881,-2.0355,-2.0468,-2.0911,-2.1196,-2.1182,-2.1304,-2.1385,-2.1385,-2.1385,-2.1385,-2.1426,-2.1751,-2.1991,-2.1748,-2.1526,-2.1385,-2.1385,-2.1385,-2.1385,-2.1385,-2.1129,-2.0809,-2.0397,-1.9926,-1.9434,-1.8948,-1.8667,-1.8476,-1.822,-1.8139,-1.8041,-1.7767,-1.7518,-1.7323,-3.8921,-3.8353,-3.8093,-3.7031,-3.5507,-3.5141,-3.508,-3.5201,-3.491,-3.4417,-3.3737,-3.3121,-3.2275,-3.1351,-3.1674,-3.1643,-3.1351,-3.1674,-3.1828,-3.1859,-3.2213,-3.2398,-3.2382,-3.2013,-3.1844,-3.1813,-3.1166,-3.0505,-2.9848,-2.9541,-2.9033,-2.8411,-2.8411,-2.7642,-2.6211,-2.6595,-2.6488,-2.5758,-2.5857,-2.5718,-2.5281,-2.4466,-2.3794,-2.3313,-2.2657,-2.171,-2.0433,-2.0128,-1.9272,-1.7811,-1.7288,-1.6488,-1.5281,-1.3922,-1.2969,0.0,0.0,0.0,0.0,0.0,0.0,0.0,0.0,0.0,0.0,0.0,-1.236,0.0,-1.3608,0.0,-1.5399,-1.5209,-1.5639,-1.7217,-1.7046,-1.7338,-1.867,-1.894,-1.932,-1.9999,-2.0545,-2.0911,-2.0911,-2.1196,-2.1385,-2.1385,-2.1385,-2.1385,-2.1385,-2.1385,-2.1385,-2.1399,-2.1683,-2.1778,-2.144,-2.1385,-2.1385,-2.1385,-2.1385,-2.1385,-2.1385,-2.1068,-2.0671,-2.0271,-1.9823,-1.9342,-1.8881,-1.8679,-1.8503,-1.8286,-1.8111,-1.7947,-1.7739,-1.749,-1.7306,-3.9771,-3.9344,-3.9287,-3.8604,-3.7569,-3.6734,-3.6428,-3.6445,-3.5891,-3.5568,-3.5429,-3.4014,-3.3075,-3.2521,-3.2428,-3.2398,-3.2398,-3.2475,-3.249,-3.2398,-3.249,-3.2475,-3.2398,-3.2398,-3.2398,-3.2367,-3.1797,-3.1182,-3.0525,-2.9858,-2.9196,-2.855,-2.8442,-2.8411,-2.8381,-2.7827,-2.7211,-2.6573,-2.5727,-2.5342,-2.5419,-2.4718,-2.3948,-2.3194,-2.2613,-2.169,-2.0391,-2.0238,-1.9479,-1.8068,-1.7671,-1.6996,-1.5954,-1.5026,-1.419,0.0,-1.3412,0.0,0.0,0.0,0.0,0.0,0.0,0.0,0.0,-1.2887,-1.3484,-1.4449,-1.4615,-1.5308,-1.6851,-1.7068,-1.7353,-1.7957,-1.8541,-1.8934,-1.9043,-1.9917,-2.0545,-2.0613,-2.1087,-2.1385,-2.1372,-2.1385,-2.1385,-2.1385,-2.1385,-2.1385,-2.1385,-2.1385,-2.1385,-2.1385,-2.1385,-2.144,-2.1399,-2.1385,-2.1385,-2.1385,-2.1385,-2.1385,-2.1313,-2.1031,-2.066,-2.0195,-1.9785,-1.9434,-1.9013,-1.8839,-1.8676,-1.8379,-1.8084,-1.7826,-1.7673,-1.7462,-1.7306,-4.02,-4.0052,-3.9603,-3.9013,-3.8262,-3.7568,-3.6968,-3.6492,-3.6353,-3.5999,-3.5414,-3.4014,-3.3321,-3.3167,-3.2644,-3.2398,-3.2413,-3.2967,-3.2921,-3.2413,-3.2952,-3.2906,-3.2413,-3.2398,-3.2398,-3.2398,-3.2259,-3.1859,-3.1197,-3.0566,-2.9863,-2.9187,-2.8673,-2.8411,-2.8396,0.0,0.0,0.0,-2.6219,-2.5595,-2.614,-2.4948,-2.3717,-2.2532,-2.2382,0.0,-1.9993,-1.964,-1.9142,-1.8423,-1.7722,0.0,0.0,0.0,0.0,0.0,0.0,0.0,0.0,0.0,0.0,0.0,-1.4376,-1.4042,-1.3349,-1.5019,-1.605,-1.5788,-1.62,-1.662,-1.6959,-1.7454,-1.797,-1.8554,-1.9165,-1.97,-2.0125,-2.0396,-2.0681,-2.1182,-2.1331,-2.1385,-2.1385,-2.1385,-2.1385,-2.1385,-2.1385,-2.1385,-2.1385,-2.1385,-2.1385,-2.1385,-2.1385,-2.1385,-2.1385,-2.1385,-2.1385,-2.1385,-2.1385,-2.1288,-2.1006,-2.0883,-2.0535,-1.9888,-1.9577,-1.9251,-1.8774,-1.8583,-1.8449,-1.82,-1.7931,-1.77,-1.7562,-1.7407,-1.7306,-4.0401,0.0,-4.0086,-3.9431,0.0,-3.8138,-3.7415,-3.6492,-3.6492,-3.6122,-3.5444,-3.4383,-3.3737,-3.3367,-3.269,-3.2567,-3.2906,-3.3244,-3.3229,-3.2921,-3.3244,-3.3059,-3.2398,-3.2398,-3.2398,-3.2398,-3.2398,-3.2044,-3.1366,-3.0735,-3.0048,-2.9412,-2.8735,-2.8411,-2.8411,-2.8411,-2.8411,-2.8396,-2.6718,-2.601,-2.6318,-2.5025,-2.3825,-2.2844,0.0,0.0,0.0,0.0,0.0,0.0,0.0,0.0,0.0,0.0,0.0,-1.592,-1.5697,-1.5497,-1.5342,-1.5429,-1.5568,-1.5729,-1.5955,-1.5711,-1.4799,-1.586,-1.6566,-1.6547,-1.7082,-1.7556,-1.7875,-1.8425,-1.9022,-1.9564,-1.9908,-2.0301,-2.083,-2.0952,-2.106,-2.1318,-2.1385,-2.1385,-2.1385,-2.1385,-2.1385,-2.1385,-2.1385,-2.1385,-2.1385,-2.1385,-2.1385,-2.1385,-2.1385,-2.1385,-2.1385,-2.1385,-2.1385,-2.1385,-2.1385,-2.1313,-2.1142,-2.0759,-2.0346,-1.9939,-1.9539,-1.9093,-1.8881,-1.8679,-1.8518,-1.8271,-1.8014,-1.7717,-1.7473,-1.7357,-1.7306,-4.0489,-4.0489,-4.0489,-3.9705,-3.8508,-3.8508,-3.7738,-3.6492,0.0,0.0,0.0,-3.4859,-3.4166,-3.3552,-3.2752,-3.269,-3.3244,-3.3475,-3.346,-3.3229,-3.3475,-3.3167,-3.2413,-3.2398,-3.2398,-3.2398,-3.2398,-3.2121,-3.1578,-3.0771,-3.0125,-2.9556,-2.8796,-2.8411,-2.8411,-2.8411,-2.8411,-2.835,-2.7072,-2.6402,-2.6371,-2.5025,-2.3958,-2.3317,-2.2782,-2.2037,-2.1106,-2.0686,-2.0106,-1.9299,-1.9114,-1.8925,-1.8634,-1.82,-1.8008,-1.8115,-1.807,-1.7768,-1.7177,-1.7169,-1.7026,-1.6683,-1.7071,-1.7014,-1.6335,-1.6457,-1.6783,-1.7271,-1.7875,-1.8418,-1.8907,-1.9483,-2.0039,-2.0464,-2.0576,-2.087,-2.1304,-2.1385,-2.1358,-2.1385,-2.1385,-2.1385,-2.1385,-2.1385,-2.1385,-2.1385,-2.1385,-2.1385,-2.1385,-2.1385,-2.1385,-2.1385,-2.1385,-2.1385,-2.1385,-2.1385,-2.1385,-2.1385,-2.1385,-2.1361,-2.1215,-2.0747,-2.0296,-2.0042,-1.95,-1.9119,-1.8972,-1.8786,-1.8676,-1.8472,-1.8123,-1.7733,-1.7396,-1.7301,-1.7306,-4.0489,-4.0489,-4.0489,-3.9721,-3.8508,-3.8508,-3.7738,-3.6507,-3.6492,-3.6445,-3.6261,-3.5059,-3.4459,-3.4289,-3.2982,-3.2444,-3.2613,-3.3812,-3.3675,0.0,-3.3767,-3.3629,-3.2428,-3.2398,-3.2398,-3.2398,-3.2398,-3.2336,-3.2136,-3.1012,-3.034,-3.0109,-2.9027,-2.8411,-2.8411,-2.8411,-2.8411,-2.8381,-2.7042,-2.6327,-2.6364,-2.5025,-2.3994,-2.3332,-2.3209,-2.284,-2.2125,-2.1486,-2.1101,-2.0942,-2.0127,-1.9288,-1.8423,-1.832,-1.7769,-1.6822,-1.711,-1.7313,-1.7282,-1.7376,-1.7735,-1.8371,-1.8486,-1.8079,-1.7027,-1.7834,-1.8459,-1.8589,-1.907,-1.9483,-1.9591,-2.0057,-2.0437,-2.0545,-2.0965,-2.1304,-2.1385,-2.1385,-2.1385,-2.1385,-2.1385,-2.1385,-2.1385,-2.1385,-2.1385,-2.1385,-2.1385,-2.1385,-2.1385,-2.1385,-2.1385,-2.1385,-2.1385,-2.1385,-2.1385,-2.1385,-2.1385,-2.1385,-2.1385,-2.1326,-2.1031,-2.0809,-2.0459,-1.9849,-1.9512,-1.921,-1.8893,-1.861,-1.8538,-1.8488,-1.8125,-1.7661,-1.7357,-1.7318,-1.7306,-4.0489,-4.0489,-4.0489,-3.9721,-3.8462,-3.7723,-3.7061,-3.6507,-3.6492,-3.6492,-3.6399,-3.546,-3.4844,-3.4428,-3.3398,-3.2936,-3.2982,-3.4043,-3.415,-3.3611,-3.4197,-3.3966,-3.2982,-3.2567,-3.2398,-3.2398,-3.2398,-3.2398,-3.2275,-3.1059,-3.0402,-3.0309,-2.9048,-2.8411,-2.8411,-2.8411,-2.8203,-2.7842,-2.6819,-2.6327,-2.6387,-2.5041,-2.4148,-2.384,-2.3502,-2.3163,-2.2875,-2.2197,-2.1673,-2.1304,-2.0855,-2.0238,-1.9446,-1.9211,-1.885,-1.8234,-1.8144,-1.8074,-1.8016,-1.8157,-1.8563,-1.9228,-1.9288,-1.9084,-1.852,-1.8975,-1.9288,-1.9315,-1.9809,-2.0125,-2.0139,-2.064,-2.0979,-2.0969,-2.1236,-2.1385,-2.1385,-2.1385,-2.1385,-2.1385,-2.1385,-2.1385,-2.1385,-2.1385,-2.1385,-2.1385,-2.1385,-2.1399,-2.1385,-2.1399,-2.1385,-2.1385,-2.1385,-2.1385,-2.1385,-2.1385,-2.1385,-2.1385,-2.1385,-2.135,-2.1118,-2.0981,-2.0572,-2.0042,-1.9682,-1.933,-1.8905,-1.8706,-1.8553,-1.8294,-1.8103,-1.7705,-1.7407,-1.729,-1.7306,-4.0489,-4.0489,-4.0489,-3.9721,-3.84,-3.7061,-3.6492,-3.6492,-3.6492,-3.6492,-3.6399,-3.5784,-3.5136,-3.4459,-3.3721,-3.3321,-3.3306,-3.4091,-3.4412,-3.4289,-3.4428,-3.4091,-3.3383,-3.2705,-3.2398,-3.2398,-3.2398,-3.2398,-3.2244,-3.1074,-3.0233,-2.9863,-2.8919,-2.8411,-2.8411,-2.8411,-2.8134,-2.7611,-2.678,-2.6287,-2.6118,-2.4933,-2.4281,-2.4251,-2.381,-2.3533,-2.3486,-2.2871,-2.2289,-2.1781,-2.1612,-2.127,-2.0707,-2.0335,-2.0125,-2.0042,-1.9585,-1.9243,-1.9075,-1.9176,-1.9441,-1.988,-1.989,-1.9944,-2.0066,-2.0093,-2.0026,-1.9971,-2.0382,-2.0721,-2.0762,-2.1077,-2.1385,-2.1385,-2.1385,-2.1385,-2.1385,-2.1385,-2.1385,-2.1385,-2.1385,-2.1385,-2.1385,-2.1385,-2.1385,-2.1385,-2.1602,-2.1738,-2.1494,-2.1494,-2.1575,-2.1426,-2.1385,-2.1385,-2.1385,-2.1385,-2.1385,-2.1385,-2.1385,-2.1385,-2.1313,-2.1104,-2.0734,-2.0296,-1.9914,-1.9486,-1.8946,-1.8664,-1.8476,-1.8177,-1.7947,-1.7678,-1.739,-1.7301,-1.7306,-4.0489,-4.0489,-4.0489,-3.9721,-3.8415,-3.7061,-3.6492,-3.6492,-3.6492,-3.6492,-3.643,-3.5784,-3.5152,-3.4459,-3.3737,-3.3121,-3.2659,-3.3904,-3.4181,-3.3704,-3.4197,-3.412,-3.3413,-3.2721,-3.2398,-3.2398,-3.2398,-3.2398,-3.2321,-3.1074,-2.9771,-2.8719,-2.8458,-2.8411,-2.8411,-2.8411,-2.8365,-2.8273,-2.7042,-2.6072,-2.5389,-2.4666,-2.4281,-2.4281,-2.4235,-2.421,-2.4143,-2.3563,-2.3179,-2.3071,-2.2517,-2.2068,-2.174,-2.1384,-2.1181,-2.1218,-2.0791,-2.0499,-2.042,-2.0316,-2.0353,-2.0562,-2.0506,-2.0654,-2.1128,-2.1196,-2.0992,-2.0654,-2.0965,-2.125,-2.1304,-2.1358,-2.1385,-2.1385,-2.1385,-2.1385,-2.1385,-2.1385,-2.1385,-2.1385,-2.1385,-2.1385,-2.1385,-2.1385,-2.1385,-2.1399,-2.209,-2.2361,-2.1697,-2.1765,-2.1925,-2.1548,-2.1399,-2.1385,-2.1385,-2.1385,-2.1385,-2.1385,-2.1385,-2.1385,-2.1361,-2.1313,-2.1118,-2.0321,-2.0029,-1.9618,-1.896,-1.8476,-1.8205,-1.8096,-1.781,-1.7507,-1.7351,-1.7306,-1.7306,-4.0489,-4.0489,-4.0489,-3.9721,-3.84,-3.7061,-3.6492,-3.6492,-3.6492,-3.6492,-3.6461,-3.6199,-3.5491,-3.4505,-3.4181,-3.3444,-3.2521,-3.3873,-3.4351,-3.4075,-3.4366,-3.4335,-3.3952,-3.289,-3.2398,-3.2398,-3.2398,-3.2398,-3.2167,-3.1059,-2.971,-2.8535,-2.8411,-2.8411,-2.8411,-2.8411,-2.7987,-2.7172,-2.6657,-2.5841,-2.4825,-2.4441,-2.4281,-2.4281,-2.4281,-2.4281,-2.4287,-2.4025,-2.3717,-2.3332,-2.304,-2.2663,-2.2148,-2.1968,-2.1903,-2.1899,-2.1532,-2.1337,-2.1475,-2.1212,-2.1203,-2.1555,-2.1317,-2.1251,-2.1382,-2.1385,-2.1277,-2.1128,-2.1263,-2.1385,-2.1385,-2.1385,-2.1385,-2.1385,-2.1385,-2.1385,-2.1385,-2.1385,-2.1385,-2.1385,-2.1385,-2.1385,-2.1385,-2.1385,-2.1385,-2.1412,-2.1927,-2.209,-2.1925,-2.1846,-2.1805,-2.1884,-2.1667,-2.1399,-2.1385,-2.1385,-2.1385,-2.1385,-2.1385,-2.1385,-2.1361,-2.1153,-2.0833,-2.0309,-2.0016,-1.9604,-1.8919,-1.8625,-1.8356,-1.8084,-1.7684,-1.7351,-1.7306,-1.7306,-1.7306,-4.0489,-4.0443,-4.0105,-3.9382,-3.84,-3.7061,-3.6492,-3.6492,-3.6492,-3.6492,-3.6492,-3.6492,-3.5768,-3.4613,-3.4489,-3.3706,-3.2705,-3.3873,-3.4489,-3.4489,-3.4489,-3.4489,-3.4351,-3.3059,-3.2398,-3.2398,-3.2398,-3.2198,-3.1813,-3.0924,-2.971,-2.8596,-2.8411,-2.8411,-2.8411,-2.8411,-2.7895,-2.6972,-2.6595,-2.5872,-2.4943,-2.4502,-2.4281,-2.4281,-2.4281,-2.4281,-2.4281,-2.4281,-2.4087,-2.3609,-2.3563,-2.3348,-2.2886,-2.2671,-2.2582,-2.2594,-2.2478,-2.2465,-2.2558,-2.2273,-2.2167,-2.2392,-2.2133,-2.1888,-2.1722,-2.164,-2.1568,-2.1458,-2.1423,-2.1385,-2.1385,-2.1385,-2.1385,-2.1385,-2.1385,-2.1385,-2.1385,-2.1385,-2.1385,-2.1385,-2.1385,-2.1385,-2.1412,-2.1548,-2.1667,-2.1467,-2.186,-2.2036,-2.2319,-2.2224,-2.2346,-2.2495,-2.2022,-2.1616,-2.144,-2.1385,-2.1385,-2.1385,-2.1385,-2.1385,-2.1385,-2.1129,-2.0845,-2.0573,-2.0029,-1.9552,-1.9131,-1.8839,-1.8452,-1.8018,-1.7645,-1.7396,-1.7368,-1.7323,-1.7306,-4.0489,-4.0305,-3.9154,-3.8631,-3.84,-3.7061,-3.6492,-3.6492,-3.6492,-3.6492,-3.6492,-3.6492,-3.5768,-3.4536,-3.4489,-3.3706,-3.2705,-3.3873,-3.4489,-3.4489,-3.4536,-3.4505,-3.4412,-3.3103,-3.2413,-3.2398,-3.2398,-3.1797,-3.0678,-3.0448,-2.9725,-2.8504,-2.8427,-2.8411,-2.8411,-2.8411,-2.8365,-2.8011,-2.6965,-2.6287,-2.6004,-2.4918,-2.4281,-2.4281,-2.4281,-2.4281,-2.4281,-2.4281,-2.4266,-2.422,-2.4225,-2.4174,-2.4112,-2.3579,-2.3255,-2.3302,-2.3805,-2.4013,-2.3691,-2.3505,-2.3318,-2.3068,-2.2844,-2.2678,-2.2347,-2.2217,-2.2006,-2.164,-2.1544,-2.1458,-2.1423,-2.1423,-2.1385,-2.1399,-2.1412,-2.1426,-2.144,-2.1548,-2.1412,-2.1467,-2.1494,-2.1548,-2.1494,-2.1912,-2.1952,-2.1955,-2.2863,-2.3527,-2.2807,-2.3242,-2.3459,-2.3147,-2.2646,-2.2074,-2.1548,-2.1385,-2.1385,-2.1385,-2.1385,-2.1385,-2.1385,-2.1337,-2.108,-2.0784,-2.0283,-1.9811,-1.9394,-1.8946,-1.8452,-1.8073,-1.7799,-1.759,-1.7451,-1.7379,-1.7334,-4.0489,-4.0366,-3.9044,-3.8508,-3.8354,-3.7061,-3.6492,-3.6492,-3.6492,-3.6492,-3.6492,-3.6492,-3.5768,-3.4489,-3.4489,-3.3735,-3.2613,-3.3858,-3.4489,-3.4551,-3.4936,-3.4921,-3.4428,-3.3475,-3.2782,-3.2444,-3.2398,-3.1921,-3.1089,-3.0617,-2.994,-2.911,-2.8611,-2.8411,-2.8411,-2.8411,-2.8211,-2.7719,-2.6842,-2.6164,-2.5665,-2.4764,-2.4281,-2.4281,-2.4281,-2.4281,-2.4281,-2.4281,-2.4281,-2.4281,-2.4281,-2.4281,-2.4266,-2.4087,-2.3948,-2.3963,-2.4179,-2.424,-2.4099,-2.3867,-2.3638,-2.3436,-2.3157,-2.2971,-2.2754,-2.2663,-2.2518,-2.2184,-2.1983,-2.1817,-2.1568,-2.1471,-2.1385,-2.1426,-2.1738,-2.1979,-2.2061,-2.2293,-2.2551,-2.2497,-2.2278,-2.2115,-2.2348,-2.2402,-2.2386,-2.2578,-2.3134,-2.3432,-2.3499,-2.3581,-2.3635,-2.3662,-2.3269,-2.2659,-2.2063,-2.1602,-2.1399,-2.1385,-2.1385,-2.1385,-2.1385,-2.1177,-2.0932,-2.0883,-2.0459,-2.0144,-1.972,-1.933,-1.8789,-1.8509,-1.8213,-1.7909,-1.7523,-1.7534,-1.7434,-4.0489,-4.029,-3.9077,-3.8508,-3.8323,-3.7061,-3.6492,-3.6492,-3.6492,-3.6492,-3.6492,-3.6492,-3.5783,-3.4659,-3.4489,-3.3735,-3.2628,-3.3858,-3.4489,-3.4551,-3.5198,-3.5136,-3.4489,-3.3737,-3.3059,-3.249,-3.2398,-3.2044,-3.1393,-3.0709,-3.0048,-2.9387,-2.8735,-2.8411,-2.8411,-2.8411,-2.815,-2.7642,-2.6842,-2.6134,-2.5573,-2.4764,-2.4281,-2.4281,-2.4281,-2.4281,-2.4281,-2.4281,-2.4281,-2.4281,-2.4281,-2.4281,-2.4281,-2.4281,-2.4281,-2.4281,-2.4281,-2.4281,-2.4261,-2.4078,-2.3931,-2.3824,-2.3616,-2.3414,-2.3238,-2.3172,-2.2957,-2.2678,-2.2394,-2.2156,-2.209,-2.1903,-2.1719,-2.1776,-2.2212,-2.2564,-2.2631,-2.2944,-2.3121,-2.3052,-2.2605,-2.2605,-2.2998,-2.2591,-2.2658,-2.3094,-2.3324,-2.3689,-2.3933,-2.3987,-2.3879,-2.4231,-2.3865,-2.3418,-2.2957,-2.2564,-2.1765,-2.1616,-2.1467,-2.144,-2.1361,-2.1104,-2.0957,-2.0883,-2.0709,-2.0435,-2.0105,-1.972,-1.9384,-1.9123,-1.8845,-1.8575,-1.817,-1.7744,-1.7684,-4.0489,-4.0305,-3.9029,-3.8508,-3.8323,-3.7061,-3.6492,-3.6492,-3.6492,-3.6492,-3.6492,-3.6492,-3.5768,-3.4705,-3.4489,-3.3735,-3.2813,-3.3873,-3.4489,-3.4551,-3.526,-3.5183,-3.4489,-3.3829,-3.3106,-3.2413,-3.2398,-3.2059,-3.1501,-3.0782,-3.0063,-2.9417,-2.875,-2.8411,-2.8411,-2.8411,-2.8396,-2.8057,-2.7057,-2.6349,-2.6142,-2.4995,-2.4281,-2.4281,-2.4281,-2.4281,-2.4281,-2.4281,-2.4281,-2.4281,-2.4281,-2.4281,-2.4281,-2.4281,-2.4281,-2.4281,-2.4281,-2.4281,-2.4281,-2.4261,-2.424,-2.4219,-2.424,-2.4051,-2.3782,-2.3659,-2.3494,-2.323,-2.283,-2.263,-2.2961,-2.2774,-2.2499,-2.2385,-2.2822,-2.3188,-2.3228,-2.3242,-2.3229,-2.3269,-2.2876,-2.2658,-2.2944,-2.2876,-2.2861,-2.3364,-2.3798,-2.4123,-2.4258,-2.4517,-2.4883,-2.4842,-2.4462,-2.4028,-2.3811,-2.3554,-2.2605,-2.186,-2.167,-2.1548,-2.1426,-2.124,-2.1226,-2.1153,-2.1031,-2.0772,-2.0586,-2.022,-2.0055,-1.9786,-1.954,-1.9243,-1.879,-1.8396,-1.8097,-4.0489,-4.032,-3.9029,-3.8508,-3.8338,-3.7061,-3.6492,-3.6492,-3.6492,-3.6492,-3.6492,-3.6492,-3.5737,-3.4736,-3.4489,-3.375,-3.2567,-3.3827,-3.4489,-3.4674,-3.5614,-3.5568,-3.4613,-3.4258,-3.3521,-3.2567,-3.2398,-3.2305,-3.1905,-3.094,-3.0279,-2.9925,-2.8965,-2.8442,-2.8411,-2.8411,-2.8411,-2.8242,-2.7072,-2.638,-2.6257,-2.5025,-2.4297,-2.4281,-2.4281,-2.4281,-2.4281,-2.4281,-2.4281,-2.4281,-2.4281,-2.4281,-2.4281,-2.4281,-2.4281,-2.4281,-2.4281,-2.4281,-2.4281,-2.4281,-2.4281,-2.4281,-2.4281,-2.4261,-2.4156,-2.4109,-2.4137,-2.4156,-2.3825,-2.363,-2.383,-2.3844,-2.3494,-2.2997,-2.3459,-2.3811,-2.3865,-2.415,-2.4422,-2.4353,-2.3906,-2.3852,-2.4164,-2.3879,-2.3676,-2.4204,-2.4571,-2.4693,-2.4719,-2.4842,-2.4991,-2.4936,-2.472,-2.453,-2.4259,-2.3987,-2.3445,-2.2646,-2.2266,-2.1968,-2.1765,-2.1656,-2.1602,-2.1564,-2.1401,-2.1265,-2.104,-2.0917,-2.0794,-2.0591,-2.0384,-1.9957,-1.9434,-1.9132,-1.8973,-4.0351,-4.0013,-3.8936,-3.8354,-3.8031,-3.6923,-3.6492,-3.6492,-3.6492,-3.6492,-3.6492,-3.6492,-3.5737,-3.4705,-3.4489,-3.3719,-3.2598,-3.3611,-3.4075,-3.432,-3.5491,-3.5506,-3.4489,-3.3919,-3.3349,-3.2567,-3.2398,-3.2398,-3.2336,-3.1336,-3.0648,-3.0248,-2.9294,-2.8642,-2.8442,-2.8411,-2.8411,-2.8242,-2.7334,-2.6649,-2.6211,-2.5272,-2.4543,-2.4343,-2.4281,-2.4281,-2.4281,-2.4281,-2.4281,-2.4281,-2.4281,-2.4281,-2.4281,-2.4281,-2.4281,-2.4281,-2.4281,-2.4281,-2.4281,-2.4281,-2.4281,-2.4281,-2.4281,-2.4281,-2.4343,-2.4471,-2.4732,-2.4671,-2.4555,-2.451,-2.4586,-2.4438,-2.4217,-2.3947,-2.4191,-2.4407,-2.4503,-2.4774,-2.4951,-2.48,-2.4435,-2.4503,-2.4706,-2.4489,-2.4367,-2.4856,-2.5005,-2.5005,-2.5005,-2.4991,-2.5005,-2.5005,-2.4937,-2.4747,-2.4544,-2.434,-2.4177,-2.3581,-2.2984,-2.2673,-2.2402,-2.2375,-2.2348,-2.2361,-2.2272,-2.2287,-2.212,-2.1989,-2.1861,-2.155,-2.1342,-2.1246,-2.0955,-2.0362,-2.0039,-4.0059,-3.9428,-3.8754,-3.8077,-3.7492,-3.6784,-3.6492,-3.6492,-3.6492,-3.6492,-3.6492,-3.6492,-3.5768,-3.472,-3.4489,-3.3721,-3.2721,-3.3136,-3.3506,-3.3798,-3.4645,-3.4905,-3.4258,-3.3167,-3.2567,-3.2428,-3.2398,-3.2398,-3.2367,-3.167,-3.1059,-3.0356,-2.9664,-2.9042,-2.8535,-2.8411,-2.8411,-2.8304,-2.7688,-2.7049,-2.6411,-2.5656,-2.4943,-2.4343,-2.4281,-2.4281,-2.4281,-2.4281,-2.4281,-2.4281,-2.4281,-2.4281,-2.4281,-2.4281,-2.4281,-2.4281,-2.4281,-2.4281,-2.4281,-2.4281,-2.4281,-2.4281,-2.4281,-2.4327,-2.4487,-2.4896,-2.516,-2.507,-2.512,-2.5213,-2.5114,-2.4813,-2.4682,-2.4897,-2.4869,-2.4882,-2.4978,-2.4991,-2.5005,-2.4924,-2.4557,-2.4381,-2.4937,-2.4502,-2.4584,-2.4829,-2.5005,-2.5005,-2.5005,-2.5005,-2.5005,-2.5005,-2.5005,-2.4937,-2.4734,-2.4706,-2.4529,-2.4286,-2.3757,-2.3378,-2.2984,-2.2903,-2.2876,-2.293,-2.3052,-2.3134,-2.3053,-2.276,-2.2693,-2.2563,-2.2538,-2.2724,-2.2385,-2.1697,-2.1119,-3.9644,-3.9367,-3.8262,-3.7661,-3.7415,-3.6769,-3.6492,-3.6492,-3.6492,-3.6492,-3.6492,-3.6492,-3.5752,-3.4582,-3.4474,-3.375,-3.2829,-3.3059,-3.3398,-3.3444,-3.3706,-3.3875,-3.3583,-3.2844,-3.2398,-3.2398,-3.2398,-3.2398,-3.2336,-3.1751,-3.1089,-3.0386,-2.9756,-2.9064,-2.8504,-2.8411,-2.8411,-2.8319,-2.775,-2.7088,-2.6426,-2.5718,-2.4973,-2.4374,-2.4297,-2.4297,-2.4281,-2.4281,-2.4281,-2.4281,-2.4281,-2.4281,-2.4281,-2.4281,-2.4281,-2.4281,-2.4281,-2.4281,-2.4281,-2.4281,-2.4281,-2.4281,-2.4343,-2.4518,-2.4989,-2.5189,-2.5596,-2.5875,-2.5938,-2.5749,-2.5698,-2.5314,-2.5065,-2.4979,-2.5005,-2.5005,-2.5005,-2.5005,-2.5005,-2.4978,-2.4842,-2.4869,-2.4883,-2.4883,-2.4801,-2.4951,-2.5005,-2.5005,-2.5005,-2.5005,-2.5005,-2.5005,-2.5005,-2.5005,-2.4978,-2.4978,-2.4937,-2.4856,-2.4489,-2.4096,-2.3621,-2.3228,-2.3188,-2.3134,-2.3418,-2.354,-2.3337,-2.3081,-2.3189,-2.3472,-2.3568,-2.3595,-2.3355,-2.2808,-2.2342,-3.92,-3.8616,-3.7815,-3.7338,-3.7046,-3.6661,-3.6492,-3.6492,-3.6492,-3.6492,-3.6445,-3.6184,-3.5506,-3.4536,-3.4181,-3.3429,-3.2552,-3.2798,-3.2952,-3.2967,-3.2998,-3.2998,-3.2875,-3.2521,-3.2398,-3.2398,-3.2398,-3.2398,-3.2336,-3.1982,-3.1336,-3.0509,-3.0017,-2.9325,-2.8442,-2.8411,-2.8411,-2.8334,-2.798,-2.7488,-2.6826,-2.6134,-2.5441,-2.4789,-2.4502,-2.4281,-2.4281,-2.4281,-2.4281,-2.4281,-2.4281,-2.4281,-2.4281,-2.4281,-2.4281,-2.4281,-2.4281,-2.4281,-2.4281,-2.4281,-2.4281,-2.4358,-2.4518,-2.4881,-2.5327,-2.5758,-2.6474,-2.629,-2.6346,-2.6185,-2.5821,-2.5397,-2.5118,-2.5005,-2.5005,-2.5005,-2.5005,-2.5005,-2.5005,-2.5005,-2.5005,-2.5005,-2.5005,-2.5005,-2.5005,-2.5005,-2.5005,-2.5005,-2.5005,-2.5005,-2.5005,-2.5005,-2.5005,-2.5005,-2.5005,-2.5005,-2.5005,-2.4964,-2.4896,-2.4557,-2.4272,-2.3771,-2.3879,-2.3906,-2.3933,-2.3906,-2.3811,-2.3811,-2.4069,-2.4286,-2.4422,-2.431,-2.4066,-2.3652,-2.3213,-3.8583,-3.7507,-3.7415,-3.7046,-3.6569,-3.6492,-3.6492,-3.6492,-3.6492,-3.643,-3.6245,-3.5737,-3.5198,-3.4459,-3.3829,-3.3106,-3.2536,-3.2536,-3.2459,-3.249,-3.249,-3.249,-3.2505,-3.2459,-3.2398,-3.2398,-3.2398,-3.2398,-3.2382,-3.2351,-3.1705,-3.0828,-3.0448,-2.9694,-2.8812,-2.8488,-2.8411,-2.8411,-2.835,-2.7934,-2.7272,-2.6595,-2.5903,-2.5204,-2.4579,-2.4312,-2.4281,-2.4281,-2.4281,-2.4281,-2.4281,-2.4281,-2.4281,-2.4281,-2.4281,-2.4281,-2.4281,-2.4281,-2.4281,-2.4281,-2.4374,-2.4533,-2.4973,-2.5419,-2.5795,-2.6588,-2.6952,-2.6456,-2.6645,-2.633,-2.5605,-2.5159,-2.5047,-2.5005,-2.5005,-2.5005,-2.5005,-2.5005,-2.5005,-2.5005,-2.5005,-2.5005,-2.5005,-2.5005,-2.5005,-2.5005,-2.5005,-2.5005,-2.5005,-2.5005,-2.5005,-2.5005,-2.5005,-2.5005,-2.5005,-2.5005,-2.5005,-2.4991,-2.4991,-2.4828,-2.4814,-2.4597,-2.4773,-2.48,-2.4529,-2.4516,-2.4638,-2.4774,-2.4842,-2.4829,-2.4734,-2.4786,-2.4753,-2.4202,-2.3725,-3.7769,-3.7461,-3.6954,-3.6615,-3.6507,-3.6492,-3.6492,-3.6492,-3.6476,-3.6168,-3.5753,-3.5522,-3.5106,-3.4428,-3.3721,-3.329,-3.3013,-3.2628,-3.2398,-3.2398,-3.2398,-3.2398,-3.2413,-3.2413,-3.2398,-3.2398,-3.2398,-3.2398,-3.2398,-3.2336,-3.1997,-3.1228,-3.0555,-2.9986,-2.9218,-2.8627,-2.8411,-2.8411,-2.8411,-2.8088,-2.7473,-2.6795,-2.6087,-2.5327,-2.4671,-2.4327,-2.4281,-2.4281,-2.4281,-2.4281,-2.4281,-2.4281,-2.4281,-2.4281,-2.4281,-2.4312,-2.4312,-2.4312,-2.4312,-2.4404,-2.4564,-2.5072,-2.5364,-2.5758,-2.6888,-2.7149,-2.7261,-2.692,-2.6776,-2.6295,-2.5342,-2.5075,-2.5005,-2.5005,-2.5005,-2.5005,-2.5005,-2.5005,-2.5005,-2.5005,-2.5005,-2.5005,-2.5005,-2.5005,-2.5005,-2.5005,-2.5005,-2.5005,-2.5005,-2.5005,-2.5005,-2.5005,-2.5005,-2.5005,-2.5005,-2.5005,-2.5005,-2.5005,-2.5005,-2.5005,-2.5005,-2.5005,-2.5005,-2.5005,-2.4936,-2.5005,-2.5005,-2.5005,-2.4937,-2.4978,-2.4977,-2.4878,-2.4736,-2.4421,-2.4002,-3.7323,-3.6999,-3.6645,-3.6492,-3.6492,-3.6492,-3.6492,-3.6415,-3.6138,-3.5814,-3.5491,-3.5198,-3.4643,-3.3983,-3.3567,-3.326,-3.2906,-3.2598,-3.2582,-3.2705,-3.2613,-3.2567,-3.2736,-3.2552,-3.2398,-3.2398,-3.2398,-3.2398,-3.2398,-3.2351,-3.2044,-3.1409,-3.0725,-3.0074,-2.9387,-2.875,-2.8442,-2.8411,-2.8396,-2.8211,-2.7811,-2.7196,-2.6287,-2.5389,-2.4681,-2.4281,-2.4281,-2.4281,-2.4281,-2.4297,-2.4312,-2.4297,-2.4297,-2.4297,-2.4281,-2.4333,-2.4656,-2.4727,-2.4789,-2.5118,-2.5456,-2.578,-2.6072,-2.6641,-2.7319,-2.7642,-2.7701,-2.743,-2.6979,-2.6349,-2.5244,-2.5033,-2.5005,-2.5005,-2.5005,-2.5005,-2.5005,-2.5005,-2.5005,-2.5005,-2.5005,-2.5005,-2.5005,-2.5005,-2.5005,-2.5005,-2.5005,-2.5005,-2.5005,-2.5005,-2.5005,-2.5005,-2.5005,-2.5005,-2.5005,-2.5005,-2.5005,-2.5005,-2.5005,-2.5005,-2.5005,-2.5005,-2.5005,-2.5005,-2.5005,-2.5005,-2.5005,-2.5005,-2.5005,-2.5005,-2.4948,-2.4821,-2.4666,-2.4465,-2.3989,-3.7015,-3.6492,-3.6492,-3.6492,-3.6492,-3.6492,-3.6492,-3.6399,-3.5814,-3.5475,-3.5275,-3.4736,-3.4274,-3.369,-3.3475,-3.3013,-3.2567,-3.2428,-3.2628,-3.2906,-3.2598,-3.2659,-3.2859,-3.2613,-3.2398,-3.2398,-3.2398,-3.2398,-3.2398,-3.2367,-3.2136,-3.152,-3.0751,-3.0171,-2.9541,-2.8796,-2.8411,-2.8411,-2.8396,-2.8381,-2.8227,-2.7657,-2.6703,-2.5718,-2.4933,-2.4697,-2.4748,-2.4687,-2.4543,-2.461,-2.4625,-2.4625,-2.4579,-2.4348,-2.4374,-2.4471,-2.4979,-2.5142,-2.5296,-2.5841,-2.6303,-2.6503,-2.698,-2.7396,-2.7657,-2.7987,-2.8,-2.769,-2.7174,-2.6481,-2.5495,-2.5314,-2.5174,-2.5061,-2.5005,-2.5005,-2.5005,-2.5005,-2.5005,-2.5005,-2.5005,-2.5005,-2.5005,-2.5005,-2.5005,-2.5005,-2.5005,-2.5005,-2.5005,-2.5005,-2.5005,-2.5005,-2.5005,-2.5005,-2.5005,-2.5005,-2.5005,-2.5005,-2.5005,-2.5005,-2.5005,-2.5005,-2.5005,-2.5005,-2.5005,-2.5005,-2.5005,-2.5005,-2.5005,-2.5005,-2.4948,-2.485,-2.4694,-2.4523,-2.3975,-3.6599,-3.6492,-3.6492,-3.6492,-3.6492,-3.6492,-3.6476,-3.6384,-3.5753,-3.5183,-3.472,-3.4551,-3.4474,-3.415,-3.3629,-3.3044,-3.2552,-3.2413,-3.2475,-3.2628,-3.2444,-3.2567,-3.2567,-3.2521,-3.2398,-3.2398,-3.2398,-3.2398,-3.2398,-3.2382,-3.2317,-3.1967,-3.0971,-3.0263,-2.9863,-2.9119,-2.8411,-2.8411,-2.8411,-2.8411,-2.8258,-2.7734,-2.7088,-2.6195,-2.5533,-2.5456,-2.5703,-2.5472,-2.5426,-2.5949,-2.6026,-2.6017,-2.5764,-2.501,-2.4743,-2.5066,-2.5358,-2.5558,-2.5635,-2.6087,-2.6657,-2.7072,-2.7396,-2.7734,-2.8073,-2.8295,-2.8186,-2.78,-2.7265,-2.664,-2.6041,-2.5743,-2.5508,-2.5272,-2.5048,-2.5005,-2.5005,-2.5005,-2.5005,-2.5005,-2.5005,-2.5005,-2.5005,-2.5005,-2.5005,-2.5005,-2.5005,-2.5005,-2.5005,-2.5005,-2.5005,-2.5005,-2.5005,-2.5005,-2.5005,-2.5005,-2.5005,-2.5005,-2.5005,-2.5005,-2.5005,-2.5005,-2.5005,-2.5005,-2.5005,-2.5005,-2.5005,-2.5005,-2.5005,-2.5005,-2.4948,-2.4878,-2.4708,-2.4494,-2.4002,-3.6492,-3.6492,-3.6492,-3.6492,-3.6492,-3.6492,-3.6292,-3.5938,-3.5614,-3.5121,-3.4767,-3.4813,-3.4552,-3.4091,-3.406,-3.3413,-3.2613,-3.2398,-3.2398,-3.2398,-3.2398,-3.2398,-3.2398,-3.2398,-3.2398,-3.2398,-3.2398,-3.2398,-3.2398,-3.2398,-3.2382,-3.209,-3.1063,-3.0402,-3.0094,-2.9089,-2.8519,-2.8411,-2.8411,-2.8411,-2.835,-2.7765,-2.7211,-2.6842,-2.6287,-2.6103,-2.6217,-2.6118,-2.601,-2.6287,-2.6387,-2.6603,-2.6503,-2.6118,-2.5518,-2.585,-2.6164,-2.6364,-2.6472,-2.7026,-2.7611,-2.7842,-2.7888,-2.8074,-2.836,-2.842,-2.8226,-2.7825,-2.7479,-2.6927,-2.6256,-2.6042,-2.5674,-2.5314,-2.509,-2.5005,-2.5005,-2.5005,-2.5005,-2.5005,-2.5005,-2.5005,-2.5005,-2.5005,-2.5005,-2.5005,-2.5005,-2.5005,-2.5005,-2.5005,-2.5005,-2.5005,-2.5005,-2.5005,-2.5005,-2.5005,-2.5005,-2.5005,-2.5005,-2.5005,-2.5005,-2.5005,-2.5005,-2.5005,-2.5005,-2.5005,-2.5005,-2.5005,-2.5005,-2.5005,-2.4977,-2.4892,-2.4708,-2.4421,-2.4031,-3.6492,-3.6492,-3.6492,-3.6415,-3.6307,-3.6292,-3.5891,-3.5383,-3.5121,-3.4706,-3.4428,-3.4736,-3.4368,-3.3783,-3.3767,-3.3552,-3.2444,-3.2398,-3.2398,-3.2398,-3.2398,-3.2398,-3.2398,-3.2398,-3.2398,-3.2398,-3.2398,-3.2398,-3.2398,-3.2398,-3.2321,-3.1859,-3.0936,-3.0279,-2.991,-2.8965,-2.855,-2.8411,-2.8411,-2.8411,-2.8258,-2.7904,-2.7596,-2.7534,-2.6949,-2.668,-2.6919,-2.6672,-2.6718,-2.6857,-2.6949,-2.7072,-2.7411,-2.7088,-2.6795,-2.6857,-2.7211,-2.7349,-2.7503,-2.7919,-2.8211,-2.8288,-2.8365,-2.8468,-2.8477,-2.842,-2.8275,-2.7965,-2.7785,-2.7338,-2.6654,-2.6244,-2.5825,-2.5383,-2.5131,-2.5005,-2.5005,-2.5005,-2.5005,-2.5005,-2.5005,-2.5005,-2.5018,-2.5005,-2.5005,-2.5005,-2.5005,-2.5005,-2.5005,-2.5005,-2.5005,-2.5005,-2.5005,-2.5005,-2.5005,-2.5005,-2.5005,-2.5005,-2.5005,-2.5005,-2.5005,-2.5005,-2.5005,-2.5005,-2.5005,-2.5005,-2.5005,-2.5005,-2.5005,-2.5005,-2.5005,-2.4948,-2.4835,-2.4679,-2.4408,-3.6492,-3.6492,-3.6476,-3.6153,-3.5675,-3.5629,-3.5244,-3.4597,-3.4029,-3.3614,-3.3644,-3.3675,-3.3706,-3.3475,-3.3429,-3.3075,-3.2582,-3.2398,-3.2398,-3.2398,-3.2398,-3.2398,-3.2398,-3.2398,-3.2398,-3.2398,-3.2398,-3.2398,-3.2398,-3.2398,-3.2105,-3.1567,-3.092,-3.0171,-2.9725,-2.8849,-2.8442,-2.8411,-2.8411,-2.8411,-2.8396,-2.8288,-2.8242,-2.8057,-2.7703,-2.7473,-2.778,-2.7534,-2.7473,-2.7965,-2.8073,-2.8181,-2.8273,-2.8218,-2.8165,-2.7996,-2.775,-2.7411,-2.7565,-2.8042,-2.8411,-2.8411,-2.8411,-2.8411,-2.842,-2.8444,-2.8372,-2.8372,-2.8235,-2.781,-2.7045,-2.6692,-2.6203,-2.5702,-2.531,-2.5169,-2.5141,-2.5465,-2.541,-2.5195,-2.5249,-2.51,-2.5018,-2.5018,-2.5005,-2.5005,-2.5005,-2.5005,-2.5005,-2.5005,-2.5005,-2.5005,-2.5005,-2.5005,-2.5005,-2.5005,-2.5005,-2.5005,-2.5005,-2.5005,-2.5005,-2.5005,-2.5005,-2.5005,-2.5005,-2.5005,-2.5005,-2.5005,-2.5005,-2.5005,-2.5005,-2.5005,-2.4977,-2.4835,-2.4679,-3.5568,-3.5907,-3.5922,-3.5522,-3.4967,-3.4936,-3.4551,-3.3983,-3.3967,-3.3783,-3.3552,-3.386,-3.3798,-3.3398,-3.3044,-3.269,-3.2444,-3.2398,-3.2398,-3.2398,-3.2398,-3.2398,-3.2398,-3.2398,-3.2398,-3.2398,-3.2398,-3.2398,-3.2398,-3.2382,-3.2182,-3.1828,-3.094,-3.0325,-2.974,-2.8879,-2.8519,-2.8411,-2.8411,-2.8411,-2.8411,-2.8411,-2.8411,-2.8396,-2.8088,-2.815,-2.8227,-2.8196,-2.8073,-2.8396,-2.8411,-2.8411,-2.8396,-2.8396,-2.8381,-2.8365,-2.815,-2.7996,-2.8027,-2.8258,-2.8365,-2.8411,-2.8411,-2.8411,-2.8411,-2.8444,-2.8484,-2.8411,-2.8177,-2.779,-2.7203,-2.664,-2.635,-2.5952,-2.5693,-2.5796,-2.5833,-2.5952,-2.6047,-2.5765,-2.548,-2.5371,-2.5222,-2.5127,-2.5086,-2.5005,-2.5005,-2.5005,-2.5005,-2.5005,-2.5005,-2.5005,-2.5005,-2.5005,-2.5005,-2.5005,-2.5005,-2.5005,-2.5005,-2.5005,-2.5005,-2.5005,-2.5005,-2.5005,-2.5005,-2.5005,-2.5005,-2.5005,-2.5005,-2.5005,-2.5005,-2.5005,-2.4977,-2.4948,-2.4666,-3.469,-3.4983,-3.5183,-3.4874,-3.4258,-3.4227,-3.3798,-3.326,-3.366,-3.3598,-3.3398,-3.3629,-3.3596,-3.3183,-3.2659,-3.2444,-3.2413,-3.2398,-3.2398,-3.2398,-3.2398,-3.2398,-3.2398,-3.2398,-3.2398,-3.2398,-3.2398,-3.2398,-3.2398,-3.2367,-3.2305,-3.2121,-3.1213,-3.0463,-2.9925,-2.9233,-2.8673,-2.8411,-2.8411,-2.8411,-2.8411,-2.8411,-2.8411,-2.8411,-2.8411,-2.8411,-2.8411,-2.8381,-2.8381,-2.8396,-2.8411,-2.8411,-2.8411,-2.8411,-2.8411,-2.8396,-2.8304,-2.8319,-2.8319,-2.8381,-2.8411,-2.8411,-2.8411,-2.8411,-2.8411,-2.8493,-2.8517,-2.8411,-2.8241,-2.7841,-2.7369,-2.6876,-2.6706,-2.6565,-2.6335,-2.6546,-2.6644,-2.663,-2.6549,-2.6291,-2.6036,-2.5765,-2.5588,-2.5358,-2.5195,-2.5046,-2.5005,-2.5005,-2.5032,-2.5046,-2.5005,-2.5005,-2.5005,-2.5005,-2.5005,-2.5005,-2.5005,-2.5005,-2.5005,-2.5005,-2.5005,-2.5005,-2.5005,-2.5005,-2.5005,-2.5005,-2.5005,-2.5005,-2.5005,-2.5005,-2.5005,-2.5005,-2.4977,-2.4948,-2.4494,-3.4106,-3.3598,-3.4289,-3.415,-3.349,-3.3475,-3.309,-3.2567,-3.2598,-3.2628,-3.2582,-3.2582,-3.2675,-3.2505,-3.2505,-3.2398,-3.2398,-3.2398,-3.2398,-3.2398,-3.2398,-3.2398,-3.2398,-3.2398,-3.2398,-3.2398,-3.2398,-3.2398,-3.2398,-3.2398,-3.2028,-3.1501,-3.132,-3.0535,-2.9858,-2.9279,-2.8796,-2.8519,-2.8411,-2.8411,-2.8411,-2.8411,-2.8411,-2.8411,-2.8411,-2.8411,-2.8411,-2.8411,-2.8411,-2.8411,-2.8411,-2.8411,-2.8411,-2.8411,-2.8411,-2.8411,-2.8411,-2.8411,-2.8411,-2.8411,-2.8411,-2.8411,-2.8411,-2.8411,-2.8411,-2.8411,-2.8411,-2.8479,-2.8425,-2.8329,-2.8029,-2.7706,-2.7343,-2.7294,-2.7143,-2.705,-2.7121,-2.7077,-2.6982,-2.6806,-2.6589,-2.6389,-2.6104,-2.59,-2.5331,-2.5141,-2.5032,-2.5032,-2.5113,-2.5127,-2.5046,-2.5005,-2.5005,-2.5005,-2.5005,-2.5005,-2.5005,-2.5005,-2.5005,-2.5005,-2.5005,-2.5005,-2.5005,-2.5005,-2.5005,-2.5005,-2.5005,-2.5005,-2.5005,-2.5005,-2.5005,-2.5005,-2.492,-2.4863,-2.4163,-3.3029,-3.2829,-3.309,-3.3072,-3.2767,-3.2767,-3.2628,-3.2428,-3.2398,-3.2398,-3.2398,-3.2398,-3.2398,-3.2398,-3.2398,-3.2398,-3.2398,-3.2398,-3.2398,-3.2398,-3.2398,-3.2398,-3.2398,-3.2398,-3.2398,-3.2398,-3.2398,-3.2398,-3.2398,-3.2398,-3.2305,-3.2009,-3.1655,-3.0905,-3.0166,-2.9258,-2.8704,-2.855,-2.8411,-2.8411,-2.8411,-2.8411,-2.8411,-2.8411,-2.8411,-2.8411,-2.8411,-2.8411,-2.8411,-2.8411,-2.8411,-2.8411,-2.8411,-2.8411,-2.8411,-2.8411,-2.8411,-2.8411,-2.8411,-2.8411,-2.8411,-2.8411,-2.8411,-2.8427,-2.8458,-2.8427,-2.8688,-2.8793,-2.8828,-2.8772,-2.9064,-2.8482,-2.7969,-2.8041,-2.7944,-2.7714,-2.7641,-2.7623,-2.7556,-2.742,-2.7271,-2.7094,-2.6796,-2.6454,-2.5819,-2.5222,-2.5127,-2.5113,-2.5303,-2.5317,-2.5263,-2.5154,-2.5141,-2.5113,-2.5113,-2.5073,-2.5018,-2.5005,-2.5005,-2.5005,-2.5005,-2.5005,-2.5005,-2.5005,-2.5005,-2.5005,-2.5005,-2.5005,-2.5005,-2.5005,-2.5005,-2.5005,-2.492,-2.4736,-2.4002,-3.2398,-3.2398,-3.2398,-3.2398,-3.2398,-3.2398,-3.2398,-3.2398,-3.2398,-3.2398,-3.2398,-3.2398,-3.2398,-3.2398,-3.2398,-3.2398,-3.2398,-3.2398,-3.2398,-3.2398,-3.2398,-3.2398,-3.2398,-3.2398,-3.2398,-3.2398,-3.2398,-3.2398,-3.2398,-3.2398,-3.2351,-3.2213,-3.1905,-3.1274,-3.0202,-2.915,-2.8411,-2.8411,-2.8411,-2.8411,-2.8411,-2.8411,-2.8411,-2.8411,-2.8411,-2.8411,-2.8411,-2.8411,-2.8411,-2.8411,-2.8411,-2.8411,-2.8411,-2.8411,-2.8411,-2.8411,-2.8411,-2.8411,-2.8411,-2.8411,-2.8411,-2.8411,-2.8411,-2.8519,-2.8642,-2.8695,-2.9033,-2.9602,-2.9465,-2.9448,-2.9892,-2.9182,-2.8681,-2.8699,-2.8422,-2.8216,-2.8271,-2.8248,-2.8139,-2.8017,-2.7881,-2.7732,-2.7257,-2.6888,-2.6481,-2.5966,-2.5925,-2.5928,-2.5968,-2.5887,-2.5615,-2.548,-2.5331,-2.529,-2.5249,-2.5154,-2.5059,-2.5005,-2.5005,-2.5005,-2.5005,-2.5032,-2.5032,-2.5005,-2.5005,-2.5005,-2.5005,-2.5005,-2.5005,-2.5005,-2.5005,-2.4977,-2.4593,-2.4379,-2.3985,-3.2398,-3.2398,-3.2398,-3.2398,-3.2398,-3.2398,-3.2398,-3.2398,-3.2398,-3.2398,-3.2398,-3.2398,-3.2398,-3.2398,-3.2398,-3.2398,-3.2398,-3.2398,-3.2398,-3.2398,-3.2398,-3.2398,-3.2398,-3.2398,-3.2398,-3.2398,-3.2398,-3.2398,-3.2398,-3.2398,-3.2398,-3.229,-3.1982,-3.1443,-3.034,-2.9073,-2.8442,-2.8411,-2.8411,-2.8411,-2.8411,-2.8411,-2.8411,-2.8411,-2.8411,-2.8411,-2.8411,-2.8411,-2.8411,-2.8411,-2.8411,-2.8411,-2.8411,-2.8411,-2.8411,-2.8411,-2.8411,-2.8411,-2.8411,-2.8411,-2.8411,-2.8411,-2.8411,-2.8627,-2.9125,-2.9356,-2.9602,-3.0202,-3.0319,-3.0201,-3.0097,-2.9827,-2.9572,-2.9178,-2.8882,-2.8584,-2.8597,-2.8587,-2.8424,-2.8343,-2.841,-2.8329,-2.7773,-2.7294,-2.7064,-2.682,-2.6779,-2.6738,-2.6671,-2.6386,-2.609,-2.5982,-2.5819,-2.5629,-2.5561,-2.5249,-2.5113,-2.5046,-2.51,-2.5208,-2.5208,-2.5236,-2.5181,-2.5086,-2.5005,-2.5005,-2.5005,-2.5005,-2.5005,-2.5005,-2.5005,-2.4892,-2.4436,-2.4089,-2.3796,-3.2398,-3.2398,-3.2398,-3.2398,-3.2398,-3.2398,-3.2398,-3.2398,-3.2398,-3.2398,-3.2398,-3.2398,-3.2398,-3.2398,-3.2398,-3.2398,-3.2398,-3.2398,-3.2398,-3.2398,-3.2398,-3.2398,-3.2398,-3.2398,-3.2398,-3.2398,-3.2398,-3.2398,-3.2398,-3.2398,-3.2398,-3.2305,-3.1643,-3.0848,-3.014,-2.9181,-2.8411,-2.8411,-2.8411,-2.8411,-2.8411,-2.8411,-2.8411,-2.8411,-2.8411,-2.8411,-2.8411,-2.8411,-2.8411,-2.8411,-2.8411,-2.8411,-2.8411,-2.8411,-2.8411,-2.8411,-2.8411,-2.8411,-2.8411,-2.8411,-2.8411,-2.8427,-2.8504,-2.8781,-2.9279,-2.9371,-2.9971,-3.0751,-3.1043,-3.1034,-3.1099,-3.0645,-3.0244,-2.9588,-2.9205,-2.8789,-2.8651,-2.8619,-2.8532,-2.8519,-2.856,-2.8546,-2.8193,-2.7922,-2.7691,-2.7443,-2.7362,-2.7335,-2.7311,-2.6901,-2.6549,-2.6535,-2.6413,-2.6158,-2.5914,-2.5751,-2.548,-2.5358,-2.548,-2.5656,-2.5629,-2.5548,-2.552,-2.5507,-2.5249,-2.5005,-2.5005,-2.5005,-2.5005,-2.5005,-2.5086,-2.4875,-2.4408,-2.4118,-2.3855,-3.2398,-3.2398,-3.2398,-3.2398,-3.2398,-3.2398,-3.2398,-3.2398,-3.2398,-3.2398,-3.2398,-3.2398,-3.2398,-3.2398,-3.2398,-3.2398,-3.2398,-3.2398,-3.2398,-3.2398,-3.2398,-3.2398,-3.2398,-3.2398,-3.2398,-3.2398,-3.2398,-3.2398,-3.2398,-3.2398,-3.2398,-3.2074,-3.1094,-3.0617,-3.0002,-2.9227,-2.8411,-2.8411,-2.8411,-2.8411,-2.8411,-2.8411,-2.8411,-2.8411,-2.8411,-2.8411,-2.8411,-2.8411,-2.8411,-2.8411,-2.8411,-2.8411,-2.8411,-2.8411,-2.8411,-2.8411,-2.8411,-2.8411,-2.8411,-2.875,-2.8796,-2.8802,-2.8725,-2.9171,-2.9843,-3.0228,-3.0782,-3.1382,-3.1643,-3.1619,-3.1575,-3.1131,-3.0539,-2.987,-2.9338,-2.8908,-2.8651,-2.8587,-2.8587,-2.8587,-2.8587,-2.8587,-2.8587,-2.8546,-2.8343,-2.8139,-2.7949,-2.7922,-2.7854,-2.7443,-2.7159,-2.7213,-2.7037,-2.6725,-2.6538,-2.6402,-2.6104,-2.5681,-2.59,-2.6185,-2.6063,-2.6009,-2.5968,-2.5848,-2.5385,-2.5059,-2.5018,-2.5018,-2.5073,-2.5181,-2.529,-2.4938,-2.4419,-2.4109,-2.3875,-3.2398,-3.2398,-3.2398,-3.2398,-3.2398,-3.2398,-3.2398,-3.2398,-3.2398,-3.2398,-3.2398,-3.2398,-3.2398,-3.2398,-3.2398,-3.2398,-3.2398,-3.2398,-3.2398,-3.2398,-3.2398,-3.2398,-3.2398,-3.2398,-3.2398,-3.2398,-3.2398,-3.2398,-3.2398,-3.2398,-3.2398,-3.2028,-3.1012,-3.0448,-2.9848,-2.915,-2.8473,-2.8411,-2.8411,-2.8411,-2.8411,-2.8411,-2.8411,-2.8411,-2.8411,-2.8411,-2.8411,-2.8411,-2.8411,-2.8411,-2.8411,-2.8411,-2.8411,-2.8411,-2.8411,-2.8411,-2.8411,-2.8411,-2.8488,-2.8904,-2.935,-2.9387,-2.9525,-3.0228,-3.0751,-3.107,-3.1413,-3.1859,-3.2167,-3.1883,-3.1667,-3.1131,-3.0584,-2.9931,-2.9306,-2.8972,-2.8683,-2.8587,-2.8587,-2.8587,-2.8587,-2.8587,-2.8587,-2.8587,-2.8587,-2.8478,-2.8288,-2.8315,-2.822,-2.8017,-2.7854,-2.803,-2.7786,-2.7321,-2.7118,-2.6986,-2.6674,-2.628,-2.6535,-2.6809,-2.6647,-2.6497,-2.6416,-2.6145,-2.5439,-2.5154,-2.5263,-2.5263,-2.5208,-2.5358,-2.565,-2.5082,-2.4564,-2.4124,-2.3849,-3.2398,-3.2398,-3.2398,-3.2398,-3.2398,-3.2398,-3.2398,-3.2398,-3.2398,-3.2398,-3.2398,-3.2398,-3.2398,-3.2398,-3.2398,-3.2398,-3.2398,-3.2398,-3.2398,-3.2398,-3.2398,-3.2398,-3.2398,-3.2398,-3.2398,-3.2382,-3.2382,-3.2351,-3.2382,-3.2382,-3.2056,-3.1578,-3.0766,-3.0202,-2.9571,-2.8842,-2.8565,-2.8411,-2.8411,-2.8411,-2.8411,-2.8411,-2.8411,-2.8411,-2.8411,-2.8411,-2.8411,-2.8411,-2.8411,-2.8411,-2.8411,-2.8411,-2.8411,-2.8411,-2.8411,-2.8411,-2.8411,-2.8427,-2.8519,-2.9018,-2.9602,-3.0151,-3.0489,-3.0859,-3.1332,-3.1536,-3.1782,-3.2151,-3.2398,-3.212,-3.1652,-3.1116,-3.0524,-2.9901,-2.9306,-2.8908,-2.8651,-2.8587,-2.8587,-2.8587,-2.8587,-2.8587,-2.8587,-2.8587,-2.8587,-2.8587,-2.8587,-2.8587,-2.8546,-2.8329,-2.8261,-2.8424,-2.8356,-2.7881,-2.7664,-2.7488,-2.7176,-2.6945,-2.7244,-2.7403,-2.7366,-2.7203,-2.6959,-2.6457,-2.5765,-2.5588,-2.5643,-2.5656,-2.5697,-2.594,-2.6173,-2.5414,-2.4736,-2.434,-2.4022,-3.1613,-3.1613,-3.1628,-3.1628,-3.1643,-3.1917,-3.1997,-3.2071,-3.2275,-3.2398,-3.2398,-3.2398,-3.2398,-3.2398,-3.2398,-3.2398,-3.2398,-3.2398,-3.2398,-3.2398,-3.2367,-3.2398,-3.2398,-3.2367,-3.2398,-3.2336,-3.2182,-3.209,-3.2198,-3.1997,-3.1686,-3.0997,-3.034,-2.9848,-2.9325,-2.8827,-2.8473,-2.8411,-2.8411,-2.8411,-2.8411,-2.8411,-2.8411,-2.8411,-2.8411,-2.8411,-2.8411,-2.8411,-2.8411,-2.8411,-2.8411,-2.8411,-2.8411,-2.8411,-2.8411,-2.8411,-2.8411,-2.8611,-2.8889,-2.9489,-3.0094,-3.0735,-3.1366,-3.169,-3.1809,-3.1963,-3.2105,-3.2336,-3.2312,-3.2203,-3.168,-3.1116,-3.0464,-2.9808,-2.9324,-2.8844,-2.8716,-2.8619,-2.8587,-2.8587,-2.8587,-2.8587,-2.8587,-2.8587,-2.8587,-2.8587,-2.8587,-2.8587,-2.8587,-2.8519,-2.8451,-2.8532,-2.8532,-2.837,-2.8166,-2.7976,-2.7813,-2.7691,-2.7881,-2.803,-2.8017,-2.7651,-2.7176,-2.666,-2.6104,-2.6036,-2.6022,-2.6183,-2.6302,-2.6526,-2.6512,-2.5955,-2.528,-2.4728,-2.4434,-3.0417,-3.0448,-3.0402,-3.0509,-3.0494,-3.1074,-3.1347,-3.1393,-3.189,-3.229,-3.2351,-3.2321,-3.2244,-3.2194,-3.2194,-3.2074,-3.2121,-3.2182,-3.2275,-3.2305,-3.2167,-3.2151,-3.2151,-3.2213,-3.1874,-3.1859,-3.1767,-3.1505,-3.1828,-3.1597,-3.1028,-3.0371,-2.9802,-2.9448,-2.931,-2.8735,-2.8427,-2.8411,-2.8411,-2.8411,-2.8411,-2.8411,-2.8411,-2.8411,-2.8411,-2.8411,-2.8411,-2.8411,-2.8411,-2.8411,-2.8411,-2.8411,-2.8411,-2.8411,-2.8411,-2.8504,-2.855,-2.8858,-2.935,-3.0012,-3.0658,-3.132,-3.1982,-3.2167,-3.2198,-3.221,-3.2321,-3.2351,-3.237,-3.2231,-3.1766,-3.1219,-3.0598,-2.9962,-2.9387,-2.8958,-2.8683,-2.8587,-2.8587,-2.8587,-2.8587,-2.8587,-2.8587,-2.8587,-2.8587,-2.8587,-2.8587,-2.8587,-2.8587,-2.8587,-2.8587,-2.8587,-2.8573,-2.856,-2.8492,-2.837,-2.8451,-2.8478,-2.8492,-2.8465,-2.8329,-2.7868,-2.7311,-2.6864,-2.6457,-2.6389,-2.6389,-2.6549,-2.6654,-2.6742,-2.6677,-2.6382,-2.5861,-2.5227,-2.4916,-3.0402,-3.0402,-3.0402,-3.0402,-3.0417,-3.0555,-3.0658,-3.0632,-3.0786,-3.1474,-3.2151,-3.1874,-3.1628,-3.1628,-3.1628,-3.1459,-3.1213,-3.1782,-3.1967,-3.1767,-3.1628,-3.1628,-3.1536,-3.1305,-3.1048,-3.0832,-3.0751,-3.0782,-3.0755,-3.0674,-3.0582,-3.0294,-2.9664,-2.9294,-2.9248,-2.8673,-2.8411,-2.8411,-2.8519,-2.8519,-2.8519,-2.8442,-2.8411,-2.8442,-2.8458,-2.8488,-2.8488,-2.8458,-2.8427,-2.8411,-2.8411,-2.8411,-2.8411,-2.8411,-2.8411,-2.8488,-2.8849,-2.9202,-2.9766,-3.0474,-3.1136,-3.149,-3.1951,-3.2244,-3.2398,-3.2398,-3.2398,-3.2398,-3.2342,-3.2176,-3.1894,-3.1335,-3.0792,-3.0115,-2.9481,-2.9053,-2.8651,-2.8619,-2.8587,-2.8587,-2.8587,-2.8587,-2.8587,-2.8587,-2.8587,-2.8587,-2.8587,-2.8587,-2.8587,-2.8587,-2.8587,-2.8587,-2.8587,-2.8587,-2.8587,-2.8587,-2.8587,-2.8587,-2.8546,-2.856,-2.8587,-2.8153,-2.7651,-2.7216,-2.6877,-2.6877,-2.6864,-2.6833,-2.6943,-2.7059,-2.7052,-2.6868,-2.6371,-2.5768,-2.5505,-2.951,-2.9494,-2.951,-2.952,-2.9556,-2.9817,-2.9956,-3.0002,-3.0263,-3.0786,-3.1413,-3.1136,-3.0951,-3.0951,-3.0951,-3.0812,-3.0494,-3.1136,-3.1182,-3.1028,-3.0951,-3.0951,-3.0766,-3.0525,-3.0571,-3.0402,-3.034,-3.0263,-2.9756,-2.9817,-2.9889,-2.9597,-2.9135,-2.8996,-2.891,-2.8581,-2.8442,-2.8411,-2.8673,-2.8858,-2.8787,-2.8658,-2.8673,-2.8688,-2.8858,-2.8858,-2.8858,-2.8889,-2.9073,-2.9058,-2.9089,-2.8627,-2.8519,-2.8411,-2.8581,-2.8873,-2.9258,-2.9673,-3.0289,-3.0889,-3.1578,-3.1859,-3.2059,-3.2398,-3.2398,-3.2398,-3.2398,-3.2398,-3.2398,-3.2259,-3.2007,-3.1537,-3.0925,-3.0297,-2.9574,-2.9004,-2.8716,-2.8587,-2.8587,-2.8587,-2.8587,-2.8587,-2.8587,-2.8587,-2.8587,-2.8587,-2.8587,-2.8587,-2.8587,-2.8587,-2.8587,-2.8587,-2.8587,-2.8587,-2.8587,-2.8587,-2.8587,-2.8587,-2.8587,-2.8587,-2.856,-2.8343,-2.8003,-2.761,-2.742,-2.7501,-2.7488,-2.7393,-2.7427,-2.755,-2.7505,-2.7411,-2.6803,-2.6129,-2.5767,-2.8458,-2.8411,-2.8427,-2.8427,-2.8488,-2.9027,-2.9264,-2.9381,-2.9863,-3.0094,-3.0125,-3.0109,-3.0171,-3.0263,-3.0263,-3.0217,-3.0294,-3.0597,-3.0463,-3.0294,-3.0263,-3.0263,-3.0228,-3.0094,-2.9925,-2.9879,-2.9863,-2.931,-2.8704,-2.8996,-2.9042,-2.8504,-2.8411,-2.8427,-2.8427,-2.8535,-2.8642,-2.8842,-2.911,-2.955,-2.935,-2.9042,-2.9196,-2.9396,-2.951,-2.9535,-2.9535,-2.9617,-2.9894,-2.9879,-2.974,-2.9273,-2.8965,-2.8858,-2.8996,-2.9294,-2.9766,-3.0366,-3.0997,-3.1439,-3.1874,-3.2198,-3.2351,-3.2398,-3.2398,-3.2398,-3.2398,-3.2398,-3.2398,-3.2315,-3.2064,-3.1623,-3.1014,-3.0374,-2.9637,-2.894,-2.8748,-2.8587,-2.8587,-2.8587,-2.8587,-2.8587,-2.8587,-2.8587,-2.8587,-2.8587,-2.8587,-2.8587,-2.8587,-2.8587,-2.8587,-2.8587,-2.8587,-2.8587,-2.8587,-2.8587,-2.8587,-2.8587,-2.8587,-2.8587,-2.856,-2.8424,-2.8261,-2.8058,-2.7936,-2.7868,-2.7936,-2.7908,-2.7954,-2.7901,-2.7543,-2.7242,-2.6633,-2.6025,-2.5769,-2.8411,-2.8411,-2.8411,-2.8411,-2.8442,-2.8565,-2.8611,-2.8611,-2.875,-2.8796,-2.8904,-2.8849,-2.9018,-2.9571,-2.9587,-2.9464,-2.9273,-2.9766,-2.9848,-2.9648,-2.9602,-2.9587,-2.9494,-2.9294,-2.8904,-2.8919,-2.9012,-2.8658,-2.8411,-2.8565,-2.8611,-2.8488,-2.8458,-2.8488,-2.8581,-2.8812,-2.9233,-2.9417,-2.9833,-3.0351,-3.0658,-3.0412,-3.0125,-3.0186,-3.0202,-3.0202,-3.0202,-3.0202,-3.0263,-3.0294,-3.0263,-2.9858,-2.9597,-2.9525,-2.9694,-2.9874,-3.0335,-3.0905,-3.1501,-3.1886,-3.2244,-3.2305,-3.2398,-3.2398,-3.2398,-3.2398,-3.2398,-3.2398,-3.2398,-3.2398,-3.2148,-3.1552,-3.0925,-3.0237,-2.9512,-2.899,-2.8619,-2.8587,-2.8587,-2.8587,-2.8587,-2.8587,-2.8587,-2.8587,-2.8587,-2.8587,-2.8587,-2.8587,-2.8587,-2.8587,-2.8587,-2.8587,-2.8587,-2.8587,-2.8587,-2.8587,-2.8587,-2.8587,-2.8587,-2.8587,-2.8587,-2.8587,-2.8438,-2.8275,-2.8098,-2.7976,-2.8085,-2.8248,-2.8077,-2.7913,-2.7384,-2.6905,-2.6371,-2.5955,-2.5734]},{"header":{"parameterUnit":"m.s-1","parameterCategory":1,"la1":31.0,"la2":29.5877,"lo1":-88.7671,"lo2":-86.6584,"dy":0.0162,"dx":0.0185,"nx":115,"ny":88,"refTime":"2026-04-17T00:00:00:Z","depth":0,"parameterNumber":3,"parameterNumberName":"V-component_of_WINDS"},"data":[0.0,0.0,0.0,0.0,0.0,0.0,0.0,0.0,0.0,0.0,0.0,0.0,0.0,0.0,0.0,0.0,0.0,0.0,0.0,0.0,0.0,0.0,0.0,0.0,0.0,0.0,0.0,0.0,0.0,0.0,0.0,0.0,0.0,0.0,0.0,0.0,0.0,0.0,0.0,0.0,0.0,0.0,0.0,0.0,0.0,0.0,0.0,0.0,0.0,0.0,0.0,0.0,0.0,0.0,0.0,0.0,0.0,0.0,0.0,0.0,0.0,0.0,0.0,0.0,0.0,0.0,0.0,0.0,0.0,0.0,0.0,0.0,0.0,0.0,0.0,0.0,0.0,0.0,0.0,0.0,0.0,0.0,0.0,0.0,0.0,0.0,0.0,0.0,0.0,0.0,0.0,0.0,0.0,0.0,0.0,0.0,0.0,0.0,0.0,0.0,0.0,0.0,0.0,0.0,0.0,0.0,0.0,0.0,0.0,0.0,0.0,0.0,0.0,0.0,0.0,0.0,0.0,0.0,0.0,0.0,0.0,0.0,0.0,0.0,0.0,0.0,0.0,0.0,0.0,0.0,0.0,0.0,0.0,0.0,0.0,0.0,0.0,0.0,0.0,0.0,0.0,0.0,0.0,0.0,0.0,0.0,0.0,0.0,0.0,0.0,0.0,0.0,0.0,0.0,0.0,0.0,0.0,0.0,0.0,0.0,0.0,0.0,0.0,0.0,0.0,0.0,0.0,0.0,0.0,0.0,0.0,0.0,0.0,0.0,0.0,0.0,0.0,0.0,0.0,0.0,0.0,0.0,0.0,0.0,0.0,0.0,0.0,0.0,0.0,0.0,0.0,0.0,0.0,0.0,0.0,0.0,0.0,0.0,0.0,0.0,0.0,0.0,0.0,0.0,0.0,0.0,0.0,0.0,0.0,0.0,0.0,0.0,0.0,0.0,0.0,0.0,0.0,0.0,0.0,0.0,0.0,0.0,0.0,0.0,0.0,0.0,0.0,0.0,0.0,0.0,0.0,0.0,0.0,0.0,0.0,0.0,0.0,0.0,0.0,0.0,0.0,0.0,0.0,0.0,0.0,0.0,0.0,0.0,0.0,0.0,0.0,0.0,0.0,0.0,0.0,0.0,0.0,0.0,0.0,0.0,0.0,0.0,0.0,0.0,0.0,0.0,0.0,0.0,0.0,0.0,0.0,0.0,0.0,0.0,0.0,0.0,0.0,0.0,0.0,0.0,0.0,0.0,0.0,0.0,0.0,0.0,0.0,0.0,0.0,0.0,0.0,0.0,0.0,0.0,0.0,0.0,0.0,0.0,0.0,0.0,0.0,0.0,0.0,0.0,0.0,0.0,0.0,0.0,0.0,0.0,0.0,0.0,0.0,0.0,0.0,0.0,0.0,0.0,0.0,0.0,0.0,0.0,0.0,0.0,0.0,0.0,0.0,0.0,0.0,0.0,0.0,0.0,0.0,0.0,0.0,0.0,0.0,0.0,0.0,0.0,0.0,0.0,0.0,0.0,0.0,0.0,0.0,0.0,0.0,0.0,0.0,0.0,0.0,0.0,0.0,0.0,0.0,0.0,0.0,0.0,0.0,0.0,0.0,0.0,0.0,0.0,0.0,0.0,0.0,0.0,0.0,0.0,0.0,0.0,0.0,0.0,0.0,0.0,0.0,0.0,0.0,0.0,0.0,0.0,0.0,0.0,0.0,0.0,0.0,0.0,0.0,0.0,0.0,0.0,0.0,0.0,0.0,0.0,0.0,0.0,0.0,0.0,0.0,0.0,0.0,0.0,0.0,0.0,0.0,0.0,0.0,0.0,0.0,0.0,0.0,0.0,0.0,0.0,0.0,0.0,0.0,0.0,0.0,0.0,0.0,0.0,0.0,0.0,0.0,0.0,0.0,0.0,0.0,0.0,0.0,0.0,0.0,0.0,0.0,0.0,0.0,0.0,0.0,0.0,0.0,0.0,0.0,0.0,0.0,0.0,0.0,0.0,0.0,0.0,0.0,0.0,0.0,0.0,0.0,0.0,0.0,0.0,0.0,0.0,0.0,0.0,0.0,0.0,0.0,0.0,0.0,0.0,0.0,0.0,0.0,0.0,0.0,0.0,0.0,0.0,0.0,0.0,0.0,0.0,0.0,0.0,0.0,0.0,0.0,0.0,0.0,0.0,0.0,0.0,0.0,0.0,0.0,0.0,0.0,0.0,0.0,0.0,0.0,0.0,0.0,0.0,0.0,0.0,0.0,0.0,0.0,0.0,0.0,0.0,0.0,0.0,0.0,0.0,0.0,0.0,0.0,0.0,0.0,0.0,0.0,0.0,0.0,0.0,0.0,0.0,0.0,0.0,0.0,0.0,0.0,0.0,0.0,0.0,0.0,0.0,0.0,0.0,0.0,0.0,0.0,0.0,0.0,0.0,0.0,0.0,0.0,0.0,0.0,0.0,0.0,0.0,0.0,0.0,0.0,0.0,0.0,0.0,0.0,0.0,0.0,0.0,0.0,0.0,0.0,0.0,0.0,0.0,0.0,0.0,0.0,0.0,0.0,0.0,0.0,0.0,0.0,0.0,0.0,0.0,0.0,0.0,0.0,0.0,0.0,0.0,0.0,0.0,0.0,0.0,0.0,0.0,0.0,0.0,0.0,0.0,0.0,0.0,0.0,0.0,0.0,0.0,0.0,0.0,0.0,0.0,0.0,0.0,0.0,0.0,0.0,0.0,0.0,0.0,0.0,0.0,0.0,0.0,0.0,0.0,0.0,0.0,0.0,0.0,0.0,0.0,0.0,0.0,0.0,0.0,0.0,0.0,0.0,0.0,0.0,0.0,0.0,0.0,0.0,0.0,0.0,0.0,0.0,0.0,0.0,0.0,0.0,0.0,0.0,0.0,0.0,0.0,0.0,0.0,0.0,0.0,0.0,0.0,0.0,0.0,0.0,0.0,0.0,0.0,0.0,0.0,0.0,0.0,0.0,0.0,0.0,0.0,0.0,0.0,0.0,0.0,0.0,0.0,0.0,0.0,0.0,0.0,0.0,0.0,0.0,0.0,0.0,0.0,0.0,0.0,0.0,0.0,0.0,0.0,0.0,0.0,0.0,0.0,0.0,0.0,0.0,0.0,0.0,0.0,0.0,0.0,0.0,0.0,0.0,0.0,0.0,0.0,0.0,0.0,0.0,0.0,0.0,0.0,0.0,0.0,0.0,0.0,0.0,0.0,0.0,0.0,0.0,0.0,0.0,0.0,0.0,0.0,0.0,0.0,0.0,0.0,0.0,0.0,0.0,0.0,0.0,0.0,0.0,0.0,0.0,0.0,0.0,0.0,0.0,0.0,0.0,0.0,0.0,0.0,0.0,0.0,0.0,0.0,0.0,0.0,0.0,0.0,0.0,0.0,0.0,0.0,0.0,0.0,0.0,0.0,0.0,0.0,0.0,0.0,0.0,0.0,0.0,0.0,0.0,0.0,0.0,0.0,0.0,0.0,0.0,0.0,0.0,0.0,0.0,0.0,0.0,0.0,0.0,0.0,0.0,0.0,0.0,0.0,0.0,0.0,0.0,0.0,0.0,0.0,0.0,0.0,0.0,0.0,0.0,0.0,0.0,0.0,0.0,0.0,0.0,0.0,0.0,0.0,0.0,0.0,0.0,0.0,0.0,0.0,0.0,0.0,0.0,0.0,0.0,0.0,0.0,0.0,0.0,0.0,0.0,0.0,0.0,0.0,0.0,0.0,0.0,0.0,0.0,0.0,0.0,0.0,0.0,0.0,0.0,0.0,0.0,0.0,0.0,0.0,0.0,0.0,0.0,0.0,0.0,0.0,0.0,0.0,0.0,0.0,0.0,0.0,0.0,0.0,0.0,0.0,0.0,0.0,0.0,0.0,0.0,0.0,0.0,0.0,0.0,0.0,0.0,0.0,0.0,0.0,0.0,0.0,0.0,0.0,0.0,0.0,0.0,0.0,0.0,0.0,0.0,0.0,0.0,0.0,0.0,0.0,0.0,0.0,0.0,0.0,0.0,0.0,0.0,0.0,0.0,0.0,0.0,0.0,0.0,0.0,0.0,0.0,0.0,0.0,0.0,0.0,0.0,0.0,0.0,0.0,0.0,0.0,0.0,0.0,0.0,0.0,0.0,0.0,0.0,0.0,0.0,0.0,0.0,0.0,0.0,0.0,0.0,0.0,0.0,0.0,0.0,0.0,0.0,0.0,0.0,0.0,0.0,0.0,0.0,0.0,0.0,0.0,0.0,0.0,0.0,0.0,0.0,0.0,-1.2709,0.0,0.0,0.0,0.0,0.0,0.0,0.0,0.0,0.0,0.0,0.0,0.0,0.0,0.0,0.0,0.0,0.0,0.0,0.0,0.0,0.0,0.0,0.0,0.0,0.0,0.0,0.0,0.0,0.0,0.0,0.0,0.0,0.0,0.0,0.0,0.0,0.0,0.0,0.0,0.0,0.0,0.0,0.0,0.0,0.0,0.0,0.0,0.0,0.0,0.0,0.0,0.0,0.0,0.0,0.0,0.0,0.0,0.0,0.0,0.0,0.0,0.0,0.0,0.0,0.0,0.0,0.0,0.0,0.0,0.0,0.0,0.0,0.0,0.0,0.0,0.0,0.0,0.0,0.0,0.0,0.0,0.0,0.0,0.0,0.0,0.0,0.0,0.0,0.0,0.0,0.0,0.0,0.0,0.0,0.0,0.0,0.0,0.0,0.0,0.0,0.0,0.0,0.0,0.0,0.0,0.0,0.0,0.0,0.0,0.0,-1.2826,-1.282,-1.2768,-1.275,-1.275,0.0,0.0,0.0,0.0,0.0,0.0,0.0,0.0,0.0,0.0,0.0,0.0,0.0,0.0,0.0,0.0,0.0,0.0,0.0,0.0,0.0,0.0,0.0,0.0,0.0,0.0,0.0,0.0,0.0,0.0,0.0,0.0,0.0,0.0,0.0,0.0,0.0,0.0,0.0,0.0,0.0,0.0,0.0,0.0,0.0,0.0,0.0,0.0,0.0,0.0,0.0,0.0,0.0,0.0,0.0,0.0,0.0,0.0,0.0,0.0,0.0,0.0,0.0,0.0,0.0,0.0,0.0,0.0,0.0,0.0,0.0,0.0,0.0,0.0,0.0,0.0,0.0,0.0,0.0,0.0,0.0,0.0,0.0,0.0,0.0,0.0,0.0,0.0,0.0,0.0,0.0,0.0,0.0,0.0,0.0,0.0,0.0,0.0,0.0,0.0,0.0,0.0,0.0,0.0,0.0,0.0,0.0,0.0,0.0,0.0,0.0,0.0,-1.2973,-1.2901,-1.278,0.0,0.0,0.0,0.0,0.0,0.0,0.0,0.0,0.0,0.0,0.0,0.0,0.0,0.0,0.0,0.0,0.0,0.0,0.0,0.0,0.0,0.0,0.0,0.0,0.0,0.0,0.0,0.0,0.0,0.0,0.0,0.0,0.0,0.0,0.0,0.0,0.0,0.0,0.0,0.0,0.0,0.0,0.0,0.0,0.0,0.0,0.0,0.0,0.0,0.0,0.0,0.0,0.0,0.0,0.0,0.0,0.0,0.0,0.0,0.0,0.0,0.0,0.0,0.0,0.0,0.0,0.0,0.0,0.0,0.0,0.0,0.0,0.0,0.0,0.0,0.0,0.0,0.0,0.0,0.0,0.0,0.0,0.0,0.0,0.0,0.0,0.0,0.0,0.0,0.0,0.0,0.0,0.0,0.0,0.0,0.0,0.0,0.0,0.0,0.0,0.0,0.0,0.0,0.0,0.0,0.0,0.0,0.0,0.0,0.0,-1.2998,-1.3427,-1.3421,0.0,-1.2758,0.0,0.0,0.0,0.0,0.0,0.0,0.0,0.0,0.0,0.0,0.0,0.0,0.0,0.0,0.0,0.0,0.0,0.0,0.0,0.0,0.0,0.0,0.0,0.0,0.0,0.0,0.0,0.0,0.0,0.0,0.0,0.0,0.0,0.0,0.0,0.0,0.0,0.0,0.0,0.0,0.0,0.0,0.0,0.0,0.0,0.0,0.0,0.0,0.0,0.0,0.0,0.0,0.0,0.0,0.0,0.0,0.0,0.0,0.0,0.0,0.0,0.0,0.0,0.0,0.0,0.0,0.0,0.0,0.0,0.0,0.0,0.0,0.0,0.0,0.0,0.0,0.0,0.0,0.0,0.0,0.0,0.0,0.0,0.0,0.0,0.0,0.0,0.0,0.0,0.0,0.0,0.0,0.0,0.0,0.0,0.0,0.0,0.0,0.0,0.0,0.0,0.0,0.0,0.0,0.0,0.0,0.0,0.0,0.0,0.0,0.0,-1.3474,-1.3204,-1.2908,0.0,0.0,0.0,0.0,0.0,0.0,0.0,0.0,0.0,0.0,0.0,0.0,0.0,0.0,0.0,0.0,0.0,0.0,0.0,0.0,0.0,0.0,0.0,0.0,0.0,0.0,0.0,0.0,0.0,0.0,0.0,0.0,0.0,0.0,0.0,0.0,0.0,0.0,0.0,0.0,0.0,0.0,0.0,0.0,0.0,0.0,0.0,0.0,0.0,0.0,0.0,0.0,0.0,0.0,0.0,0.0,0.0,0.0,0.0,0.0,0.0,0.0,0.0,0.0,0.0,0.0,0.0,0.0,0.0,0.0,0.0,0.0,0.0,0.0,0.0,0.0,0.0,0.0,0.0,0.0,0.0,0.0,0.0,0.0,0.0,0.0,0.0,0.0,0.0,0.0,0.0,0.0,0.0,0.0,0.0,0.0,0.0,0.0,0.0,0.0,0.0,0.0,0.0,0.0,0.0,0.0,0.0,0.0,0.0,0.0,-1.3155,0.0,-1.3469,-1.3119,-1.2704,-1.227,0.0,0.0,0.0,0.0,0.0,0.0,0.0,0.0,0.0,0.0,0.0,0.0,0.0,0.0,0.0,0.0,0.0,0.0,0.0,0.0,0.0,0.0,0.0,0.0,0.0,0.0,0.0,0.0,0.0,0.0,0.0,0.0,0.0,0.0,0.0,0.0,0.0,0.0,0.0,0.0,0.0,0.0,0.0,0.0,0.0,0.0,0.0,0.0,0.0,0.0,0.0,0.0,0.0,0.0,0.0,0.0,0.0,0.0,0.0,0.0,0.0,0.0,0.0,0.0,0.0,0.0,0.0,0.0,0.0,0.0,0.0,0.0,0.0,0.0,0.0,0.0,0.0,0.0,0.0,0.0,0.0,0.0,0.0,0.0,0.0,0.0,0.0,0.0,0.0,0.0,0.0,0.0,0.0,0.0,0.0,0.0,0.0,0.0,0.0,0.0,0.0,0.0,0.0,0.0,0.0,0.0,0.0,0.0,0.0,-1.2987,-1.2987,-1.3486,-1.345,-1.2745,0.0,0.0,0.0,0.0,0.0,0.0,0.0,0.0,0.0,0.0,0.0,0.0,0.0,0.0,0.0,0.0,0.0,0.0,0.0,0.0,0.0,0.0,0.0,0.0,0.0,0.0,0.0,0.0,0.0,0.0,0.0,0.0,0.0,0.0,0.0,0.0,0.0,0.0,0.0,0.0,0.0,0.0,0.0,0.0,0.0,0.0,0.0,0.0,0.0,0.0,0.0,0.0,0.0,0.0,0.0,0.0,0.0,0.0,0.0,0.0,0.0,0.0,0.0,0.0,0.0,0.0,0.0,0.0,0.0,0.0,0.0,0.0,0.0,0.0,0.0,0.0,0.0,0.0,0.0,0.0,0.0,0.0,0.0,0.0,0.0,0.0,0.0,0.0,0.0,0.0,0.0,0.0,0.0,0.0,0.0,0.0,0.0,0.0,0.0,0.0,0.0,0.0,0.0,0.0,0.0,0.0,0.0,0.0,0.0,-1.1933,-1.2102,-1.2914,-1.4325,-1.2842,-1.2005,0.0,0.0,0.0,0.0,0.0,0.0,0.0,0.0,0.0,0.0,0.0,0.0,0.0,0.0,0.0,0.0,0.0,0.0,0.0,0.0,0.0,0.0,0.0,0.0,0.0,0.0,0.0,0.0,0.0,0.0,0.0,0.0,0.0,0.0,0.0,0.0,0.0,0.0,0.0,0.0,0.0,0.0,0.0,0.0,0.0,0.0,0.0,0.0,0.0,0.0,0.0,0.0,0.0,0.0,0.0,0.0,0.0,0.0,0.0,0.0,0.0,0.0,0.0,0.0,0.0,0.0,0.0,0.0,0.0,0.0,0.0,0.0,0.0,0.0,0.0,0.0,0.0,0.0,0.0,0.0,0.0,0.0,0.0,0.0,0.0,0.0,0.0,0.0,0.0,0.0,0.0,0.0,0.0,0.0,0.0,0.0,0.0,0.0,0.0,0.0,0.0,0.0,0.0,0.0,0.0,0.0,0.0,0.0,0.0,-1.1608,0.0,-1.3179,0.0,-1.2554,-1.1616,0.0,0.0,0.0,0.0,0.0,0.0,0.0,0.0,0.0,0.0,0.0,0.0,0.0,0.0,0.0,0.0,0.0,0.0,0.0,0.0,0.0,0.0,0.0,0.0,0.0,0.0,0.0,0.0,0.0,0.0,0.0,0.0,0.0,0.0,0.0,0.0,0.0,0.0,0.0,0.0,0.0,0.0,0.0,0.0,0.0,0.0,0.0,0.0,0.0,0.0,0.0,0.0,0.0,0.0,0.0,0.0,0.0,0.0,0.0,0.0,0.0,0.0,0.0,0.0,0.0,0.0,0.0,0.0,0.0,0.0,0.0,0.0,0.0,0.0,0.0,0.0,0.0,0.0,0.0,0.0,0.0,0.0,0.0,0.0,0.0,0.0,0.0,0.0,0.0,0.0,0.0,0.0,0.0,0.0,0.0,0.0,0.0,0.0,0.0,0.0,0.0,0.0,0.0,0.0,0.0,0.0,0.0,0.0,-1.0606,-1.2637,-1.3674,-1.3758,-1.2812,-1.2709,-1.1692,0.0,0.0,0.0,0.0,0.0,0.0,0.0,0.0,0.0,0.0,0.0,0.0,0.0,0.0,0.0,0.0,0.0,0.0,0.0,0.0,0.0,0.0,0.0,0.0,0.0,0.0,0.0,0.0,0.0,0.0,0.0,0.0,0.0,0.0,0.0,0.0,0.0,0.0,0.0,0.0,0.0,0.0,0.0,0.0,0.0,0.0,0.0,0.0,0.0,0.0,0.0,0.0,0.0,0.0,0.0,0.0,0.0,0.0,0.0,0.0,0.0,0.0,0.0,0.0,0.0,0.0,0.0,0.0,0.0,0.0,0.0,0.0,0.0,0.0,0.0,0.0,0.0,0.0,0.0,0.0,0.0,0.0,0.0,0.0,0.0,0.0,0.0,0.0,0.0,0.0,0.0,0.0,0.0,0.0,0.0,0.0,0.0,0.0,0.0,0.0,0.0,0.0,0.0,0.0,0.0,0.0,0.0,0.0,0.0,-1.3216,-1.3216,-1.3896,-1.5235,-1.2932,-1.1813,0.0,0.0,0.0,0.0,0.0,0.0,0.0,0.0,0.0,0.0,0.0,0.0,0.0,0.0,0.0,0.0,0.0,0.0,0.0,0.0,0.0,0.0,0.0,0.0,0.0,0.0,0.0,0.0,0.0,0.0,0.0,0.0,0.0,0.0,0.0,0.0,0.0,0.0,0.0,0.0,0.0,0.0,0.0,0.0,0.0,0.0,0.0,0.0,0.0,0.0,0.0,0.0,0.0,0.0,0.0,0.0,0.0,0.0,0.0,0.0,0.0,0.0,0.0,0.0,0.0,0.0,0.0,0.0,0.0,0.0,0.0,0.0,0.0,0.0,0.0,0.0,0.0,0.0,0.0,0.0,0.0,0.0,0.0,0.0,0.0,0.0,0.0,0.0,0.0,0.0,0.0,0.0,0.0,0.0,0.0,0.0,0.0,0.0,0.0,0.0,0.0,0.0,0.0,0.0,0.0,0.0,0.0,0.0,0.0,-1.4907,-1.463,-1.4947,-1.5982,-1.3588,-1.2492,-1.2842,0.0,0.0,0.0,0.0,0.0,0.0,0.0,0.0,0.0,0.0,0.0,0.0,0.0,0.0,0.0,0.0,0.0,0.0,0.0,0.0,0.0,0.0,0.0,0.0,0.0,0.0,0.0,0.0,0.0,0.0,0.0,0.0,0.0,0.0,0.0,0.0,0.0,0.0,0.0,0.0,0.0,0.0,0.0,0.0,0.0,0.0,0.0,0.0,0.0,0.0,0.0,0.0,0.0,0.0,0.0,0.0,0.0,0.0,0.0,0.0,0.0,0.0,0.0,0.0,0.0,0.0,0.0,0.0,0.0,0.0,0.0,0.0,0.0,0.0,0.0,0.0,0.0,0.0,0.0,0.0,0.0,0.0,0.0,0.0,0.0,0.0,0.0,0.0,0.0,0.0,0.0,0.0,0.0,0.0,0.0,0.0,0.0,0.0,0.0,0.0,0.0,0.0,0.0,0.0,0.0,0.0,0.0,0.0,-1.7424,-1.7544,-1.6835,-1.5325,-1.4666,-1.3614,0.0,0.0,0.0,0.0,0.0,0.0,0.0,0.0,0.0,0.0,0.0,0.0,0.0,0.0,0.0,0.0,0.0,0.0,0.0,0.0,0.0,0.0,0.0,0.0,0.0,0.0,0.0,0.0,0.0,0.0,0.0,0.0,0.0,0.0,0.0,0.0,0.0,0.0,0.0,0.0,0.0,0.0,0.0,0.0,0.0,0.0,0.0,0.0,0.0,0.0,0.0,0.0,0.0,0.0,0.0,0.0,0.0,0.0,0.0,0.0,0.0,0.0,0.0,0.0,0.0,0.0,0.0,0.0,0.0,0.0,0.0,0.0,0.0,0.0,0.0,0.0,0.0,0.0,0.0,0.0,0.0,0.0,0.0,0.0,0.0,0.0,0.0,0.0,0.0,0.0,0.0,0.0,0.0,0.0,0.0,0.0,0.0,0.0,0.0,0.0,0.0,0.0,0.0,0.0,0.0,0.0,0.0,0.0,0.0,-1.7953,-1.9155,-1.9203,-1.7965,-1.5922,-1.4445,0.0,0.0,0.0,0.0,0.0,0.0,0.0,0.0,0.0,0.0,0.0,0.0,0.0,0.0,0.0,0.0,0.0,0.0,0.0,0.0,0.0,0.0,0.0,0.0,0.0,0.0,0.0,0.0,0.0,0.0,0.0,0.0,0.0,0.0,0.0,0.0,0.0,0.0,0.0,0.0,0.0,0.0,0.0,0.0,0.0,0.0,0.0,0.0,0.0,0.0,0.0,0.0,0.0,0.0,0.0,0.0,0.0,0.0,0.0,0.0,0.0,0.0,0.0,0.0,0.0,0.0,0.0,0.0,0.0,0.0,0.0,0.0,0.0,0.0,0.0,0.0,0.0,0.0,0.0,0.0,0.0,0.0,0.0,0.0,0.0,0.0,0.0,0.0,0.0,0.0,0.0,0.0,0.0,0.0,0.0,0.0,0.0,0.0,0.0,0.0,0.0,0.0,0.0,0.0,0.0,0.0,0.0,0.0,-1.6919,-1.8506,-2.0089,-2.043,-1.9348,-1.7387,-1.5778,0.0,0.0,0.0,0.0,0.0,0.0,0.0,0.0,0.0,0.0,0.0,0.0,0.0,0.0,0.0,0.0,0.0,0.0,0.0,0.0,0.0,0.0,0.0,0.0,0.0,0.0,0.0,0.0,0.0,0.0,0.0,0.0,0.0,0.0,0.0,0.0,0.0,0.0,0.0,0.0,0.0,0.0,0.0,0.0,0.0,0.0,0.0,0.0,0.0,0.0,0.0,0.0,0.0,0.0,0.0,0.0,0.0,0.0,0.0,0.0,0.0,0.0,0.0,0.0,0.0,0.0,0.0,0.0,0.0,0.0,0.0,0.0,0.0,0.0,0.0,0.0,0.0,0.0,0.0,0.0,0.0,0.0,0.0,0.0,0.0,0.0,0.0,0.0,0.0,0.0,0.0,0.0,0.0,0.0,0.0,0.0,0.0,0.0,0.0,0.0,0.0,0.0,0.0,0.0,0.0,0.0,0.0,0.0,-1.7495,-1.9047,-2.0646,-2.0959,-1.9889,-1.8843,-1.7231,0.0,0.0,0.0,0.0,0.0,0.0,0.0,0.0,0.0,0.0,0.0,0.0,0.0,0.0,0.0,0.0,0.0,0.0,0.0,0.0,0.0,0.0,0.0,0.0,0.0,0.0,0.0,0.0,0.0,0.0,0.0,0.0,0.0,0.0,0.0,0.0,0.0,0.0,0.0,0.0,0.0,0.0,0.0,0.0,0.0,0.0,0.0,0.0,0.0,0.0,0.0,0.0,0.0,0.0,0.0,0.0,0.0,0.0,0.0,0.0,0.0,0.0,0.0,0.0,0.0,0.0,0.0,0.0,0.0,0.0,0.0,0.0,0.0,0.0,0.0,0.0,0.0,0.0,0.0,0.0,0.0,0.0,0.0,0.0,0.0,0.0,0.0,0.0,0.0,0.0,0.0,0.0,0.0,0.0,0.0,0.0,0.0,0.0,0.0,0.0,0.0,0.0,0.0,0.0,0.0,0.0,0.0,0.0,-1.8422,-1.96,-2.1187,-2.1524,-2.0454,-1.9396,-1.764,0.0,0.0,0.0,0.0,0.0,0.0,0.0,0.0,0.0,0.0,0.0,0.0,0.0,0.0,0.0,0.0,0.0,0.0,0.0,0.0,0.0,0.0,0.0,0.0,0.0,0.0,0.0,0.0,0.0,0.0,0.0,0.0,0.0,0.0,0.0,0.0,0.0,0.0,0.0,0.0,0.0,0.0,0.0,0.0,0.0,0.0,0.0,0.0,-1.0858,0.0,0.0,0.0,0.0,0.0,0.0,0.0,0.0,0.0,0.0,0.0,0.0,0.0,0.0,0.0,0.0,0.0,0.0,0.0,0.0,0.0,0.0,0.0,0.0,0.0,0.0,0.0,0.0,0.0,0.0,0.0,0.0,0.0,0.0,0.0,0.0,0.0,0.0,0.0,0.0,0.0,0.0,0.0,0.0,0.0,0.0,0.0,0.0,0.0,0.0,0.0,0.0,0.0,0.0,0.0,0.0,0.0,0.0,0.0,-1.8975,-1.982,-2.1356,-2.1692,-2.0617,-2.0057,-1.836,0.0,0.0,0.0,0.0,0.0,0.0,0.0,0.0,0.0,0.0,0.0,0.0,0.0,0.0,0.0,0.0,0.0,0.0,0.0,0.0,0.0,0.0,0.0,0.0,0.0,0.0,0.0,0.0,0.0,0.0,0.0,0.0,0.0,0.0,0.0,0.0,0.0,0.0,0.0,0.0,0.0,0.0,0.0,0.0,0.0,0.0,0.0,0.0,0.0,0.0,0.0,0.0,0.0,0.0,0.0,0.0,0.0,0.0,0.0,0.0,0.0,0.0,0.0,0.0,0.0,0.0,0.0,0.0,0.0,0.0,0.0,0.0,0.0,0.0,0.0,0.0,0.0,0.0,0.0,0.0,0.0,0.0,0.0,0.0,0.0,0.0,0.0,0.0,0.0,0.0,0.0,0.0,0.0,0.0,0.0,0.0,0.0,0.0,0.0,0.0,0.0,0.0,0.0,0.0,0.0,0.0,0.0,-1.7448,-1.9203,-1.9965,-2.1404,-2.1692,-2.0658,-2.0581,-1.908,-1.5958,0.0,0.0,0.0,0.0,0.0,0.0,0.0,0.0,0.0,0.0,0.0,0.0,0.0,0.0,0.0,0.0,0.0,0.0,0.0,0.0,0.0,0.0,0.0,0.0,0.0,0.0,0.0,0.0,0.0,0.0,0.0,0.0,0.0,0.0,0.0,0.0,0.0,0.0,-1.0426,-1.2196,0.0,0.0,0.0,0.0,0.0,0.0,0.0,0.0,-1.1774,0.0,0.0,0.0,0.0,0.0,0.0,0.0,0.0,0.0,0.0,0.0,0.0,0.0,0.0,0.0,0.0,0.0,0.0,0.0,0.0,0.0,0.0,0.0,0.0,0.0,0.0,0.0,0.0,0.0,0.0,0.0,0.0,0.0,0.0,0.0,0.0,0.0,0.0,0.0,0.0,0.0,0.0,0.0,0.0,0.0,0.0,0.0,0.0,0.0,0.0,0.0,0.0,0.0,0.0,0.0,0.0,-1.6175,-1.7616,-1.9023,-2.0425,-2.1596,-2.1692,-2.067,-2.0581,-1.908,-1.6018,0.0,0.0,0.0,0.0,0.0,0.0,0.0,0.0,0.0,0.0,0.0,0.0,0.0,0.0,0.0,0.0,0.0,0.0,0.0,0.0,0.0,0.0,0.0,0.0,0.0,0.0,0.0,0.0,0.0,0.0,0.0,0.0,0.0,0.0,0.0,0.0,0.0,0.0,0.0,-1.4106,-1.5144,0.0,0.0,0.0,0.0,0.0,0.0,0.0,0.0,-1.1617,0.0,0.0,0.0,0.0,0.0,0.0,0.0,0.0,0.0,0.0,0.0,0.0,0.0,0.0,0.0,0.0,0.0,0.0,0.0,0.0,0.0,0.0,0.0,0.0,0.0,0.0,0.0,0.0,0.0,0.0,0.0,0.0,0.0,0.0,0.0,0.0,0.0,0.0,0.0,0.0,0.0,0.0,0.0,0.0,0.0,0.0,0.0,0.0,0.0,0.0,0.0,0.0,0.0,0.0,0.0,-1.6175,-1.835,-1.9829,-2.061,-2.138,-2.1416,-2.0605,-1.9817,-1.8228,0.0,0.0,0.0,0.0,0.0,0.0,0.0,0.0,0.0,0.0,0.0,0.0,0.0,0.0,0.0,0.0,0.0,0.0,0.0,0.0,0.0,0.0,0.0,0.0,0.0,0.0,0.0,0.0,0.0,0.0,0.0,0.0,0.0,0.0,0.0,0.0,0.0,0.0,0.0,0.0,-1.4961,-1.5831,-1.6199,0.0,0.0,0.0,0.0,0.0,0.0,-1.3319,-1.2658,0.0,0.0,0.0,0.0,0.0,0.0,0.0,0.0,0.0,0.0,0.0,0.0,0.0,0.0,0.0,0.0,0.0,0.0,0.0,0.0,0.0,0.0,0.0,0.0,0.0,0.0,0.0,0.0,0.0,0.0,0.0,0.0,0.0,0.0,0.0,0.0,0.0,0.0,0.0,0.0,0.0,0.0,0.0,0.0,0.0,0.0,0.0,0.0,0.0,0.0,0.0,0.0,0.0,0.0,0.0,-1.5862,-1.8648,-2.0209,-2.0466,-2.0971,-2.0983,-2.0454,-1.9191,-1.7651,0.0,0.0,0.0,0.0,0.0,0.0,0.0,0.0,0.0,0.0,0.0,0.0,0.0,0.0,0.0,0.0,0.0,0.0,0.0,0.0,0.0,0.0,0.0,0.0,0.0,0.0,0.0,0.0,0.0,0.0,0.0,0.0,0.0,0.0,0.0,0.0,0.0,0.0,0.0,0.0,0.0,-1.6533,-1.7295,-1.6452,0.0,0.0,0.0,0.0,-1.4627,-1.4641,0.0,0.0,0.0,0.0,0.0,0.0,0.0,0.0,0.0,0.0,0.0,0.0,0.0,0.0,0.0,0.0,0.0,0.0,0.0,0.0,0.0,0.0,0.0,0.0,0.0,0.0,0.0,0.0,0.0,0.0,0.0,0.0,0.0,0.0,0.0,0.0,0.0,0.0,0.0,0.0,0.0,0.0,0.0,0.0,0.0,0.0,0.0,0.0,0.0,0.0,0.0,0.0,0.0,0.0,0.0,0.0,-1.579,-1.7555,-1.8927,-1.9841,-2.0418,-2.0442,-1.9929,-1.9684,-1.841,0.0,0.0,0.0,0.0,0.0,0.0,0.0,0.0,0.0,0.0,0.0,0.0,0.0,0.0,0.0,0.0,0.0,0.0,0.0,0.0,0.0,0.0,0.0,0.0,0.0,0.0,0.0,0.0,0.0,0.0,0.0,0.0,0.0,0.0,0.0,0.0,0.0,0.0,0.0,0.0,0.0,-1.7843,-1.6948,-1.6171,-1.5887,0.0,0.0,0.0,-1.7,-1.7169,0.0,0.0,0.0,0.0,0.0,0.0,0.0,0.0,0.0,0.0,0.0,0.0,0.0,0.0,0.0,0.0,0.0,0.0,0.0,0.0,0.0,0.0,0.0,0.0,0.0,0.0,0.0,0.0,0.0,0.0,0.0,0.0,0.0,0.0,0.0,0.0,0.0,0.0,0.0,0.0,0.0,0.0,0.0,0.0,0.0,0.0,0.0,0.0,0.0,0.0,0.0,0.0,0.0,0.0,0.0,-1.4341,-1.5804,-1.7989,-1.9324,-1.9796,-2.0009,-2.0021,-1.9808,-1.8614,-1.7388,0.0,0.0,0.0,0.0,0.0,0.0,0.0,0.0,0.0,0.0,0.0,0.0,0.0,0.0,0.0,0.0,0.0,0.0,0.0,0.0,0.0,0.0,0.0,0.0,0.0,0.0,0.0,0.0,0.0,0.0,0.0,0.0,0.0,0.0,0.0,0.0,0.0,0.0,0.0,0.0,0.0,0.0,-1.7782,-1.7754,0.0,0.0,0.0,-1.7473,-1.8021,0.0,0.0,0.0,0.0,0.0,0.0,0.0,0.0,0.0,0.0,0.0,0.0,0.0,0.0,0.0,0.0,0.0,0.0,0.0,0.0,0.0,0.0,0.0,0.0,0.0,0.0,0.0,0.0,0.0,0.0,0.0,0.0,0.0,0.0,0.0,0.0,0.0,0.0,0.0,0.0,0.0,0.0,0.0,0.0,0.0,0.0,0.0,0.0,0.0,0.0,0.0,0.0,0.0,0.0,0.0,0.0,0.0,-1.5838,-1.8301,-1.9603,-1.9588,-1.9615,-1.9588,-1.9579,-1.798,0.0,0.0,0.0,0.0,0.0,0.0,0.0,0.0,0.0,0.0,0.0,0.0,0.0,0.0,0.0,0.0,0.0,0.0,0.0,0.0,0.0,0.0,0.0,0.0,0.0,0.0,0.0,-0.5933,0.0,0.0,0.0,0.0,0.0,0.0,0.0,0.0,0.0,0.0,0.0,0.0,0.0,0.0,-1.8498,-1.8498,-1.8997,-1.9312,0.0,0.0,-1.8919,-1.8736,-1.9009,-1.8386,0.0,0.0,0.0,0.0,0.0,0.0,0.0,0.0,0.0,0.0,0.0,0.0,0.0,0.0,0.0,0.0,0.0,0.0,0.0,0.0,0.0,0.0,0.0,0.0,0.0,0.0,0.0,0.0,0.0,0.0,0.0,0.0,0.0,0.0,0.0,0.0,0.0,0.0,0.0,0.0,0.0,0.0,0.0,0.0,0.0,0.0,0.0,0.0,0.0,0.0,0.0,0.0,0.0,0.0,0.0,-1.5816,-1.7953,-1.9074,-1.9047,-1.9074,-1.9047,-1.9035,-1.8729,-1.7689,0.0,0.0,0.0,0.0,0.0,0.0,0.0,0.0,0.0,0.0,0.0,0.0,0.0,0.0,0.0,0.0,0.0,0.0,0.0,0.0,0.0,0.0,0.0,0.0,0.0,0.0,0.0,0.0,0.0,0.0,0.0,0.0,0.0,0.0,0.0,0.0,0.0,0.0,0.0,0.0,0.0,-1.8498,-1.8498,-1.9031,-1.9621,0.0,0.0,-2.0063,-1.9438,-2.033,-1.9887,-1.6294,0.0,0.0,0.0,0.0,0.0,0.0,0.0,0.0,0.0,0.0,0.0,0.0,0.0,0.0,0.0,0.0,0.0,0.0,0.0,0.0,0.0,0.0,0.0,0.0,0.0,0.0,0.0,0.0,0.0,0.0,0.0,0.0,0.0,0.0,0.0,0.0,0.0,0.0,0.0,0.0,0.0,0.0,0.0,0.0,0.0,0.0,0.0,0.0,0.0,0.0,0.0,0.0,0.0,-1.4898,-1.6151,-1.8302,-1.9486,-1.972,-1.9486,-1.9222,-1.8891,-1.8239,-1.7191,0.0,0.0,0.0,0.0,0.0,0.0,0.0,0.0,0.0,0.0,0.0,0.0,0.0,0.0,0.0,0.0,0.0,0.0,0.0,0.0,0.0,0.0,0.0,0.0,0.0,0.0,0.0,0.0,-0.787,-0.7707,-0.7941,0.0,0.0,0.0,0.0,0.0,0.0,0.0,0.0,0.0,0.0,-1.8624,-1.9017,-1.9922,0.0,0.0,-2.0942,-2.0998,-2.1102,-2.0569,-1.9529,-1.7712,-1.6463,0.0,0.0,0.0,0.0,0.0,0.0,0.0,0.0,0.0,0.0,0.0,0.0,0.0,0.0,0.0,0.0,0.0,0.0,0.0,0.0,0.0,0.0,0.0,0.0,0.0,0.0,0.0,0.0,0.0,0.0,0.0,0.0,0.0,0.0,0.0,0.0,0.0,0.0,0.0,0.0,0.0,0.0,0.0,0.0,0.0,0.0,0.0,0.0,0.0,0.0,0.0,0.0,-1.4939,-1.6216,-1.8351,-1.9565,-1.9811,-1.9682,-1.9353,-1.8868,-1.8277,-1.7296,0.0,0.0,0.0,0.0,0.0,0.0,0.0,0.0,0.0,0.0,0.0,0.0,0.0,0.0,0.0,0.0,0.0,0.0,0.0,0.0,0.0,0.0,0.0,0.0,0.0,0.0,0.0,0.0,-0.8992,-0.8439,-0.8081,0.0,0.0,0.0,0.0,0.0,0.0,0.0,0.0,0.0,0.0,-1.8989,-1.9621,-2.0765,-2.1583,-2.1561,-2.1406,-2.1378,-2.1608,-2.0555,-1.9368,-1.8372,0.0,0.0,0.0,0.0,0.0,0.0,0.0,0.0,0.0,0.0,0.0,0.0,0.0,0.0,0.0,0.0,0.0,0.0,0.0,0.0,0.0,0.0,0.0,0.0,0.0,0.0,0.0,0.0,0.0,0.0,-1.2773,0.0,0.0,0.0,0.0,0.0,0.0,0.0,0.0,0.0,0.0,0.0,0.0,0.0,0.0,0.0,0.0,0.0,0.0,0.0,0.0,0.0,0.0,0.0,-1.5814,-1.7992,-1.9066,-1.9093,-1.9396,-1.9448,-1.9032,-1.9171,-1.8381,-1.6558,0.0,0.0,0.0,0.0,0.0,0.0,0.0,0.0,0.0,0.0,0.0,0.0,0.0,0.0,0.0,0.0,0.0,0.0,0.0,0.0,0.0,0.0,0.0,0.0,0.0,0.0,-1.0024,-0.9636,-0.878,0.0,0.0,0.0,0.0,0.0,0.0,0.0,0.0,0.0,0.0,-1.7819,-1.96,-2.0288,-2.1397,-2.2165,-2.2165,-2.1673,-2.1111,-2.0618,-2.0414,-1.9754,0.0,0.0,0.0,0.0,0.0,0.0,0.0,0.0,0.0,0.0,0.0,0.0,0.0,0.0,0.0,0.0,0.0,0.0,0.0,0.0,0.0,0.0,0.0,0.0,0.0,0.0,0.0,-1.4994,-1.3828,0.0,0.0,0.0,0.0,0.0,0.0,0.0,0.0,0.0,0.0,0.0,-1.6883,-1.7579,0.0,0.0,0.0,0.0,0.0,0.0,0.0,0.0,0.0,0.0,0.0,0.0,-1.5483,-1.694,-1.8815,-2.0067,-2.0585,-2.0459,-2.0165,-1.9681,-1.9218,-1.7892,-1.561,0.0,0.0,0.0,0.0,0.0,0.0,0.0,0.0,0.0,0.0,0.0,0.0,0.0,0.0,0.0,0.0,0.0,0.0,0.0,0.0,0.0,0.0,0.0,0.0,0.0,-0.9729,0.0,0.0,0.0,0.0,0.0,0.0,0.0,0.0,0.0,0.0,0.0,-1.5342,-1.6789,-1.8372,-1.9649,-2.0316,-2.1448,-2.2194,0.0,0.0,0.0,0.0,0.0,0.0,0.0,0.0,0.0,0.0,0.0,0.0,0.0,0.0,-1.7731,-1.5272,-1.4608,-1.4472,-1.4559,0.0,0.0,0.0,0.0,0.0,0.0,0.0,0.0,0.0,0.0,0.0,0.0,0.0,0.0,-1.6962,0.0,-1.5942,0.0,0.0,0.0,0.0,0.0,0.0,0.0,0.0,-1.8012,-1.8518,-1.854,-1.9239,-1.9095,0.0,-1.806,-1.6811,0.0,0.0,0.0,0.0,0.0,0.0,0.0,0.0,-1.5745,-1.72,-1.8892,-2.0042,-2.0535,-2.0459,-2.0153,-1.9656,-1.8958,-1.7761,-1.5957,-1.4535,-1.3622,0.0,0.0,0.0,0.0,0.0,0.0,0.0,0.0,0.0,0.0,0.0,0.0,0.0,0.0,0.0,0.0,0.0,0.0,0.0,0.0,0.0,0.0,0.0,-1.0444,0.0,0.0,0.0,0.0,0.0,0.0,0.0,0.0,0.0,-1.4205,-1.5314,-1.6519,-1.774,-1.9143,-2.021,-2.0639,0.0,0.0,0.0,0.0,0.0,0.0,0.0,-2.0139,-2.0359,-1.9565,-1.8995,-1.9354,-1.9943,-2.0189,-1.9536,0.0,0.0,-1.7366,-1.6895,-1.6955,-1.7156,-1.7936,-1.8623,-1.8796,-1.9278,-1.9697,0.0,0.0,0.0,0.0,0.0,0.0,0.0,0.0,-1.8793,-1.8605,0.0,-1.7736,0.0,0.0,0.0,0.0,0.0,0.0,0.0,0.0,-2.0113,-2.0641,-2.0677,-2.0677,-2.0406,-1.9953,-2.037,-1.9768,-1.8157,-1.5736,0.0,0.0,0.0,0.0,0.0,0.0,-1.5598,-1.6701,-1.8269,-1.904,-1.9093,-1.946,-1.946,-1.9054,-1.8559,-1.8056,-1.759,-1.6648,-1.5359,-1.3612,-1.311,0.0,0.0,0.0,0.0,0.0,0.0,0.0,0.0,0.0,0.0,0.0,0.0,0.0,0.0,0.0,0.0,0.0,0.0,0.0,0.0,-1.0433,0.0,0.0,0.0,0.0,0.0,0.0,0.0,0.0,0.0,0.0,-1.5061,-1.6968,-1.8512,-1.8554,0.0,0.0,0.0,0.0,-2.2194,-2.2194,-2.1752,-2.138,-2.134,-2.1324,-2.1121,-2.0585,0.0,0.0,-1.9719,-2.0049,-2.0323,-1.9655,-2.0384,-2.0998,-2.0961,-2.0338,-2.0162,-2.0744,-2.0935,-2.1306,-2.1831,-2.2242,-2.2826,-2.4525,0.0,0.0,0.0,0.0,-2.1515,-2.1902,-2.2781,-2.232,-2.132,-2.0039,-1.9784,0.0,0.0,0.0,0.0,0.0,0.0,-1.9456,-2.073,-2.1428,-2.2137,-2.2847,-2.2486,-2.2221,-2.2053,-2.1464,-2.0742,-1.9901,-1.8785,-1.6822,-1.4181,0.0,0.0,0.0,0.0,-1.7105,-1.7908,-1.892,-1.9565,-1.9875,-1.9978,-1.9849,-1.9422,-1.9471,-1.898,-1.7847,-1.709,-1.6396,-1.5687,-1.3992,0.0,0.0,0.0,0.0,0.0,0.0,0.0,0.0,0.0,0.0,0.0,0.0,0.0,0.0,0.0,0.0,0.0,0.0,0.0,-1.1083,-1.1153,-1.1392,0.0,0.0,0.0,0.0,0.0,0.0,0.0,0.0,0.0,-1.7417,-1.8035,-1.8835,0.0,0.0,-2.1293,-2.1293,-2.1814,-2.2194,-2.2194,0.0,0.0,0.0,-2.1949,-2.1893,-2.1713,-2.1823,-2.1814,-2.1454,-2.1764,-2.1963,-2.1763,-2.2265,-2.2771,-2.2996,-2.2143,-2.1499,-2.1679,-2.2,-2.2486,-2.3212,-2.3335,-2.3382,-2.7711,-2.549,-2.4061,-2.381,-2.4247,-2.3935,-2.4231,-2.4878,-2.4284,-2.3461,-2.2563,-2.206,-2.1211,-2.0057,-1.9297,0.0,0.0,0.0,-2.1211,-2.2366,-2.271,-2.3192,-2.377,-2.3469,-2.3324,-2.3276,-2.2221,-2.1656,-2.1536,-2.0574,-1.9047,-1.6955,0.0,0.0,-1.5822,-1.705,-1.7922,-1.8324,-1.9004,-1.9474,-1.9708,-1.972,-1.9682,-1.9592,-1.9396,-1.8937,-1.8155,-1.7257,-1.6667,-1.6382,-1.4801,-1.3561,0.0,0.0,0.0,0.0,0.0,0.0,0.0,0.0,0.0,0.0,0.0,-0.827,0.0,0.0,0.0,0.0,-0.963,-1.0745,-1.2574,-1.2433,0.0,0.0,0.0,0.0,0.0,0.0,0.0,-1.7211,-1.818,-1.8939,-1.9515,-1.9613,-1.9894,-2.0661,-2.1279,-2.1645,-2.1645,0.0,-2.2194,-2.2194,-2.2493,-2.2614,-2.2261,-2.2189,-2.2194,-2.2194,-2.2194,-2.2194,-2.2194,-2.2379,-2.2549,-2.2731,-2.3068,-2.348,-2.3861,-2.332,-2.2908,-2.3071,-2.3382,-2.3806,-2.442,-2.4305,-2.4289,-3.0248,-2.9369,-2.7524,-2.6564,-2.6231,-2.6196,-2.6009,-2.5691,-2.5217,-2.5113,-2.5228,-2.4314,-2.3613,-2.3023,-2.2065,0.0,0.0,-2.2871,-2.334,-2.3866,-2.3902,-2.3926,-2.3926,-2.3878,-2.3866,-2.383,-2.283,-2.2578,-2.2883,-2.1512,-2.0526,-1.9977,-1.8999,-1.8193,-1.7616,-1.8109,-1.8374,-1.8338,-1.8855,-1.9134,-1.9059,-1.9064,-1.9186,-1.9464,-1.8714,-1.8339,-1.8395,-1.7242,-1.6456,-1.6175,-1.544,-1.4436,-1.3184,0.0,0.0,0.0,0.0,0.0,0.0,0.0,0.0,0.0,0.0,0.0,0.0,0.0,0.0,0.0,-1.097,0.0,-1.3811,-1.3938,0.0,0.0,0.0,-1.4949,-1.5145,-1.6649,-1.7908,-1.8582,0.0,0.0,0.0,0.0,-2.1372,-2.1364,-2.1856,-2.2194,-2.2194,-2.218,-2.2194,-2.2194,-2.225,-2.2263,-2.2221,-2.2192,-2.2194,-2.2194,-2.2194,-2.2194,-2.2194,-2.2254,-2.2379,-2.2694,-2.3083,-2.3473,-2.3818,-2.4095,-2.4426,-2.4664,-2.4839,-2.5033,-2.5192,-2.5259,-2.5357,-3.1236,-3.0599,-2.9522,-2.8334,-2.7176,-2.7164,-2.7054,-2.6809,-2.67,-2.6142,-2.5288,-2.5047,-2.4434,-2.3613,-2.3725,-2.364,-2.3457,-2.3917,-2.4218,-2.4362,-2.4759,-2.4939,-2.4915,-2.453,-2.4338,-2.4302,-2.3701,-2.3256,-2.2967,-2.2606,-2.2149,-2.1662,-2.1356,-2.0358,-1.8722,-1.9537,-1.9829,-1.9408,-1.9949,-2.0021,-1.9627,-1.9511,-1.9147,-1.8551,-1.8909,-1.8698,-1.7846,-1.6929,-1.6553,-1.6743,-1.5169,-1.4191,-1.4062,-1.2467,0.0,0.0,0.0,0.0,0.0,0.0,0.0,0.0,0.0,-1.0692,-0.9175,0.0,-1.1786,0.0,-1.2869,-1.3614,-1.4499,-1.4177,0.0,0.0,-1.5972,-1.6238,-1.8091,-1.8301,-1.8694,-1.9824,-2.0632,-2.1125,-2.1288,-2.1701,-2.1997,-2.1983,-2.2109,-2.2194,-2.2194,-2.2194,-2.2194,-2.2236,-2.2573,-2.2722,-2.2277,-2.2194,-2.2194,-2.2194,-2.2194,-2.2194,-2.2194,-2.2411,-2.2709,-2.3105,-2.3538,-2.3946,-2.4307,-2.4549,-2.4742,-2.4906,-2.4966,-2.506,-2.5256,-2.5429,-2.5562,-3.1729,-3.1127,-3.0641,-2.9654,-2.8307,-2.814,-2.7966,-2.775,-2.7521,-2.701,-2.6358,-2.5877,-2.5216,-2.4494,-2.4747,-2.4723,-2.4494,-2.4747,-2.4867,-2.4891,-2.5168,-2.5312,-2.53,-2.5011,-2.4879,-2.4855,-2.435,-2.3833,-2.3372,-2.3132,-2.2734,-2.2197,-2.2197,-2.1596,-2.0478,-2.0779,-2.0694,-2.0169,-2.0201,-2.0093,-1.9796,-1.9505,-1.8969,-1.8255,-1.8388,-1.8216,-1.7607,-1.6666,-1.6351,-1.6755,-1.5329,-1.4524,-1.4597,-1.3474,-1.2801,0.0,0.0,0.0,0.0,0.0,0.0,0.0,0.0,0.0,0.0,0.0,-1.2827,0.0,-1.4092,0.0,-1.5946,-1.575,-1.623,-1.7829,-1.7614,-1.7875,-1.9249,-1.9613,-2.0007,-2.0709,-2.1322,-2.1701,-2.1701,-2.1997,-2.2194,-2.2194,-2.2194,-2.2194,-2.2194,-2.2194,-2.2194,-2.2208,-2.2503,-2.2601,-2.225,-2.2194,-2.2194,-2.2194,-2.2194,-2.2194,-2.2194,-2.2495,-2.2807,-2.3216,-2.3625,-2.4046,-2.4385,-2.4564,-2.4722,-2.4882,-2.4985,-2.5103,-2.5275,-2.5448,-2.5597,-3.192,-3.1296,-3.118,-3.0501,-2.9352,-2.9024,-2.8718,-2.8474,-2.7978,-2.7789,-2.7618,-2.6574,-2.5841,-2.5408,-2.5336,-2.5312,-2.5312,-2.5372,-2.5384,-2.5312,-2.5384,-2.5372,-2.5312,-2.5312,-2.5312,-2.5288,-2.4843,-2.4362,-2.3902,-2.3328,-2.2811,-2.2306,-2.2221,-2.2197,-2.2173,-2.174,-2.126,-2.0808,-2.0145,-1.9844,-1.9904,-1.9312,-1.871,-1.8121,-1.7627,-1.7408,-1.7416,-1.6316,-1.595,-1.6448,-1.5634,-1.507,-1.4909,-1.4637,-1.4315,0.0,-1.3738,0.0,0.0,0.0,0.0,0.0,0.0,0.0,0.0,-1.3403,-1.3994,-1.4963,-1.5101,-1.5817,-1.745,-1.7674,-1.7969,-1.8554,-1.9157,-1.9564,-1.9677,-2.0625,-2.1322,-2.1392,-2.1884,-2.2194,-2.218,-2.2194,-2.2194,-2.2194,-2.2194,-2.2194,-2.2194,-2.2194,-2.2194,-2.2194,-2.2194,-2.225,-2.2208,-2.2194,-2.2194,-2.2194,-2.2194,-2.2194,-2.2263,-2.2503,-2.2844,-2.3282,-2.3631,-2.3946,-2.4281,-2.4441,-2.4616,-2.4838,-2.5005,-2.5166,-2.5298,-2.5467,-2.5597,-3.1977,-3.1787,-3.1221,-3.0549,-2.9893,-2.9417,-2.8948,-2.851,-2.8402,-2.8126,-2.7606,-2.6574,-2.6033,-2.5913,-2.5504,-2.5312,-2.5324,-2.5757,-2.5721,-2.5324,-2.5745,-2.5709,-2.5324,-2.5312,-2.5312,-2.5312,-2.5204,-2.4891,-2.4374,-2.3881,-2.3384,-2.2855,-2.2402,-2.2197,-2.2185,0.0,0.0,0.0,-2.0531,-1.9997,-2.0377,-1.9492,-1.853,-1.7604,-1.7447,0.0,-1.6554,-1.5657,-1.5466,-1.605,-1.5576,0.0,0.0,0.0,0.0,0.0,0.0,0.0,0.0,0.0,0.0,0.0,-1.4789,-1.4541,-1.3853,-1.5553,-1.6621,-1.6385,-1.6775,-1.7211,-1.7562,-1.8035,-1.8568,-1.9171,-1.9803,-2.04,-2.0886,-2.1167,-2.1462,-2.1983,-2.2137,-2.2194,-2.2194,-2.2194,-2.2194,-2.2194,-2.2194,-2.2194,-2.2194,-2.2194,-2.2194,-2.2194,-2.2194,-2.2194,-2.2194,-2.2194,-2.2194,-2.2194,-2.2194,-2.2287,-2.2526,-2.264,-2.2957,-2.3545,-2.3855,-2.4094,-2.4467,-2.4661,-2.4762,-2.4993,-2.5139,-2.5278,-2.5375,-2.5505,-2.5597,-3.1849,0.0,-3.146,-3.0807,0.0,-2.9797,-2.9232,-2.851,-2.851,-2.8222,-2.763,-2.6863,-2.6358,-2.6069,-2.554,-2.5444,-2.5709,-2.5973,-2.5961,-2.5721,-2.5973,-2.5829,-2.5312,-2.5312,-2.5312,-2.5312,-2.5312,-2.5035,-2.4506,-2.4013,-2.3529,-2.2979,-2.245,-2.2197,-2.2197,-2.2197,-2.2197,-2.2185,-2.0875,-2.0322,-2.0562,-1.9552,-1.8614,-1.7808,0.0,0.0,0.0,0.0,0.0,0.0,0.0,0.0,0.0,0.0,0.0,-1.5816,-1.5459,-1.5328,-1.551,-1.5396,-1.5534,-1.6006,-1.6414,-1.6269,-1.5358,-1.6424,-1.7155,-1.7173,-1.7688,-1.818,-1.847,-1.9079,-1.9698,-2.0259,-2.0661,-2.1068,-2.1617,-2.1744,-2.1856,-2.2123,-2.2194,-2.2194,-2.2194,-2.2194,-2.2194,-2.2194,-2.2194,-2.2194,-2.2194,-2.2194,-2.2194,-2.2194,-2.2194,-2.2194,-2.2194,-2.2194,-2.2194,-2.2194,-2.2194,-2.2263,-2.2426,-2.2754,-2.315,-2.3501,-2.3861,-2.4219,-2.4385,-2.4564,-2.4686,-2.4918,-2.508,-2.5243,-2.5365,-2.5492,-2.5597,-3.1705,-3.1705,-3.1705,-3.1091,-3.0086,-3.0086,-2.9484,-2.851,0.0,0.0,0.0,-2.7174,-2.6633,-2.6214,-2.5588,-2.554,-2.5973,-2.6154,-2.6142,-2.5961,-2.6154,-2.5913,-2.5324,-2.5312,-2.5312,-2.5312,-2.5312,-2.5095,-2.4616,-2.4095,-2.3589,-2.3144,-2.2498,-2.2197,-2.2197,-2.2197,-2.2197,-2.2149,-2.1151,-2.0581,-2.0557,-1.9552,-1.876,-1.8217,-1.776,-1.7412,-1.7168,-1.6381,-1.5886,-1.5768,-1.5686,-1.567,-1.5774,-1.6244,-1.683,-1.7455,-1.7642,-1.7614,-1.7404,-1.7357,-1.7251,-1.7014,-1.7562,-1.7618,-1.6916,-1.7042,-1.7379,-1.7885,-1.847,-1.9031,-1.9536,-2.0175,-2.0751,-2.1237,-2.14,-2.1659,-2.2109,-2.2194,-2.2165,-2.2194,-2.2194,-2.2194,-2.2194,-2.2194,-2.2194,-2.2194,-2.2194,-2.2194,-2.2194,-2.2194,-2.2194,-2.2194,-2.2194,-2.2194,-2.2194,-2.2194,-2.2194,-2.2194,-2.2194,-2.2217,-2.2356,-2.2791,-2.3194,-2.3414,-2.3867,-2.4198,-2.4338,-2.4482,-2.4616,-2.4793,-2.5001,-2.5208,-2.537,-2.553,-2.5597,-3.1705,-3.1705,-3.1705,-3.1103,-3.0086,-3.0086,-2.9484,-2.8522,-2.851,-2.8474,-2.833,-2.733,-2.6861,-2.6729,-2.5769,-2.5348,-2.548,-2.6357,-2.631,0.0,-2.6382,-2.6274,-2.5336,-2.5312,-2.5312,-2.5312,-2.5312,-2.5264,-2.5107,-2.423,-2.3758,-2.3577,-2.2678,-2.2197,-2.2197,-2.2197,-2.2197,-2.2173,-2.1127,-2.0615,-2.0598,-1.9552,-1.8746,-1.8229,-1.8133,-1.7845,-1.7364,-1.6786,-1.6486,-1.6435,-1.6298,-1.6149,-1.605,-1.6137,-1.6283,-1.6459,-1.6131,-1.6286,-1.7244,-1.715,-1.762,-1.8859,-1.9101,-1.868,-1.7632,-1.8428,-1.9073,-1.9165,-1.9705,-2.0175,-2.0288,-2.0815,-2.1209,-2.1322,-2.1758,-2.2109,-2.2194,-2.2194,-2.2194,-2.2194,-2.2194,-2.2194,-2.2194,-2.2194,-2.2194,-2.2194,-2.2194,-2.2194,-2.2194,-2.2194,-2.2194,-2.2194,-2.2194,-2.2194,-2.2194,-2.2194,-2.2194,-2.2194,-2.2194,-2.2278,-2.2503,-2.2709,-2.3024,-2.3603,-2.3882,-2.4151,-2.44,-2.4641,-2.4769,-2.4928,-2.512,-2.5282,-2.5373,-2.5495,-2.5597,-3.1705,-3.1705,-3.1705,-3.1103,-3.005,-2.9472,-2.8955,-2.8522,-2.851,-2.851,-2.8438,-2.7642,-2.7162,-2.6837,-2.6093,-2.5733,-2.5769,-2.6537,-2.6621,-2.6201,-2.6657,-2.6477,-2.5769,-2.5444,-2.5312,-2.5312,-2.5312,-2.5312,-2.5216,-2.4266,-2.3806,-2.3734,-2.2746,-2.2197,-2.2197,-2.2197,-2.2084,-2.1753,-2.1,-2.0615,-2.0569,-1.9564,-1.8867,-1.8626,-1.8362,-1.8097,-1.7832,-1.7303,-1.6895,-1.6607,-1.6514,-1.6316,-1.5959,-1.612,-1.6242,-1.6382,-1.6481,-1.6817,-1.7474,-1.7999,-1.8726,-1.9824,-1.9929,-1.9719,-1.9178,-1.9607,-1.9929,-1.9957,-2.0512,-2.0886,-2.09,-2.142,-2.1772,-2.1809,-2.2039,-2.2194,-2.2194,-2.2194,-2.2194,-2.2194,-2.2194,-2.2194,-2.2194,-2.2194,-2.2194,-2.2194,-2.2194,-2.2208,-2.2194,-2.2208,-2.2194,-2.2194,-2.2194,-2.2194,-2.2194,-2.2194,-2.2194,-2.2194,-2.2194,-2.2254,-2.2449,-2.2549,-2.2897,-2.3414,-2.3717,-2.403,-2.4416,-2.4544,-2.4733,-2.4949,-2.5088,-2.5227,-2.5387,-2.5513,-2.5597,-3.1705,-3.1705,-3.1705,-3.1103,-3.0001,-2.8955,-2.851,-2.851,-2.851,-2.851,-2.8438,-2.7957,-2.739,-2.6861,-2.6346,-2.6033,-2.6021,-2.6635,-2.6825,-2.6729,-2.6837,-2.6635,-2.6081,-2.5552,-2.5312,-2.5312,-2.5312,-2.5312,-2.5192,-2.4278,-2.3673,-2.3384,-2.2594,-2.2197,-2.2197,-2.2197,-2.1981,-2.1572,-2.0923,-2.0538,-2.0406,-1.948,-1.9013,-1.8989,-1.8602,-1.8386,-1.835,-1.7869,-1.7375,-1.6979,-1.6847,-1.6618,-1.6324,-1.632,-1.6516,-1.6892,-1.7213,-1.7594,-1.8062,-1.8885,-1.9697,-2.0497,-2.0597,-2.0653,-2.0779,-2.0807,-2.0737,-2.0681,-2.1153,-2.1504,-2.1547,-2.1921,-2.2194,-2.2194,-2.2194,-2.2194,-2.2194,-2.2194,-2.2194,-2.2194,-2.2194,-2.2194,-2.2194,-2.2194,-2.2194,-2.2194,-2.2419,-2.2559,-2.2306,-2.2306,-2.239,-2.2236,-2.2194,-2.2194,-2.2194,-2.2194,-2.2194,-2.2194,-2.2194,-2.2194,-2.2263,-2.2434,-2.2777,-2.3194,-2.3523,-2.3903,-2.4359,-2.46,-2.4742,-2.4962,-2.5103,-2.5246,-2.5422,-2.553,-2.5597,-3.1705,-3.1705,-3.1705,-3.1103,-3.0013,-2.8955,-2.851,-2.851,-2.851,-2.851,-2.8462,-2.7957,-2.7402,-2.6861,-2.6358,-2.5877,-2.5516,-2.6429,-2.6645,-2.6273,-2.6657,-2.6597,-2.6105,-2.5564,-2.5312,-2.5312,-2.5312,-2.5312,-2.5252,-2.4278,-2.3312,-2.2438,-2.2234,-2.2197,-2.2197,-2.2197,-2.2161,-2.2089,-2.1127,-2.037,-1.988,-1.9314,-1.9013,-1.9013,-1.8977,-1.8915,-1.8905,-1.841,-1.8109,-1.8025,-1.7592,-1.7436,-1.7565,-1.701,-1.7076,-1.8042,-1.764,-1.7859,-1.9084,-1.9449,-2.0001,-2.0924,-2.1142,-2.1434,-2.1926,-2.1997,-2.1786,-2.1434,-2.1758,-2.2053,-2.2109,-2.2165,-2.2194,-2.2194,-2.2194,-2.2194,-2.2194,-2.2194,-2.2194,-2.2194,-2.2194,-2.2194,-2.2194,-2.2194,-2.2194,-2.2208,-2.2925,-2.3206,-2.2517,-2.2587,-2.2704,-2.2362,-2.2208,-2.2194,-2.2194,-2.2194,-2.2194,-2.2194,-2.2194,-2.2194,-2.2217,-2.2263,-2.2449,-2.3172,-2.3399,-2.3745,-2.4323,-2.4742,-2.4942,-2.5021,-2.5201,-2.5413,-2.5543,-2.5597,-2.5597,-3.1705,-3.1705,-3.1705,-3.1103,-3.0001,-2.8955,-2.851,-2.851,-2.851,-2.851,-2.8486,-2.8282,-2.7729,-2.6898,-2.6645,-2.6129,-2.5408,-2.6405,-2.6777,-2.6622,-2.6789,-2.6765,-2.6526,-2.5697,-2.5312,-2.5312,-2.5312,-2.5312,-2.5131,-2.4266,-2.3264,-2.2294,-2.2197,-2.2197,-2.2197,-2.2197,-2.1915,-2.1277,-2.0827,-2.0189,-1.9396,-1.9095,-1.9013,-1.9013,-1.9013,-1.9013,-1.8975,-1.877,-1.853,-1.8229,-1.8001,-1.7786,-1.7618,-1.7279,-1.7267,-1.7773,-1.7789,-1.8264,-1.9379,-1.9781,-2.0386,-2.1229,-2.1551,-2.1862,-2.2142,-2.2194,-2.2081,-2.1926,-2.2067,-2.2194,-2.2194,-2.2194,-2.2194,-2.2194,-2.2194,-2.2194,-2.2194,-2.2194,-2.2194,-2.2194,-2.2194,-2.2194,-2.2194,-2.2194,-2.2194,-2.2222,-2.2756,-2.2925,-2.2704,-2.2672,-2.263,-2.2662,-2.2437,-2.2208,-2.2194,-2.2194,-2.2194,-2.2194,-2.2194,-2.2194,-2.2217,-2.2388,-2.2686,-2.3209,-2.3436,-2.3782,-2.438,-2.4605,-2.4806,-2.5005,-2.5314,-2.5543,-2.5597,-2.5597,-2.5597,-3.1705,-3.1669,-3.1404,-3.0838,-3.0001,-2.8955,-2.851,-2.851,-2.851,-2.851,-2.851,-2.851,-2.7882,-2.6982,-2.6885,-2.6334,-2.5552,-2.6405,-2.6885,-2.6885,-2.6885,-2.6885,-2.6777,-2.5829,-2.5312,-2.5312,-2.5312,-2.5155,-2.4855,-2.4215,-2.3264,-2.2342,-2.2197,-2.2197,-2.2197,-2.2197,-2.1843,-2.1121,-2.0779,-2.0213,-1.9531,-1.9143,-1.9013,-1.9013,-1.9013,-1.9013,-1.9013,-1.9013,-1.8819,-1.8446,-1.841,-1.8241,-1.7881,-1.7712,-1.7603,-1.7652,-1.8081,-1.8684,-1.948,-1.9923,-2.0446,-2.1064,-2.142,-2.1698,-2.1864,-2.1973,-2.2044,-2.2123,-2.2184,-2.2194,-2.2194,-2.2194,-2.2194,-2.2194,-2.2194,-2.2194,-2.2194,-2.2194,-2.2194,-2.2194,-2.2194,-2.2194,-2.2222,-2.2362,-2.2437,-2.2278,-2.2686,-2.2869,-2.3112,-2.3013,-2.314,-2.3294,-2.2855,-2.2433,-2.225,-2.2194,-2.2194,-2.2194,-2.2194,-2.2194,-2.2194,-2.2411,-2.2649,-2.2949,-2.3399,-2.3824,-2.4213,-2.4441,-2.471,-2.5029,-2.5317,-2.5489,-2.5508,-2.5562,-2.5597,-3.1705,-3.156,-3.0591,-3.0182,-3.0001,-2.8955,-2.851,-2.851,-2.851,-2.851,-2.851,-2.851,-2.7882,-2.6922,-2.6885,-2.6334,-2.5552,-2.6405,-2.6885,-2.6885,-2.6922,-2.6898,-2.6825,-2.5805,-2.5324,-2.5312,-2.5312,-2.4843,-2.4023,-2.3842,-2.3276,-2.227,-2.2209,-2.2197,-2.2197,-2.2197,-2.2161,-2.1885,-2.1067,-2.0538,-2.0362,-1.9468,-1.9013,-1.9013,-1.9013,-1.9013,-1.9013,-1.9013,-1.9001,-1.8965,-1.8927,-1.8929,-1.8881,-1.8422,-1.8169,-1.8205,-1.864,-1.9101,-1.953,-1.9723,-2.0004,-2.0409,-2.066,-2.0871,-2.1253,-2.1361,-2.1578,-2.1973,-2.2067,-2.2123,-2.2184,-2.2184,-2.2194,-2.2208,-2.2222,-2.2236,-2.225,-2.2362,-2.2222,-2.2278,-2.2306,-2.2362,-2.2306,-2.269,-2.2732,-2.2784,-2.3727,-2.4416,-2.3617,-2.412,-2.4345,-2.4022,-2.3502,-2.2859,-2.2362,-2.2194,-2.2194,-2.2194,-2.2194,-2.2194,-2.2194,-2.224,-2.2457,-2.2731,-2.3179,-2.361,-2.4003,-2.4359,-2.471,-2.4989,-2.5185,-2.5355,-2.5451,-2.5524,-2.5578,-3.1705,-3.1609,-3.0573,-3.0086,-2.9965,-2.8955,-2.851,-2.851,-2.851,-2.851,-2.851,-2.851,-2.7882,-2.6885,-2.6885,-2.6297,-2.548,-2.6393,-2.6885,-2.6934,-2.7234,-2.7222,-2.6837,-2.6154,-2.5612,-2.5348,-2.5312,-2.4939,-2.429,-2.3974,-2.3445,-2.2794,-2.2354,-2.2197,-2.2197,-2.2197,-2.2041,-2.1656,-2.0971,-2.0442,-2.0097,-1.9348,-1.9013,-1.9013,-1.9013,-1.9013,-1.9013,-1.9013,-1.9013,-1.9013,-1.9013,-1.9013,-1.9001,-1.8819,-1.871,-1.8722,-1.8891,-1.9066,-1.9212,-1.95,-1.9747,-2.0016,-2.0308,-2.0548,-2.0759,-2.0858,-2.1044,-2.1423,-2.1602,-2.1769,-2.2044,-2.2137,-2.2194,-2.2236,-2.2559,-2.276,-2.2845,-2.3136,-2.3403,-2.3347,-2.3069,-2.2901,-2.3192,-2.3248,-2.3182,-2.3431,-2.4008,-2.4317,-2.4388,-2.4472,-2.4528,-2.4556,-2.4149,-2.3516,-2.2897,-2.2419,-2.2208,-2.2194,-2.2194,-2.2194,-2.2194,-2.2365,-2.2595,-2.264,-2.3024,-2.3326,-2.3711,-2.403,-2.4431,-2.4619,-2.4839,-2.5107,-2.5378,-2.5394,-2.5486,-3.1705,-3.1548,-3.053,-3.0086,-2.9941,-2.8955,-2.851,-2.851,-2.851,-2.851,-2.851,-2.851,-2.7894,-2.7018,-2.6885,-2.6297,-2.5492,-2.6393,-2.6885,-2.6934,-2.7438,-2.739,-2.6885,-2.6358,-2.5829,-2.5384,-2.5312,-2.5035,-2.4472,-2.4047,-2.3529,-2.3011,-2.245,-2.2197,-2.2197,-2.2197,-2.1993,-2.1596,-2.0971,-2.0418,-2.0025,-1.9348,-1.9013,-1.9013,-1.9013,-1.9013,-1.9013,-1.9013,-1.9013,-1.9013,-1.9013,-1.9013,-1.9013,-1.9013,-1.9013,-1.9013,-1.9013,-1.9013,-1.904,-1.9239,-1.9422,-1.9552,-1.9773,-2.0042,-2.0245,-2.0321,-2.0535,-2.0871,-2.1204,-2.1536,-2.1994,-2.2289,-2.2442,-2.255,-2.3051,-2.3417,-2.3435,-2.3811,-2.4047,-2.3923,-2.3459,-2.3459,-2.3867,-2.3445,-2.3463,-2.4019,-2.4258,-2.4585,-2.4838,-2.4894,-2.4781,-2.5147,-2.4767,-2.4303,-2.3825,-2.3417,-2.2587,-2.2433,-2.2278,-2.225,-2.2217,-2.2434,-2.2572,-2.264,-2.2799,-2.3098,-2.3385,-2.3711,-2.3937,-2.4095,-2.4338,-2.4594,-2.4895,-2.5224,-2.5432,-3.1705,-3.156,-3.0561,-3.0086,-2.9941,-2.8955,-2.851,-2.851,-2.851,-2.851,-2.851,-2.851,-2.7882,-2.7054,-2.6885,-2.6297,-2.5636,-2.6405,-2.6885,-2.6934,-2.7486,-2.7426,-2.6885,-2.643,-2.5865,-2.5324,-2.5312,-2.5047,-2.4556,-2.4049,-2.3541,-2.3035,-2.2462,-2.2197,-2.2197,-2.2197,-2.2185,-2.1921,-2.1139,-2.0586,-2.047,-1.9528,-1.9013,-1.9013,-1.9013,-1.9013,-1.9013,-1.9013,-1.9013,-1.9013,-1.9013,-1.9013,-1.9013,-1.9013,-1.9013,-1.9013,-1.9013,-1.9013,-1.9013,-1.904,-1.9066,-1.9093,-1.9066,-1.9303,-1.9604,-1.9721,-1.9978,-2.0462,-2.0966,-2.1522,-2.2222,-2.2774,-2.3045,-2.3129,-2.3684,-2.4064,-2.4106,-2.412,-2.416,-2.4149,-2.3741,-2.3463,-2.3811,-2.3741,-2.3674,-2.4247,-2.4697,-2.5035,-2.5175,-2.5388,-2.5767,-2.5725,-2.5386,-2.4882,-2.4711,-2.4444,-2.3459,-2.2686,-2.2489,-2.2362,-2.2236,-2.2333,-2.2319,-2.2388,-2.2503,-2.2768,-2.2963,-2.326,-2.3377,-2.358,-2.3809,-2.43,-2.4823,-2.5262,-2.5548,-3.1705,-3.1573,-3.0561,-3.0086,-2.9953,-2.8955,-2.851,-2.851,-2.851,-2.851,-2.851,-2.851,-2.7921,-2.7078,-2.6885,-2.6309,-2.5444,-2.6369,-2.6885,-2.703,-2.7825,-2.7726,-2.6982,-2.6705,-2.619,-2.5444,-2.5312,-2.524,-2.4927,-2.4227,-2.371,-2.3433,-2.263,-2.2221,-2.2197,-2.2197,-2.2197,-2.2065,-2.1151,-2.061,-2.0514,-1.9552,-1.9025,-1.9013,-1.9013,-1.9013,-1.9013,-1.9013,-1.9013,-1.9013,-1.9013,-1.9013,-1.9013,-1.9013,-1.9013,-1.9013,-1.9013,-1.9013,-1.9013,-1.9013,-1.9013,-1.9013,-1.9013,-1.904,-1.9172,-1.9263,-1.9633,-2.0314,-2.094,-2.1653,-2.2613,-2.3637,-2.4012,-2.3814,-2.4345,-2.4711,-2.4767,-2.5063,-2.5289,-2.5274,-2.481,-2.4753,-2.5022,-2.4727,-2.457,-2.5119,-2.5444,-2.557,-2.5653,-2.5725,-2.5879,-2.5878,-2.5598,-2.5402,-2.5121,-2.4894,-2.4331,-2.3502,-2.3108,-2.2798,-2.2587,-2.2475,-2.2419,-2.2428,-2.2503,-2.2605,-2.2761,-2.2927,-2.3196,-2.3428,-2.3867,-2.4427,-2.5043,-2.5446,-2.5759,-3.1597,-3.1332,-3.0489,-2.9965,-2.9713,-2.8847,-2.851,-2.851,-2.851,-2.851,-2.851,-2.851,-2.7921,-2.7054,-2.6885,-2.6285,-2.5468,-2.6201,-2.6622,-2.6753,-2.7729,-2.7678,-2.6885,-2.6441,-2.5997,-2.5444,-2.5312,-2.5312,-2.5264,-2.4482,-2.3998,-2.3685,-2.2939,-2.2378,-2.2221,-2.2197,-2.2197,-2.2065,-2.1356,-2.0774,-2.0478,-1.9744,-1.9218,-1.9062,-1.9013,-1.9013,-1.9013,-1.9013,-1.9013,-1.9013,-1.9013,-1.9013,-1.9013,-1.9013,-1.9013,-1.9013,-1.9013,-1.9013,-1.9013,-1.9013,-1.9013,-1.9013,-1.9013,-1.9013,-1.9062,-1.9119,-1.9672,-2.0337,-2.1111,-2.2021,-2.3178,-2.412,-2.4643,-2.4797,-2.5105,-2.533,-2.5374,-2.5655,-2.5837,-2.5738,-2.5303,-2.5374,-2.5584,-2.5414,-2.5288,-2.5739,-2.5893,-2.5893,-2.5893,-2.5879,-2.5893,-2.5893,-2.5823,-2.5626,-2.5416,-2.526,-2.5091,-2.4472,-2.3853,-2.353,-2.3248,-2.322,-2.3192,-2.3206,-2.3265,-2.3332,-2.3463,-2.3426,-2.3598,-2.3829,-2.3964,-2.4387,-2.4918,-2.5656,-2.6056,-3.1368,-3.0874,-3.0278,-2.9749,-2.9292,-2.8739,-2.851,-2.851,-2.851,-2.851,-2.851,-2.851,-2.7882,-2.7066,-2.6885,-2.6346,-2.5564,-2.5889,-2.6178,-2.6406,-2.7067,-2.721,-2.6705,-2.5913,-2.5444,-2.5336,-2.5312,-2.5312,-2.5288,-2.4688,-2.4266,-2.377,-2.3228,-2.269,-2.2294,-2.2197,-2.2197,-2.2113,-2.1632,-2.1086,-2.0634,-2.0045,-1.9531,-1.9062,-1.9013,-1.9013,-1.9013,-1.9013,-1.9013,-1.9013,-1.9013,-1.9013,-1.9013,-1.9013,-1.9013,-1.9013,-1.9013,-1.9013,-1.9013,-1.9013,-1.9013,-1.9013,-1.9013,-1.9049,-1.9131,-1.9495,-2.0013,-2.0712,-2.1502,-2.2553,-2.3728,-2.449,-2.5062,-2.5726,-2.5753,-2.5822,-2.5865,-2.5879,-2.5893,-2.5809,-2.543,-2.5247,-2.5823,-2.5428,-2.5458,-2.5711,-2.5893,-2.5893,-2.5893,-2.5893,-2.5893,-2.5893,-2.5893,-2.5823,-2.5612,-2.5584,-2.5456,-2.5203,-2.4601,-2.4261,-2.3853,-2.3769,-2.3741,-2.3797,-2.3923,-2.4008,-2.3977,-2.3879,-2.3862,-2.3985,-2.4169,-2.4369,-2.497,-2.58,-2.6551,-3.1043,-3.0826,-2.9893,-2.9424,-2.9232,-2.8727,-2.851,-2.851,-2.851,-2.851,-2.851,-2.851,-2.787,-2.6958,-2.6873,-2.6309,-2.5648,-2.5829,-2.6093,-2.6129,-2.6334,-2.6466,-2.6238,-2.5661,-2.5312,-2.5312,-2.5312,-2.5312,-2.5264,-2.4807,-2.429,-2.3794,-2.33,-2.2758,-2.227,-2.2197,-2.2197,-2.2125,-2.168,-2.1163,-2.0646,-2.0093,-1.9555,-1.9086,-1.9025,-1.9025,-1.9013,-1.9013,-1.9013,-1.9013,-1.9013,-1.9013,-1.9013,-1.9013,-1.9013,-1.9013,-1.9013,-1.9013,-1.9013,-1.9013,-1.9013,-1.9013,-1.9062,-1.9155,-1.9567,-1.9724,-2.0406,-2.1425,-2.2349,-2.3184,-2.4333,-2.5039,-2.5562,-2.581,-2.5893,-2.5893,-2.5893,-2.5893,-2.5893,-2.5865,-2.5725,-2.5753,-2.5767,-2.5767,-2.5683,-2.5837,-2.5893,-2.5893,-2.5893,-2.5893,-2.5893,-2.5893,-2.5893,-2.5893,-2.5865,-2.5865,-2.5823,-2.5739,-2.5359,-2.5006,-2.4514,-2.4106,-2.4064,-2.4061,-2.4303,-2.443,-2.4219,-2.4058,-2.4118,-2.4359,-2.4566,-2.4918,-2.5488,-2.6238,-2.7043,-3.0627,-3.017,-2.9544,-2.9172,-2.8943,-2.8643,-2.851,-2.851,-2.851,-2.851,-2.8474,-2.827,-2.7678,-2.6922,-2.6645,-2.6117,-2.5432,-2.5624,-2.5745,-2.5757,-2.5781,-2.5781,-2.5685,-2.5408,-2.5312,-2.5312,-2.5312,-2.5312,-2.5264,-2.4987,-2.4482,-2.389,-2.3505,-2.2963,-2.2221,-2.2197,-2.2197,-2.2137,-2.1861,-2.1476,-2.0959,-2.0418,-1.9877,-1.9411,-1.9143,-1.9013,-1.9013,-1.9013,-1.9013,-1.9013,-1.9013,-1.9013,-1.9013,-1.9013,-1.9013,-1.9013,-1.9013,-1.9013,-1.9013,-1.9013,-1.9013,-1.9074,-1.9155,-1.9483,-1.9832,-2.0169,-2.1058,-2.2207,-2.2952,-2.3837,-2.4827,-2.5508,-2.5784,-2.5893,-2.5893,-2.5893,-2.5893,-2.5893,-2.5893,-2.5893,-2.5893,-2.5893,-2.5893,-2.5893,-2.5893,-2.5893,-2.5893,-2.5893,-2.5893,-2.5893,-2.5893,-2.5893,-2.5893,-2.5893,-2.5893,-2.5893,-2.5893,-2.5851,-2.5781,-2.5485,-2.5189,-2.4669,-2.4781,-2.481,-2.4838,-2.481,-2.4711,-2.4711,-2.4978,-2.5203,-2.5289,-2.545,-2.5921,-2.6326,-2.7179,-3.0212,-2.9304,-2.9232,-2.8943,-2.857,-2.851,-2.851,-2.851,-2.851,-2.8462,-2.8318,-2.7921,-2.7438,-2.6861,-2.643,-2.5865,-2.542,-2.542,-2.536,-2.5384,-2.5384,-2.5384,-2.5396,-2.536,-2.5312,-2.5312,-2.5312,-2.5312,-2.53,-2.5276,-2.4771,-2.4085,-2.3842,-2.3252,-2.251,-2.2258,-2.2197,-2.2197,-2.2149,-2.1825,-2.1308,-2.0779,-2.0237,-1.9736,-1.9203,-1.9037,-1.9013,-1.9013,-1.9013,-1.9013,-1.9013,-1.9013,-1.9013,-1.9013,-1.9013,-1.9013,-1.9013,-1.9013,-1.9013,-1.9013,-1.9086,-1.9167,-1.9555,-1.9904,-2.0153,-2.082,-2.168,-2.2796,-2.347,-2.4286,-2.5272,-2.5771,-2.588,-2.5893,-2.5893,-2.5893,-2.5893,-2.5893,-2.5893,-2.5893,-2.5893,-2.5893,-2.5893,-2.5893,-2.5893,-2.5893,-2.5893,-2.5893,-2.5893,-2.5893,-2.5893,-2.5893,-2.5893,-2.5893,-2.5893,-2.5893,-2.5893,-2.5879,-2.5879,-2.5766,-2.5752,-2.5527,-2.571,-2.5738,-2.5456,-2.5442,-2.5569,-2.5655,-2.5725,-2.5711,-2.5612,-2.5779,-2.6027,-2.6354,-2.6993,-2.9508,-2.9268,-2.8807,-2.8607,-2.8522,-2.851,-2.851,-2.851,-2.8498,-2.8258,-2.7933,-2.7753,-2.7366,-2.6837,-2.6346,-2.6009,-2.5793,-2.5492,-2.5312,-2.5312,-2.5312,-2.5312,-2.5324,-2.5324,-2.5312,-2.5312,-2.5312,-2.5312,-2.5312,-2.5264,-2.4999,-2.4398,-2.3926,-2.3481,-2.2879,-2.2366,-2.2197,-2.2197,-2.2197,-2.1945,-2.1464,-2.0935,-2.0382,-1.9832,-1.9275,-1.9049,-1.9013,-1.9013,-1.9013,-1.9013,-1.9013,-1.9013,-1.9013,-1.9013,-1.9013,-1.9037,-1.9037,-1.9037,-1.9037,-1.911,-1.9191,-1.9588,-1.9817,-2.0169,-2.1007,-2.1211,-2.2075,-2.3094,-2.3794,-2.4467,-2.5564,-2.5853,-2.5893,-2.5893,-2.5893,-2.5893,-2.5893,-2.5893,-2.5893,-2.5893,-2.5893,-2.5893,-2.5893,-2.5893,-2.5893,-2.5893,-2.5893,-2.5893,-2.5893,-2.5893,-2.5893,-2.5893,-2.5893,-2.5893,-2.5893,-2.5893,-2.5893,-2.5893,-2.5893,-2.5893,-2.5893,-2.5893,-2.5893,-2.5893,-2.5878,-2.5893,-2.5893,-2.5893,-2.5823,-2.5865,-2.5921,-2.5988,-2.6123,-2.6418,-2.6774,-2.916,-2.8907,-2.8631,-2.851,-2.851,-2.851,-2.851,-2.845,-2.8234,-2.7981,-2.7666,-2.7438,-2.7006,-2.655,-2.6226,-2.5985,-2.5709,-2.5468,-2.5456,-2.5552,-2.548,-2.5444,-2.5576,-2.5432,-2.5312,-2.5312,-2.5312,-2.5312,-2.5312,-2.5276,-2.5035,-2.4484,-2.4059,-2.3496,-2.3011,-2.2462,-2.2221,-2.2197,-2.2185,-2.2041,-2.1728,-2.1247,-2.0538,-1.988,-1.9326,-1.9013,-1.9013,-1.9013,-1.9013,-1.9025,-1.9037,-1.9025,-1.9025,-1.9025,-1.9013,-1.9011,-1.9263,-1.9363,-1.9411,-1.9624,-1.9889,-2.0141,-2.037,-2.0815,-2.1344,-2.1596,-2.2183,-2.3067,-2.3712,-2.441,-2.5633,-2.5866,-2.5893,-2.5893,-2.5893,-2.5893,-2.5893,-2.5893,-2.5893,-2.5893,-2.5893,-2.5893,-2.5893,-2.5893,-2.5893,-2.5893,-2.5893,-2.5893,-2.5893,-2.5893,-2.5893,-2.5893,-2.5893,-2.5893,-2.5893,-2.5893,-2.5893,-2.5893,-2.5893,-2.5893,-2.5893,-2.5893,-2.5893,-2.5893,-2.5893,-2.5893,-2.5893,-2.5893,-2.5893,-2.5893,-2.5948,-2.6042,-2.6163,-2.6351,-2.6759,-2.8919,-2.851,-2.851,-2.851,-2.851,-2.851,-2.851,-2.8438,-2.7918,-2.7654,-2.7498,-2.7078,-2.6717,-2.6322,-2.6154,-2.5793,-2.5444,-2.5336,-2.5492,-2.5709,-2.5468,-2.5516,-2.5673,-2.548,-2.5312,-2.5312,-2.5312,-2.5312,-2.5312,-2.5288,-2.5107,-2.4626,-2.4025,-2.3625,-2.3132,-2.2498,-2.2197,-2.2197,-2.2185,-2.2173,-2.2053,-2.1608,-2.0863,-2.0093,-1.948,-1.9338,-1.9336,-1.9287,-1.9218,-1.9227,-1.9239,-1.9239,-1.9203,-1.9023,-1.9086,-1.9119,-1.9516,-1.9688,-1.9808,-2.0189,-2.055,-2.0706,-2.1079,-2.1404,-2.1608,-2.1915,-2.2372,-2.2877,-2.3518,-2.4266,-2.5384,-2.5591,-2.5729,-2.5839,-2.5893,-2.5893,-2.5893,-2.5893,-2.5893,-2.5893,-2.5893,-2.5893,-2.5893,-2.5893,-2.5893,-2.5893,-2.5893,-2.5893,-2.5893,-2.5893,-2.5893,-2.5893,-2.5893,-2.5893,-2.5893,-2.5893,-2.5893,-2.5893,-2.5893,-2.5893,-2.5893,-2.5893,-2.5893,-2.5893,-2.5893,-2.5893,-2.5893,-2.5893,-2.5893,-2.5893,-2.5948,-2.6015,-2.6136,-2.6297,-2.6745,-2.8595,-2.851,-2.851,-2.851,-2.851,-2.851,-2.8498,-2.8426,-2.7933,-2.7426,-2.7066,-2.6934,-2.6873,-2.6621,-2.6274,-2.5817,-2.5432,-2.5324,-2.5372,-2.5492,-2.5348,-2.5444,-2.5444,-2.5408,-2.5312,-2.5312,-2.5312,-2.5312,-2.5312,-2.53,-2.5192,-2.4975,-2.4251,-2.3697,-2.3384,-2.2751,-2.2197,-2.2197,-2.2197,-2.2197,-2.2077,-2.1668,-2.1163,-2.0466,-1.9949,-1.9889,-2.0081,-1.9901,-1.9865,-2.0273,-2.0334,-2.0281,-2.0129,-1.954,-1.9375,-1.9627,-1.9856,-2.0013,-2.0073,-2.0382,-2.0827,-2.1151,-2.1404,-2.1668,-2.1933,-2.2156,-2.242,-2.2866,-2.3442,-2.4092,-2.4766,-2.5132,-2.5397,-2.5605,-2.5825,-2.5893,-2.5893,-2.5893,-2.5893,-2.5893,-2.5893,-2.5893,-2.5893,-2.5893,-2.5893,-2.5893,-2.5893,-2.5893,-2.5893,-2.5893,-2.5893,-2.5893,-2.5893,-2.5893,-2.5893,-2.5893,-2.5893,-2.5893,-2.5893,-2.5893,-2.5893,-2.5893,-2.5893,-2.5893,-2.5893,-2.5893,-2.5893,-2.5893,-2.5893,-2.5893,-2.5948,-2.5988,-2.615,-2.6324,-2.6774,-2.851,-2.851,-2.851,-2.851,-2.851,-2.851,-2.8354,-2.8077,-2.7825,-2.7378,-2.7102,-2.7138,-2.6995,-2.6635,-2.661,-2.6105,-2.548,-2.5312,-2.5312,-2.5312,-2.5312,-2.5312,-2.5312,-2.5312,-2.5312,-2.5312,-2.5312,-2.5312,-2.5312,-2.5312,-2.53,-2.5071,-2.4324,-2.3806,-2.3565,-2.2727,-2.2282,-2.2197,-2.2197,-2.2197,-2.2149,-2.1692,-2.126,-2.0971,-2.0538,-2.0394,-2.0437,-2.0406,-2.0322,-2.0538,-2.0569,-2.0737,-2.0706,-2.0406,-1.9937,-2.0242,-2.0442,-2.0598,-2.0682,-2.1115,-2.1572,-2.1753,-2.1789,-2.1836,-2.2009,-2.2154,-2.2402,-2.2836,-2.316,-2.3771,-2.4538,-2.4821,-2.523,-2.5591,-2.5811,-2.5893,-2.5893,-2.5893,-2.5893,-2.5893,-2.5893,-2.5893,-2.5893,-2.5893,-2.5893,-2.5893,-2.5893,-2.5893,-2.5893,-2.5893,-2.5893,-2.5893,-2.5893,-2.5893,-2.5893,-2.5893,-2.5893,-2.5893,-2.5893,-2.5893,-2.5893,-2.5893,-2.5893,-2.5893,-2.5893,-2.5893,-2.5893,-2.5893,-2.5893,-2.5893,-2.5921,-2.6002,-2.615,-2.6418,-2.6747,-2.851,-2.851,-2.851,-2.845,-2.8366,-2.8354,-2.8041,-2.7582,-2.7378,-2.7115,-2.6837,-2.7078,-2.6851,-2.6394,-2.6382,-2.6214,-2.5348,-2.5312,-2.5312,-2.5312,-2.5312,-2.5312,-2.5312,-2.5312,-2.5312,-2.5312,-2.5312,-2.5312,-2.5312,-2.5312,-2.5252,-2.4891,-2.4169,-2.371,-2.3421,-2.263,-2.2306,-2.2197,-2.2197,-2.2197,-2.2077,-2.1801,-2.156,-2.1512,-2.1055,-2.0798,-2.1031,-2.0839,-2.0875,-2.0983,-2.1055,-2.1151,-2.1416,-2.1163,-2.0935,-2.0983,-2.126,-2.1368,-2.1488,-2.1813,-2.2041,-2.2101,-2.2161,-2.2092,-2.2049,-2.2154,-2.234,-2.2696,-2.2854,-2.3297,-2.4105,-2.458,-2.5048,-2.555,-2.5798,-2.5893,-2.5893,-2.5893,-2.5893,-2.5893,-2.5893,-2.5893,-2.5907,-2.5893,-2.5893,-2.5893,-2.5893,-2.5893,-2.5893,-2.5893,-2.5893,-2.5893,-2.5893,-2.5893,-2.5893,-2.5893,-2.5893,-2.5893,-2.5893,-2.5893,-2.5893,-2.5893,-2.5893,-2.5893,-2.5893,-2.5893,-2.5893,-2.5893,-2.5893,-2.5893,-2.5893,-2.5948,-2.6056,-2.6177,-2.6404,-2.851,-2.851,-2.8498,-2.8246,-2.781,-2.7774,-2.7474,-2.697,-2.6586,-2.6262,-2.6286,-2.631,-2.6334,-2.6154,-2.6117,-2.5841,-2.5456,-2.5312,-2.5312,-2.5312,-2.5312,-2.5312,-2.5312,-2.5312,-2.5312,-2.5312,-2.5312,-2.5312,-2.5312,-2.5312,-2.5083,-2.4662,-2.4157,-2.3625,-2.3276,-2.259,-2.2221,-2.2197,-2.2197,-2.2197,-2.2185,-2.2101,-2.2065,-2.1921,-2.1644,-2.1464,-2.1704,-2.1512,-2.1464,-2.1849,-2.1933,-2.2017,-2.2089,-2.2096,-2.2005,-2.1873,-2.168,-2.1416,-2.1536,-2.1909,-2.2197,-2.2197,-2.2197,-2.2197,-2.2154,-2.2123,-2.2216,-2.2216,-2.2359,-2.2823,-2.3666,-2.4034,-2.4595,-2.5313,-2.5869,-2.6006,-2.6034,-2.6427,-2.6371,-2.609,-2.6146,-2.5992,-2.5907,-2.5907,-2.5893,-2.5893,-2.5893,-2.5893,-2.5893,-2.5893,-2.5893,-2.5893,-2.5893,-2.5893,-2.5893,-2.5893,-2.5893,-2.5893,-2.5893,-2.5893,-2.5893,-2.5893,-2.5893,-2.5893,-2.5893,-2.5893,-2.5893,-2.5893,-2.5893,-2.5893,-2.5893,-2.5893,-2.5921,-2.6056,-2.6177,-2.7789,-2.8053,-2.8065,-2.7753,-2.7258,-2.7234,-2.6934,-2.655,-2.6538,-2.6394,-2.6214,-2.6454,-2.6406,-2.6093,-2.5817,-2.554,-2.5348,-2.5312,-2.5312,-2.5312,-2.5312,-2.5312,-2.5312,-2.5312,-2.5312,-2.5312,-2.5312,-2.5312,-2.5312,-2.53,-2.5143,-2.4867,-2.4227,-2.3746,-2.3288,-2.2614,-2.2282,-2.2197,-2.2197,-2.2197,-2.2197,-2.2197,-2.2197,-2.2185,-2.1945,-2.1993,-2.2053,-2.2029,-2.1933,-2.2185,-2.2197,-2.2197,-2.2185,-2.2185,-2.2173,-2.2161,-2.1993,-2.1873,-2.1897,-2.2077,-2.2161,-2.2197,-2.2197,-2.2197,-2.2197,-2.2123,-2.2104,-2.2197,-2.2463,-2.2909,-2.3543,-2.4092,-2.4951,-2.5671,-2.626,-2.6596,-2.675,-2.6933,-2.7032,-2.668,-2.6385,-2.6273,-2.6118,-2.602,-2.5978,-2.5893,-2.5893,-2.5893,-2.5893,-2.5893,-2.5893,-2.5893,-2.5893,-2.5893,-2.5893,-2.5893,-2.5893,-2.5893,-2.5893,-2.5893,-2.5893,-2.5893,-2.5893,-2.5893,-2.5893,-2.5893,-2.5893,-2.5893,-2.5893,-2.5893,-2.5893,-2.5893,-2.5921,-2.5948,-2.6163,-2.7042,-2.7332,-2.7426,-2.7186,-2.6705,-2.6681,-2.6406,-2.5985,-2.6298,-2.625,-2.6093,-2.6274,-2.6189,-2.5925,-2.5516,-2.5348,-2.5324,-2.5312,-2.5312,-2.5312,-2.5312,-2.5312,-2.5312,-2.5312,-2.5312,-2.5312,-2.5312,-2.5312,-2.5312,-2.5288,-2.524,-2.5095,-2.4386,-2.3854,-2.3433,-2.2891,-2.2402,-2.2197,-2.2197,-2.2197,-2.2197,-2.2197,-2.2197,-2.2197,-2.2197,-2.2197,-2.2197,-2.2173,-2.2173,-2.2185,-2.2197,-2.2197,-2.2197,-2.2197,-2.2197,-2.2185,-2.2113,-2.2125,-2.2125,-2.2173,-2.2197,-2.2197,-2.2197,-2.2197,-2.2197,-2.2061,-2.203,-2.2197,-2.2414,-2.3001,-2.3739,-2.4413,-2.5343,-2.6162,-2.6916,-2.731,-2.7651,-2.7636,-2.7552,-2.7285,-2.6961,-2.668,-2.6497,-2.6259,-2.609,-2.5936,-2.5893,-2.5893,-2.5921,-2.5936,-2.5893,-2.5893,-2.5893,-2.5893,-2.5893,-2.5893,-2.5893,-2.5893,-2.5893,-2.5893,-2.5893,-2.5893,-2.5893,-2.5893,-2.5893,-2.5893,-2.5893,-2.5893,-2.5893,-2.5893,-2.5893,-2.5893,-2.5921,-2.5948,-2.6324,-2.6647,-2.625,-2.6729,-2.6621,-2.6166,-2.6154,-2.5853,-2.5444,-2.5468,-2.5492,-2.5456,-2.5456,-2.5528,-2.5396,-2.5396,-2.5312,-2.5312,-2.5312,-2.5312,-2.5312,-2.5312,-2.5312,-2.5312,-2.5312,-2.5312,-2.5312,-2.5312,-2.5312,-2.5312,-2.5312,-2.5023,-2.4556,-2.447,-2.3857,-2.3328,-2.2927,-2.2498,-2.2282,-2.2197,-2.2197,-2.2197,-2.2197,-2.2197,-2.2197,-2.2197,-2.2197,-2.2197,-2.2197,-2.2197,-2.2197,-2.2197,-2.2197,-2.2197,-2.2197,-2.2197,-2.2197,-2.2197,-2.2197,-2.2197,-2.2197,-2.2197,-2.2197,-2.2197,-2.2197,-2.2197,-2.2197,-2.2197,-2.2301,-2.2559,-2.3146,-2.3992,-2.4892,-2.5778,-2.6647,-2.7381,-2.7828,-2.8085,-2.8101,-2.8002,-2.7819,-2.7594,-2.7326,-2.7031,-2.6821,-2.6231,-2.6034,-2.5921,-2.5921,-2.6006,-2.602,-2.5936,-2.5893,-2.5893,-2.5893,-2.5893,-2.5893,-2.5893,-2.5893,-2.5893,-2.5893,-2.5893,-2.5893,-2.5893,-2.5893,-2.5893,-2.5893,-2.5893,-2.5893,-2.5893,-2.5893,-2.5893,-2.5893,-2.5975,-2.6029,-2.6602,-2.5805,-2.5648,-2.5853,-2.5781,-2.56,-2.56,-2.5492,-2.5336,-2.5312,-2.5312,-2.5312,-2.5312,-2.5312,-2.5312,-2.5312,-2.5312,-2.5312,-2.5312,-2.5312,-2.5312,-2.5312,-2.5312,-2.5312,-2.5312,-2.5312,-2.5312,-2.5312,-2.5312,-2.5312,-2.5312,-2.524,-2.4952,-2.4676,-2.4145,-2.3568,-2.2859,-2.2426,-2.2306,-2.2197,-2.2197,-2.2197,-2.2197,-2.2197,-2.2197,-2.2197,-2.2197,-2.2197,-2.2197,-2.2197,-2.2197,-2.2197,-2.2197,-2.2197,-2.2197,-2.2197,-2.2197,-2.2197,-2.2197,-2.2197,-2.2197,-2.2197,-2.2197,-2.2197,-2.2209,-2.2234,-2.2209,-2.2414,-2.2597,-2.2931,-2.356,-2.428,-2.5255,-2.6195,-2.7138,-2.7823,-2.8326,-2.8561,-2.8605,-2.8535,-2.8394,-2.824,-2.8057,-2.7748,-2.7454,-2.6736,-2.6118,-2.602,-2.6006,-2.6202,-2.6217,-2.616,-2.6048,-2.6034,-2.6006,-2.6006,-2.5964,-2.5907,-2.5893,-2.5893,-2.5893,-2.5893,-2.5893,-2.5893,-2.5893,-2.5893,-2.5893,-2.5893,-2.5893,-2.5893,-2.5893,-2.5893,-2.5893,-2.5975,-2.6123,-2.6774,-2.5312,-2.5312,-2.5312,-2.5312,-2.5312,-2.5312,-2.5312,-2.5312,-2.5312,-2.5312,-2.5312,-2.5312,-2.5312,-2.5312,-2.5312,-2.5312,-2.5312,-2.5312,-2.5312,-2.5312,-2.5312,-2.5312,-2.5312,-2.5312,-2.5312,-2.5312,-2.5312,-2.5312,-2.5312,-2.5312,-2.5276,-2.5168,-2.4927,-2.4434,-2.3649,-2.2775,-2.2197,-2.2197,-2.2197,-2.2197,-2.2197,-2.2197,-2.2197,-2.2197,-2.2197,-2.2197,-2.2197,-2.2197,-2.2197,-2.2197,-2.2197,-2.2197,-2.2197,-2.2197,-2.2197,-2.2197,-2.2197,-2.2197,-2.2197,-2.2197,-2.2197,-2.2197,-2.2197,-2.2282,-2.2378,-2.2469,-2.2734,-2.318,-2.3542,-2.406,-2.4751,-2.5761,-2.6863,-2.7835,-2.8422,-2.8901,-2.9147,-2.9251,-2.9139,-2.9012,-2.8872,-2.8717,-2.8226,-2.7904,-2.7482,-2.6947,-2.6905,-2.6849,-2.6891,-2.6807,-2.6526,-2.6385,-2.6231,-2.6188,-2.6146,-2.6048,-2.595,-2.5893,-2.5893,-2.5893,-2.5893,-2.5921,-2.5921,-2.5893,-2.5893,-2.5893,-2.5893,-2.5893,-2.5893,-2.5893,-2.5893,-2.5921,-2.6258,-2.6431,-2.6814,-2.5312,-2.5312,-2.5312,-2.5312,-2.5312,-2.5312,-2.5312,-2.5312,-2.5312,-2.5312,-2.5312,-2.5312,-2.5312,-2.5312,-2.5312,-2.5312,-2.5312,-2.5312,-2.5312,-2.5312,-2.5312,-2.5312,-2.5312,-2.5312,-2.5312,-2.5312,-2.5312,-2.5312,-2.5312,-2.5312,-2.5312,-2.5228,-2.4987,-2.4566,-2.3758,-2.2714,-2.2221,-2.2197,-2.2197,-2.2197,-2.2197,-2.2197,-2.2197,-2.2197,-2.2197,-2.2197,-2.2197,-2.2197,-2.2197,-2.2197,-2.2197,-2.2197,-2.2197,-2.2197,-2.2197,-2.2197,-2.2197,-2.2197,-2.2197,-2.2197,-2.2197,-2.2197,-2.2197,-2.2366,-2.2806,-2.2987,-2.318,-2.3649,-2.3848,-2.462,-2.5479,-2.6388,-2.7396,-2.8239,-2.8819,-2.9278,-2.9484,-2.9602,-2.9434,-2.935,-2.942,-2.9336,-2.8759,-2.8326,-2.8087,-2.7833,-2.7791,-2.7749,-2.7679,-2.7383,-2.7017,-2.6905,-2.6736,-2.654,-2.6469,-2.6146,-2.6006,-2.5936,-2.5992,-2.6104,-2.6104,-2.6132,-2.6076,-2.5978,-2.5893,-2.5893,-2.5893,-2.5893,-2.5893,-2.5893,-2.5893,-2.6002,-2.6377,-2.6695,-2.6956,-2.5312,-2.5312,-2.5312,-2.5312,-2.5312,-2.5312,-2.5312,-2.5312,-2.5312,-2.5312,-2.5312,-2.5312,-2.5312,-2.5312,-2.5312,-2.5312,-2.5312,-2.5312,-2.5312,-2.5312,-2.5312,-2.5312,-2.5312,-2.5312,-2.5312,-2.5312,-2.5312,-2.5312,-2.5312,-2.5312,-2.5312,-2.524,-2.4723,-2.4155,-2.3601,-2.2799,-2.2197,-2.2197,-2.2197,-2.2197,-2.2197,-2.2197,-2.2197,-2.2197,-2.2197,-2.2197,-2.2197,-2.2197,-2.2197,-2.2197,-2.2197,-2.2197,-2.2197,-2.2197,-2.2197,-2.2197,-2.2197,-2.2197,-2.2197,-2.2197,-2.2197,-2.2209,-2.227,-2.2486,-2.2927,-2.2999,-2.3469,-2.4025,-2.4254,-2.5019,-2.5865,-2.664,-2.7532,-2.8263,-2.8826,-2.9296,-2.954,-2.9571,-2.9546,-2.9532,-2.9574,-2.956,-2.9195,-2.8914,-2.8675,-2.848,-2.8396,-2.8368,-2.8282,-2.7918,-2.7552,-2.7538,-2.7411,-2.7088,-2.6835,-2.6666,-2.6385,-2.6259,-2.6385,-2.6568,-2.654,-2.6455,-2.6427,-2.6413,-2.6146,-2.5893,-2.5893,-2.5893,-2.5893,-2.5893,-2.5978,-2.6099,-2.6404,-2.6669,-2.6904,-2.5312,-2.5312,-2.5312,-2.5312,-2.5312,-2.5312,-2.5312,-2.5312,-2.5312,-2.5312,-2.5312,-2.5312,-2.5312,-2.5312,-2.5312,-2.5312,-2.5312,-2.5312,-2.5312,-2.5312,-2.5312,-2.5312,-2.5312,-2.5312,-2.5312,-2.5312,-2.5312,-2.5312,-2.5312,-2.5312,-2.5312,-2.5059,-2.4348,-2.3974,-2.3493,-2.2835,-2.2197,-2.2197,-2.2197,-2.2197,-2.2197,-2.2197,-2.2197,-2.2197,-2.2197,-2.2197,-2.2197,-2.2197,-2.2197,-2.2197,-2.2197,-2.2197,-2.2197,-2.2197,-2.2197,-2.2197,-2.2197,-2.2197,-2.2197,-2.2462,-2.2498,-2.2554,-2.2493,-2.2843,-2.3316,-2.3616,-2.4049,-2.4518,-2.4723,-2.532,-2.6086,-2.6824,-2.7497,-2.8222,-2.883,-2.9289,-2.954,-2.9602,-2.9602,-2.9602,-2.9602,-2.9602,-2.9602,-2.956,-2.935,-2.9139,-2.8942,-2.8914,-2.8844,-2.848,-2.8185,-2.8241,-2.8058,-2.7735,-2.7481,-2.734,-2.7031,-2.6652,-2.6821,-2.7116,-2.6989,-2.6933,-2.6891,-2.6708,-2.6287,-2.595,-2.5907,-2.5907,-2.5964,-2.6076,-2.6188,-2.6336,-2.6474,-2.6835,-2.7225,-2.5312,-2.5312,-2.5312,-2.5312,-2.5312,-2.5312,-2.5312,-2.5312,-2.5312,-2.5312,-2.5312,-2.5312,-2.5312,-2.5312,-2.5312,-2.5312,-2.5312,-2.5312,-2.5312,-2.5312,-2.5312,-2.5312,-2.5312,-2.5312,-2.5312,-2.5312,-2.5312,-2.5312,-2.5312,-2.5312,-2.5312,-2.5023,-2.423,-2.3842,-2.3372,-2.2775,-2.2246,-2.2197,-2.2197,-2.2197,-2.2197,-2.2197,-2.2197,-2.2197,-2.2197,-2.2197,-2.2197,-2.2197,-2.2197,-2.2197,-2.2197,-2.2197,-2.2197,-2.2197,-2.2197,-2.2197,-2.2197,-2.2197,-2.2258,-2.2582,-2.2931,-2.3011,-2.3119,-2.3616,-2.4025,-2.422,-2.4542,-2.4891,-2.5131,-2.5646,-2.622,-2.6824,-2.7417,-2.8157,-2.8862,-2.9226,-2.9509,-2.9602,-2.9602,-2.9602,-2.9602,-2.9602,-2.9602,-2.9602,-2.9602,-2.949,-2.9293,-2.9321,-2.9223,-2.9012,-2.8844,-2.9026,-2.8774,-2.8354,-2.8143,-2.7945,-2.7621,-2.7214,-2.7538,-2.7762,-2.7593,-2.7439,-2.7355,-2.7074,-2.6343,-2.6048,-2.616,-2.616,-2.6104,-2.6259,-2.6736,-2.6897,-2.7161,-2.763,-2.8047,-2.5312,-2.5312,-2.5312,-2.5312,-2.5312,-2.5312,-2.5312,-2.5312,-2.5312,-2.5312,-2.5312,-2.5312,-2.5312,-2.5312,-2.5312,-2.5312,-2.5312,-2.5312,-2.5312,-2.5312,-2.5312,-2.5312,-2.5312,-2.5312,-2.5312,-2.53,-2.53,-2.5276,-2.53,-2.53,-2.4988,-2.4616,-2.4037,-2.3649,-2.3156,-2.2534,-2.2318,-2.2197,-2.2197,-2.2197,-2.2197,-2.2197,-2.2197,-2.2197,-2.2197,-2.2197,-2.2197,-2.2197,-2.2197,-2.2197,-2.2197,-2.2197,-2.2197,-2.2197,-2.2197,-2.2197,-2.2197,-2.2209,-2.2282,-2.2722,-2.318,-2.3556,-2.3821,-2.4109,-2.4424,-2.4638,-2.4831,-2.5119,-2.5312,-2.5664,-2.6208,-2.6812,-2.7484,-2.8189,-2.8862,-2.9289,-2.954,-2.9602,-2.9602,-2.9602,-2.9602,-2.9602,-2.9602,-2.9602,-2.9602,-2.9602,-2.9602,-2.9602,-2.956,-2.9336,-2.9265,-2.9434,-2.9364,-2.8872,-2.8647,-2.8464,-2.8141,-2.7902,-2.8212,-2.8438,-2.8338,-2.8169,-2.7917,-2.7397,-2.668,-2.6497,-2.6554,-2.6568,-2.661,-2.7216,-2.7641,-2.7734,-2.7898,-2.8373,-2.8948,-2.4699,-2.4699,-2.4711,-2.4711,-2.4723,-2.488,-2.4999,-2.5,-2.5216,-2.5312,-2.5312,-2.5312,-2.5312,-2.5312,-2.5312,-2.5312,-2.5312,-2.5312,-2.5312,-2.5312,-2.5288,-2.5312,-2.5312,-2.5288,-2.5312,-2.5264,-2.5143,-2.5071,-2.5155,-2.4999,-2.47,-2.4218,-2.3758,-2.3372,-2.2963,-2.2522,-2.2246,-2.2197,-2.2197,-2.2197,-2.2197,-2.2197,-2.2197,-2.2197,-2.2197,-2.2197,-2.2197,-2.2197,-2.2197,-2.2197,-2.2197,-2.2197,-2.2197,-2.2197,-2.2197,-2.2197,-2.2197,-2.2354,-2.257,-2.3039,-2.3565,-2.4013,-2.4506,-2.4759,-2.4796,-2.4916,-2.5083,-2.5264,-2.5358,-2.5558,-2.6173,-2.6812,-2.755,-2.8287,-2.8817,-2.9352,-2.9477,-2.9571,-2.9602,-2.9602,-2.9602,-2.9602,-2.9602,-2.9602,-2.9602,-2.9602,-2.9602,-2.9602,-2.9602,-2.9532,-2.9462,-2.9546,-2.9546,-2.9378,-2.9167,-2.897,-2.8802,-2.8675,-2.8872,-2.9026,-2.9012,-2.8633,-2.8141,-2.7607,-2.7031,-2.6961,-2.6947,-2.7172,-2.7356,-2.7952,-2.8555,-2.8826,-2.8954,-2.9146,-2.9773,-2.3818,-2.3842,-2.3806,-2.389,-2.3878,-2.4278,-2.4436,-2.4472,-2.4915,-2.5228,-2.5276,-2.5252,-2.5192,-2.5096,-2.5096,-2.5059,-2.5095,-2.5143,-2.5216,-2.524,-2.5131,-2.5119,-2.5119,-2.5168,-2.4903,-2.4891,-2.4819,-2.4614,-2.4867,-2.4687,-2.4242,-2.3782,-2.3336,-2.3059,-2.2951,-2.245,-2.2209,-2.2197,-2.2197,-2.2197,-2.2197,-2.2197,-2.2197,-2.2197,-2.2197,-2.2197,-2.2197,-2.2197,-2.2197,-2.2197,-2.2197,-2.2197,-2.2197,-2.2197,-2.2197,-2.227,-2.2306,-2.2546,-2.2931,-2.3448,-2.3953,-2.447,-2.4987,-2.5131,-2.5155,-2.5108,-2.5252,-2.5276,-2.5347,-2.5523,-2.607,-2.6722,-2.743,-2.8124,-2.8753,-2.9212,-2.9509,-2.9602,-2.9602,-2.9602,-2.9602,-2.9602,-2.9602,-2.9602,-2.9602,-2.9602,-2.9602,-2.9602,-2.9602,-2.9602,-2.9602,-2.9602,-2.9588,-2.9574,-2.9504,-2.9378,-2.9462,-2.949,-2.9504,-2.9476,-2.9336,-2.8858,-2.8282,-2.7818,-2.7397,-2.7326,-2.7326,-2.7552,-2.7965,-2.874,-2.9305,-2.9885,-3.0079,-3.0131,-3.0564,-2.3806,-2.3806,-2.3806,-2.3806,-2.3818,-2.3926,-2.3953,-2.3986,-2.4107,-2.459,-2.5119,-2.4903,-2.4711,-2.4711,-2.4711,-2.4578,-2.4386,-2.4831,-2.4975,-2.4819,-2.4711,-2.4711,-2.4638,-2.4458,-2.4312,-2.4143,-2.4025,-2.4049,-2.4083,-2.3965,-2.3893,-2.3722,-2.3228,-2.2939,-2.2903,-2.2402,-2.2197,-2.2197,-2.2282,-2.2282,-2.2282,-2.2221,-2.2197,-2.2221,-2.2234,-2.2258,-2.2258,-2.2234,-2.2209,-2.2197,-2.2197,-2.2197,-2.2197,-2.2197,-2.2197,-2.2258,-2.259,-2.2867,-2.3256,-2.3809,-2.4326,-2.4602,-2.4963,-2.5192,-2.5312,-2.5312,-2.5312,-2.5312,-2.5382,-2.5594,-2.5943,-2.6586,-2.7242,-2.796,-2.8656,-2.9117,-2.954,-2.9571,-2.9602,-2.9602,-2.9602,-2.9602,-2.9602,-2.9602,-2.9602,-2.9602,-2.9602,-2.9602,-2.9602,-2.9602,-2.9602,-2.9602,-2.9602,-2.9602,-2.9602,-2.9602,-2.9602,-2.9602,-2.956,-2.9574,-2.9602,-2.9153,-2.8633,-2.8183,-2.7832,-2.7832,-2.7818,-2.7847,-2.8392,-2.9272,-2.9782,-3.0236,-3.0877,-3.1052,-3.1496,-2.3107,-2.3095,-2.3107,-2.3063,-2.3144,-2.3348,-2.3457,-2.3493,-2.3697,-2.4107,-2.4542,-2.4326,-2.4181,-2.4181,-2.4181,-2.4073,-2.3878,-2.4326,-2.4362,-2.4242,-2.4181,-2.4181,-2.4037,-2.3902,-2.3938,-2.3806,-2.3758,-2.3697,-2.33,-2.3348,-2.3352,-2.3123,-2.2763,-2.2654,-2.2638,-2.233,-2.2221,-2.2197,-2.2402,-2.2546,-2.2541,-2.239,-2.2402,-2.2414,-2.2546,-2.2546,-2.2546,-2.257,-2.2714,-2.2702,-2.2727,-2.2366,-2.2282,-2.2197,-2.233,-2.2558,-2.2859,-2.3183,-2.3664,-2.4133,-2.4616,-2.4891,-2.5047,-2.5312,-2.5312,-2.5312,-2.5312,-2.5312,-2.5312,-2.5488,-2.5804,-2.6346,-2.7061,-2.7762,-2.856,-2.9194,-2.9477,-2.9602,-2.9602,-2.9602,-2.9602,-2.9602,-2.9602,-2.9602,-2.9602,-2.9602,-2.9602,-2.9602,-2.9602,-2.9602,-2.9602,-2.9602,-2.9602,-2.9602,-2.9602,-2.9602,-2.9602,-2.9602,-2.9602,-2.9602,-2.9574,-2.935,-2.8998,-2.8591,-2.8394,-2.8478,-2.8464,-2.8366,-2.8902,-2.9803,-3.0215,-3.051,-3.1175,-3.1768,-3.1962,-2.2234,-2.2197,-2.2209,-2.2209,-2.2258,-2.2678,-2.2915,-2.2955,-2.3384,-2.3565,-2.3589,-2.3577,-2.3625,-2.3697,-2.3697,-2.3661,-2.3722,-2.3905,-2.3854,-2.3722,-2.3697,-2.3697,-2.3616,-2.3565,-2.3433,-2.3396,-2.3384,-2.2951,-2.2426,-2.2654,-2.269,-2.227,-2.2197,-2.2209,-2.2209,-2.2294,-2.2378,-2.2534,-2.2794,-2.3087,-2.2931,-2.269,-2.2811,-2.2967,-2.3107,-2.3075,-2.3075,-2.3192,-2.3408,-2.3396,-2.3288,-2.2871,-2.263,-2.2546,-2.2654,-2.2939,-2.3256,-2.3725,-2.4218,-2.4508,-2.4903,-2.5155,-2.5276,-2.5312,-2.5312,-2.5312,-2.5312,-2.5312,-2.5312,-2.5418,-2.5734,-2.6242,-2.696,-2.765,-2.8495,-2.9257,-2.9446,-2.9602,-2.9602,-2.9602,-2.9602,-2.9602,-2.9602,-2.9602,-2.9602,-2.9602,-2.9602,-2.9602,-2.9602,-2.9602,-2.9602,-2.9602,-2.9602,-2.9602,-2.9602,-2.9602,-2.9602,-2.9602,-2.9602,-2.9602,-2.9574,-2.9434,-2.9265,-2.9055,-2.8928,-2.8858,-2.8928,-2.89,-2.9586,-3.0117,-3.0523,-3.0792,-3.1321,-3.1853,-3.2035,-2.2197,-2.2197,-2.2197,-2.2197,-2.2221,-2.2318,-2.2354,-2.2354,-2.2462,-2.2498,-2.2582,-2.259,-2.2722,-2.3156,-2.3168,-2.3071,-2.2871,-2.3256,-2.3372,-2.3216,-2.318,-2.3168,-2.3095,-2.2939,-2.2582,-2.2594,-2.2666,-2.239,-2.2197,-2.2318,-2.2354,-2.2258,-2.2234,-2.2258,-2.233,-2.251,-2.2891,-2.3035,-2.336,-2.3713,-2.3953,-2.3761,-2.3589,-2.3637,-2.3649,-2.3649,-2.3649,-2.3649,-2.3697,-2.3722,-2.3697,-2.3328,-2.3123,-2.3119,-2.3252,-2.334,-2.3701,-2.4145,-2.4556,-2.4856,-2.5192,-2.524,-2.5312,-2.5312,-2.5312,-2.5312,-2.5312,-2.5312,-2.5312,-2.5312,-2.5629,-2.6358,-2.7061,-2.7829,-2.8624,-2.918,-2.9571,-2.9602,-2.9602,-2.9602,-2.9602,-2.9602,-2.9602,-2.9602,-2.9602,-2.9602,-2.9602,-2.9602,-2.9602,-2.9602,-2.9602,-2.9602,-2.9602,-2.9602,-2.9602,-2.9602,-2.9602,-2.9602,-2.9602,-2.9602,-2.9602,-2.9602,-2.9448,-2.9279,-2.9097,-2.897,-2.9083,-2.9251,-2.9523,-2.9999,-3.0614,-3.1087,-3.1567,-3.191,-3.2064]}]]